<?xml version="1.0" encoding="UTF-8" standalone="no" ?>
<gpx xmlns="http://www.topografix.com/GPX/1/1" xmlns:xsi="http://www.w3.org/2001/XMLSchema-instance" xsi:schemaLocation="http://www.topografix.com/GPX/1/1 http://www.topografix.com/GPX/1/1/gpx.xsd" version="1.1" creator="VisuGPX - https://www.visugpx.com">
  <metadata>
    <name>9347029-gorge  du tarn point sublime</name>
  </metadata>
  <trk>
    <name><![CDATA[9347029-gorge  du tarn point sublime]]></name>
    <trkseg>
      <trkpt lat="44.19085" lon="3.15649">
        <ele>397</ele>
        <time>2019-05-22T20:05:14Z</time>
      </trkpt>
      <trkpt lat="44.19108" lon="3.15652">
        <ele>397</ele>
        <time>2019-05-22T20:05:18Z</time>
      </trkpt>
      <trkpt lat="44.19148" lon="3.15648">
        <ele>400</ele>
        <time>2019-05-22T20:05:25Z</time>
      </trkpt>
      <trkpt lat="44.19203" lon="3.15638">
        <ele>404</ele>
        <time>2019-05-22T20:05:35Z</time>
      </trkpt>
      <trkpt lat="44.19239" lon="3.15628">
        <ele>406</ele>
        <time>2019-05-22T20:05:42Z</time>
      </trkpt>
      <trkpt lat="44.19289" lon="3.15607">
        <ele>405</ele>
        <time>2019-05-22T20:05:51Z</time>
      </trkpt>
      <trkpt lat="44.19314" lon="3.15598">
        <ele>403</ele>
        <time>2019-05-22T20:05:56Z</time>
      </trkpt>
      <trkpt lat="44.19326" lon="3.15588">
        <ele>403</ele>
        <time>2019-05-22T20:05:58Z</time>
      </trkpt>
      <trkpt lat="44.19467" lon="3.15431">
        <ele>409</ele>
        <time>2019-05-22T20:06:30Z</time>
      </trkpt>
      <trkpt lat="44.19484" lon="3.15416">
        <ele>407</ele>
        <time>2019-05-22T20:06:34Z</time>
      </trkpt>
      <trkpt lat="44.19507" lon="3.15401">
        <ele>405</ele>
        <time>2019-05-22T20:06:38Z</time>
      </trkpt>
      <trkpt lat="44.19528" lon="3.1539">
        <ele>405</ele>
        <time>2019-05-22T20:06:42Z</time>
      </trkpt>
      <trkpt lat="44.19588" lon="3.15371">
        <ele>400</ele>
        <time>2019-05-22T20:06:53Z</time>
      </trkpt>
      <trkpt lat="44.19627" lon="3.15366">
        <ele>401</ele>
        <time>2019-05-22T20:07:00Z</time>
      </trkpt>
      <trkpt lat="44.19722" lon="3.15379">
        <ele>397</ele>
        <time>2019-05-22T20:07:17Z</time>
      </trkpt>
      <trkpt lat="44.19771" lon="3.15378">
        <ele>395</ele>
        <time>2019-05-22T20:07:26Z</time>
      </trkpt>
      <trkpt lat="44.19847" lon="3.15367">
        <ele>393</ele>
        <time>2019-05-22T20:07:39Z</time>
      </trkpt>
      <trkpt lat="44.19877" lon="3.15364">
        <ele>395</ele>
        <time>2019-05-22T20:07:45Z</time>
      </trkpt>
      <trkpt lat="44.19903" lon="3.15366">
        <ele>395</ele>
        <time>2019-05-22T20:07:49Z</time>
      </trkpt>
      <trkpt lat="44.19933" lon="3.15372">
        <ele>397</ele>
        <time>2019-05-22T20:07:55Z</time>
      </trkpt>
      <trkpt lat="44.19965" lon="3.15385">
        <ele>399</ele>
        <time>2019-05-22T20:08:01Z</time>
      </trkpt>
      <trkpt lat="44.20003" lon="3.15415">
        <ele>400</ele>
        <time>2019-05-22T20:08:08Z</time>
      </trkpt>
      <trkpt lat="44.20029" lon="3.15448">
        <ele>400</ele>
        <time>2019-05-22T20:08:15Z</time>
      </trkpt>
      <trkpt lat="44.20052" lon="3.15486">
        <ele>400</ele>
        <time>2019-05-22T20:08:21Z</time>
      </trkpt>
      <trkpt lat="44.20066" lon="3.15516">
        <ele>399</ele>
        <time>2019-05-22T20:08:26Z</time>
      </trkpt>
      <trkpt lat="44.20075" lon="3.15542">
        <ele>398</ele>
        <time>2019-05-22T20:08:29Z</time>
      </trkpt>
      <trkpt lat="44.20098" lon="3.15619">
        <ele>394</ele>
        <time>2019-05-22T20:08:40Z</time>
      </trkpt>
      <trkpt lat="44.20109" lon="3.15648">
        <ele>393</ele>
        <time>2019-05-22T20:08:44Z</time>
      </trkpt>
      <trkpt lat="44.20119" lon="3.15667">
        <ele>392</ele>
        <time>2019-05-22T20:08:47Z</time>
      </trkpt>
      <trkpt lat="44.2013" lon="3.15681">
        <ele>392</ele>
        <time>2019-05-22T20:08:50Z</time>
      </trkpt>
      <trkpt lat="44.2014" lon="3.15689">
        <ele>392</ele>
        <time>2019-05-22T20:08:52Z</time>
      </trkpt>
      <trkpt lat="44.20154" lon="3.15698">
        <ele>392</ele>
        <time>2019-05-22T20:08:55Z</time>
      </trkpt>
      <trkpt lat="44.20173" lon="3.15703">
        <ele>393</ele>
        <time>2019-05-22T20:08:58Z</time>
      </trkpt>
      <trkpt lat="44.20271" lon="3.15705">
        <ele>392</ele>
        <time>2019-05-22T20:09:16Z</time>
      </trkpt>
      <trkpt lat="44.2029" lon="3.15707">
        <ele>392</ele>
        <time>2019-05-22T20:09:19Z</time>
      </trkpt>
      <trkpt lat="44.20302" lon="3.15711">
        <ele>391</ele>
        <time>2019-05-22T20:09:21Z</time>
      </trkpt>
      <trkpt lat="44.20316" lon="3.1572">
        <ele>391</ele>
        <time>2019-05-22T20:09:24Z</time>
      </trkpt>
      <trkpt lat="44.20328" lon="3.15732">
        <ele>390</ele>
        <time>2019-05-22T20:09:26Z</time>
      </trkpt>
      <trkpt lat="44.20336" lon="3.15744">
        <ele>389</ele>
        <time>2019-05-22T20:09:29Z</time>
      </trkpt>
      <trkpt lat="44.20344" lon="3.15769">
        <ele>388</ele>
        <time>2019-05-22T20:09:32Z</time>
      </trkpt>
      <trkpt lat="44.20363" lon="3.15874">
        <ele>389</ele>
        <time>2019-05-22T20:09:46Z</time>
      </trkpt>
      <trkpt lat="44.20363" lon="3.15885">
        <ele>390</ele>
        <time>2019-05-22T20:09:47Z</time>
      </trkpt>
      <trkpt lat="44.20361" lon="3.15894">
        <ele>390</ele>
        <time>2019-05-22T20:09:48Z</time>
      </trkpt>
      <trkpt lat="44.20355" lon="3.15904">
        <ele>390</ele>
        <time>2019-05-22T20:09:50Z</time>
      </trkpt>
      <trkpt lat="44.20349" lon="3.15912">
        <ele>390</ele>
        <time>2019-05-22T20:09:52Z</time>
      </trkpt>
      <trkpt lat="44.20145" lon="3.16001">
        <ele>389</ele>
        <time>2019-05-22T20:10:30Z</time>
      </trkpt>
      <trkpt lat="44.20127" lon="3.16014">
        <ele>389</ele>
        <time>2019-05-22T20:10:33Z</time>
      </trkpt>
      <trkpt lat="44.20111" lon="3.16042">
        <ele>391</ele>
        <time>2019-05-22T20:10:38Z</time>
      </trkpt>
      <trkpt lat="44.201" lon="3.16086">
        <ele>393</ele>
        <time>2019-05-22T20:10:44Z</time>
      </trkpt>
      <trkpt lat="44.20096" lon="3.16117">
        <ele>396</ele>
        <time>2019-05-22T20:10:48Z</time>
      </trkpt>
      <trkpt lat="44.20096" lon="3.16144">
        <ele>399</ele>
        <time>2019-05-22T20:10:51Z</time>
      </trkpt>
      <trkpt lat="44.20102" lon="3.16228">
        <ele>404</ele>
        <time>2019-05-22T20:11:02Z</time>
      </trkpt>
      <trkpt lat="44.20105" lon="3.16359">
        <ele>397</ele>
        <time>2019-05-22T20:11:19Z</time>
      </trkpt>
      <trkpt lat="44.20109" lon="3.1645">
        <ele>397</ele>
        <time>2019-05-22T20:11:30Z</time>
      </trkpt>
      <trkpt lat="44.20124" lon="3.16576">
        <ele>401</ele>
        <time>2019-05-22T20:11:47Z</time>
      </trkpt>
      <trkpt lat="44.20124" lon="3.16627">
        <ele>400</ele>
        <time>2019-05-22T20:11:53Z</time>
      </trkpt>
      <trkpt lat="44.20121" lon="3.16727">
        <ele>396</ele>
        <time>2019-05-22T20:12:06Z</time>
      </trkpt>
      <trkpt lat="44.20124" lon="3.16791">
        <ele>395</ele>
        <time>2019-05-22T20:12:14Z</time>
      </trkpt>
      <trkpt lat="44.2014" lon="3.16934">
        <ele>398</ele>
        <time>2019-05-22T20:12:33Z</time>
      </trkpt>
      <trkpt lat="44.20156" lon="3.17032">
        <ele>395</ele>
        <time>2019-05-22T20:12:45Z</time>
      </trkpt>
      <trkpt lat="44.20161" lon="3.17098">
        <ele>392</ele>
        <time>2019-05-22T20:12:54Z</time>
      </trkpt>
      <trkpt lat="44.20179" lon="3.17203">
        <ele>392</ele>
        <time>2019-05-22T20:13:08Z</time>
      </trkpt>
      <trkpt lat="44.20181" lon="3.17246">
        <ele>389</ele>
        <time>2019-05-22T20:13:13Z</time>
      </trkpt>
      <trkpt lat="44.2018" lon="3.17308">
        <ele>388</ele>
        <time>2019-05-22T20:13:21Z</time>
      </trkpt>
      <trkpt lat="44.20178" lon="3.17327">
        <ele>388</ele>
        <time>2019-05-22T20:13:23Z</time>
      </trkpt>
      <trkpt lat="44.20173" lon="3.1735">
        <ele>390</ele>
        <time>2019-05-22T20:13:27Z</time>
      </trkpt>
      <trkpt lat="44.20167" lon="3.17365">
        <ele>390</ele>
        <time>2019-05-22T20:13:29Z</time>
      </trkpt>
      <trkpt lat="44.2015" lon="3.17392">
        <ele>391</ele>
        <time>2019-05-22T20:13:33Z</time>
      </trkpt>
      <trkpt lat="44.20135" lon="3.17426">
        <ele>392</ele>
        <time>2019-05-22T20:13:38Z</time>
      </trkpt>
      <trkpt lat="44.20123" lon="3.17462">
        <ele>392</ele>
        <time>2019-05-22T20:13:43Z</time>
      </trkpt>
      <trkpt lat="44.20108" lon="3.17527">
        <ele>392</ele>
        <time>2019-05-22T20:13:52Z</time>
      </trkpt>
      <trkpt lat="44.20105" lon="3.17559">
        <ele>393</ele>
        <time>2019-05-22T20:13:56Z</time>
      </trkpt>
      <trkpt lat="44.20104" lon="3.17611">
        <ele>395</ele>
        <time>2019-05-22T20:14:03Z</time>
      </trkpt>
      <trkpt lat="44.20095" lon="3.17681">
        <ele>395</ele>
        <time>2019-05-22T20:14:12Z</time>
      </trkpt>
      <trkpt lat="44.20095" lon="3.17681">
        <ele>395</ele>
        <time>2019-05-22T20:14:12Z</time>
      </trkpt>
      <trkpt lat="44.20081" lon="3.17766">
        <ele>395</ele>
        <time>2019-05-22T20:14:23Z</time>
      </trkpt>
      <trkpt lat="44.20068" lon="3.17807">
        <ele>397</ele>
        <time>2019-05-22T20:14:29Z</time>
      </trkpt>
      <trkpt lat="44.20029" lon="3.17897">
        <ele>397</ele>
        <time>2019-05-22T20:14:42Z</time>
      </trkpt>
      <trkpt lat="44.19995" lon="3.17993">
        <ele>397</ele>
        <time>2019-05-22T20:14:56Z</time>
      </trkpt>
      <trkpt lat="44.19982" lon="3.18037">
        <ele>397</ele>
        <time>2019-05-22T20:15:02Z</time>
      </trkpt>
      <trkpt lat="44.19975" lon="3.18077">
        <ele>398</ele>
        <time>2019-05-22T20:15:07Z</time>
      </trkpt>
      <trkpt lat="44.19973" lon="3.18109">
        <ele>398</ele>
        <time>2019-05-22T20:15:11Z</time>
      </trkpt>
      <trkpt lat="44.19973" lon="3.18146">
        <ele>399</ele>
        <time>2019-05-22T20:15:16Z</time>
      </trkpt>
      <trkpt lat="44.19978" lon="3.1821">
        <ele>402</ele>
        <time>2019-05-22T20:15:24Z</time>
      </trkpt>
      <trkpt lat="44.19977" lon="3.18241">
        <ele>403</ele>
        <time>2019-05-22T20:15:28Z</time>
      </trkpt>
      <trkpt lat="44.19972" lon="3.18274">
        <ele>403</ele>
        <time>2019-05-22T20:15:33Z</time>
      </trkpt>
      <trkpt lat="44.19963" lon="3.18309">
        <ele>403</ele>
        <time>2019-05-22T20:15:37Z</time>
      </trkpt>
      <trkpt lat="44.19947" lon="3.18348">
        <ele>402</ele>
        <time>2019-05-22T20:15:43Z</time>
      </trkpt>
      <trkpt lat="44.1993" lon="3.18387">
        <ele>403</ele>
        <time>2019-05-22T20:15:49Z</time>
      </trkpt>
      <trkpt lat="44.19908" lon="3.18424">
        <ele>403</ele>
        <time>2019-05-22T20:15:55Z</time>
      </trkpt>
      <trkpt lat="44.19873" lon="3.18464">
        <ele>403</ele>
        <time>2019-05-22T20:16:03Z</time>
      </trkpt>
      <trkpt lat="44.19697" lon="3.18584">
        <ele>397</ele>
        <time>2019-05-22T20:16:38Z</time>
      </trkpt>
      <trkpt lat="44.19679" lon="3.18603">
        <ele>397</ele>
        <time>2019-05-22T20:16:42Z</time>
      </trkpt>
      <trkpt lat="44.19669" lon="3.18618">
        <ele>398</ele>
        <time>2019-05-22T20:16:44Z</time>
      </trkpt>
      <trkpt lat="44.1965" lon="3.18657">
        <ele>399</ele>
        <time>2019-05-22T20:16:50Z</time>
      </trkpt>
      <trkpt lat="44.19642" lon="3.18686">
        <ele>399</ele>
        <time>2019-05-22T20:16:54Z</time>
      </trkpt>
      <trkpt lat="44.19638" lon="3.18706">
        <ele>398</ele>
        <time>2019-05-22T20:16:57Z</time>
      </trkpt>
      <trkpt lat="44.19637" lon="3.18735">
        <ele>399</ele>
        <time>2019-05-22T20:17:01Z</time>
      </trkpt>
      <trkpt lat="44.19639" lon="3.18769">
        <ele>398</ele>
        <time>2019-05-22T20:17:05Z</time>
      </trkpt>
      <trkpt lat="44.19644" lon="3.18792">
        <ele>397</ele>
        <time>2019-05-22T20:17:08Z</time>
      </trkpt>
      <trkpt lat="44.19656" lon="3.18822">
        <ele>396</ele>
        <time>2019-05-22T20:17:13Z</time>
      </trkpt>
      <trkpt lat="44.1967" lon="3.18843">
        <ele>395</ele>
        <time>2019-05-22T20:17:16Z</time>
      </trkpt>
      <trkpt lat="44.19686" lon="3.18857">
        <ele>395</ele>
        <time>2019-05-22T20:17:20Z</time>
      </trkpt>
      <trkpt lat="44.1974" lon="3.18882">
        <ele>396</ele>
        <time>2019-05-22T20:17:30Z</time>
      </trkpt>
      <trkpt lat="44.19763" lon="3.18897">
        <ele>395</ele>
        <time>2019-05-22T20:17:34Z</time>
      </trkpt>
      <trkpt lat="44.19774" lon="3.18907">
        <ele>395</ele>
        <time>2019-05-22T20:17:37Z</time>
      </trkpt>
      <trkpt lat="44.19792" lon="3.18933">
        <ele>394</ele>
        <time>2019-05-22T20:17:41Z</time>
      </trkpt>
      <trkpt lat="44.19866" lon="3.19079">
        <ele>397</ele>
        <time>2019-05-22T20:18:04Z</time>
      </trkpt>
      <trkpt lat="44.19877" lon="3.19115">
        <ele>397</ele>
        <time>2019-05-22T20:18:09Z</time>
      </trkpt>
      <trkpt lat="44.19879" lon="3.19155">
        <ele>396</ele>
        <time>2019-05-22T20:18:14Z</time>
      </trkpt>
      <trkpt lat="44.19875" lon="3.19228">
        <ele>397</ele>
        <time>2019-05-22T20:18:23Z</time>
      </trkpt>
      <trkpt lat="44.1987" lon="3.19261">
        <ele>397</ele>
        <time>2019-05-22T20:18:28Z</time>
      </trkpt>
      <trkpt lat="44.19859" lon="3.19315">
        <ele>399</ele>
        <time>2019-05-22T20:18:35Z</time>
      </trkpt>
      <trkpt lat="44.19769" lon="3.19545">
        <ele>400</ele>
        <time>2019-05-22T20:19:08Z</time>
      </trkpt>
      <trkpt lat="44.19759" lon="3.19577">
        <ele>399</ele>
        <time>2019-05-22T20:19:13Z</time>
      </trkpt>
      <trkpt lat="44.1972" lon="3.19732">
        <ele>397</ele>
        <time>2019-05-22T20:19:34Z</time>
      </trkpt>
      <trkpt lat="44.19707" lon="3.19773">
        <ele>398</ele>
        <time>2019-05-22T20:19:39Z</time>
      </trkpt>
      <trkpt lat="44.1969" lon="3.19808">
        <ele>399</ele>
        <time>2019-05-22T20:19:45Z</time>
      </trkpt>
      <trkpt lat="44.19559" lon="3.20029">
        <ele>396</ele>
        <time>2019-05-22T20:20:21Z</time>
      </trkpt>
      <trkpt lat="44.19547" lon="3.20065">
        <ele>398</ele>
        <time>2019-05-22T20:20:27Z</time>
      </trkpt>
      <trkpt lat="44.19531" lon="3.20146">
        <ele>400</ele>
        <time>2019-05-22T20:20:37Z</time>
      </trkpt>
      <trkpt lat="44.19508" lon="3.20229">
        <ele>399</ele>
        <time>2019-05-22T20:20:49Z</time>
      </trkpt>
      <trkpt lat="44.19485" lon="3.20368">
        <ele>399</ele>
        <time>2019-05-22T20:21:07Z</time>
      </trkpt>
      <trkpt lat="44.19469" lon="3.20426">
        <ele>398</ele>
        <time>2019-05-22T20:21:15Z</time>
      </trkpt>
      <trkpt lat="44.19451" lon="3.20468">
        <ele>396</ele>
        <time>2019-05-22T20:21:21Z</time>
      </trkpt>
      <trkpt lat="44.19446" lon="3.2049">
        <ele>395</ele>
        <time>2019-05-22T20:21:24Z</time>
      </trkpt>
      <trkpt lat="44.19457" lon="3.20594">
        <ele>397</ele>
        <time>2019-05-22T20:21:37Z</time>
      </trkpt>
      <trkpt lat="44.19456" lon="3.20636">
        <ele>398</ele>
        <time>2019-05-22T20:21:43Z</time>
      </trkpt>
      <trkpt lat="44.19451" lon="3.20673">
        <ele>398</ele>
        <time>2019-05-22T20:21:47Z</time>
      </trkpt>
      <trkpt lat="44.19449" lon="3.20704">
        <ele>399</ele>
        <time>2019-05-22T20:21:51Z</time>
      </trkpt>
      <trkpt lat="44.19459" lon="3.20788">
        <ele>401</ele>
        <time>2019-05-22T20:22:02Z</time>
      </trkpt>
      <trkpt lat="44.19472" lon="3.20877">
        <ele>399</ele>
        <time>2019-05-22T20:22:14Z</time>
      </trkpt>
      <trkpt lat="44.19482" lon="3.20929">
        <ele>398</ele>
        <time>2019-05-22T20:22:21Z</time>
      </trkpt>
      <trkpt lat="44.19533" lon="3.21076">
        <ele>399</ele>
        <time>2019-05-22T20:22:42Z</time>
      </trkpt>
      <trkpt lat="44.19558" lon="3.21111">
        <ele>402</ele>
        <time>2019-05-22T20:22:48Z</time>
      </trkpt>
      <trkpt lat="44.19599" lon="3.21162">
        <ele>402</ele>
        <time>2019-05-22T20:22:58Z</time>
      </trkpt>
      <trkpt lat="44.19615" lon="3.21172">
        <ele>404</ele>
        <time>2019-05-22T20:23:01Z</time>
      </trkpt>
      <trkpt lat="44.19656" lon="3.21185">
        <ele>409</ele>
        <time>2019-05-22T20:23:08Z</time>
      </trkpt>
      <trkpt lat="44.19685" lon="3.21204">
        <ele>411</ele>
        <time>2019-05-22T20:23:14Z</time>
      </trkpt>
      <trkpt lat="44.19723" lon="3.21237">
        <ele>412</ele>
        <time>2019-05-22T20:23:22Z</time>
      </trkpt>
      <trkpt lat="44.19771" lon="3.21284">
        <ele>413</ele>
        <time>2019-05-22T20:23:32Z</time>
      </trkpt>
      <trkpt lat="44.19804" lon="3.21309">
        <ele>413</ele>
        <time>2019-05-22T20:23:39Z</time>
      </trkpt>
      <trkpt lat="44.19916" lon="3.21381">
        <ele>414</ele>
        <time>2019-05-22T20:24:01Z</time>
      </trkpt>
      <trkpt lat="44.19942" lon="3.21391">
        <ele>413</ele>
        <time>2019-05-22T20:24:06Z</time>
      </trkpt>
      <trkpt lat="44.20014" lon="3.21408">
        <ele>413</ele>
        <time>2019-05-22T20:24:19Z</time>
      </trkpt>
      <trkpt lat="44.20044" lon="3.21411">
        <ele>415</ele>
        <time>2019-05-22T20:24:24Z</time>
      </trkpt>
      <trkpt lat="44.20077" lon="3.21411">
        <ele>420</ele>
        <time>2019-05-22T20:24:30Z</time>
      </trkpt>
      <trkpt lat="44.201" lon="3.21415">
        <ele>422</ele>
        <time>2019-05-22T20:24:34Z</time>
      </trkpt>
      <trkpt lat="44.20125" lon="3.21426">
        <ele>423</ele>
        <time>2019-05-22T20:24:39Z</time>
      </trkpt>
      <trkpt lat="44.20144" lon="3.21437">
        <ele>422</ele>
        <time>2019-05-22T20:24:42Z</time>
      </trkpt>
      <trkpt lat="44.20166" lon="3.21444">
        <ele>422</ele>
        <time>2019-05-22T20:24:46Z</time>
      </trkpt>
      <trkpt lat="44.20207" lon="3.21475">
        <ele>421</ele>
        <time>2019-05-22T20:24:55Z</time>
      </trkpt>
      <trkpt lat="44.20248" lon="3.21514">
        <ele>417</ele>
        <time>2019-05-22T20:25:04Z</time>
      </trkpt>
      <trkpt lat="44.20296" lon="3.21569">
        <ele>416</ele>
        <time>2019-05-22T20:25:15Z</time>
      </trkpt>
      <trkpt lat="44.20318" lon="3.21597">
        <ele>414</ele>
        <time>2019-05-22T20:25:20Z</time>
      </trkpt>
      <trkpt lat="44.20335" lon="3.21632">
        <ele>410</ele>
        <time>2019-05-22T20:25:25Z</time>
      </trkpt>
      <trkpt lat="44.2035" lon="3.21668">
        <ele>406</ele>
        <time>2019-05-22T20:25:31Z</time>
      </trkpt>
      <trkpt lat="44.20406" lon="3.21755">
        <ele>403</ele>
        <time>2019-05-22T20:25:46Z</time>
      </trkpt>
      <trkpt lat="44.2043" lon="3.21783">
        <ele>401</ele>
        <time>2019-05-22T20:25:51Z</time>
      </trkpt>
      <trkpt lat="44.20494" lon="3.21845">
        <ele>403</ele>
        <time>2019-05-22T20:26:05Z</time>
      </trkpt>
      <trkpt lat="44.20514" lon="3.21879">
        <ele>402</ele>
        <time>2019-05-22T20:26:11Z</time>
      </trkpt>
      <trkpt lat="44.20523" lon="3.21888">
        <ele>402</ele>
        <time>2019-05-22T20:26:13Z</time>
      </trkpt>
      <trkpt lat="44.20561" lon="3.21911">
        <ele>403</ele>
        <time>2019-05-22T20:26:20Z</time>
      </trkpt>
      <trkpt lat="44.20576" lon="3.21914">
        <ele>404</ele>
        <time>2019-05-22T20:26:23Z</time>
      </trkpt>
      <trkpt lat="44.20594" lon="3.2191">
        <ele>407</ele>
        <time>2019-05-22T20:26:26Z</time>
      </trkpt>
      <trkpt lat="44.20605" lon="3.21911">
        <ele>409</ele>
        <time>2019-05-22T20:26:28Z</time>
      </trkpt>
      <trkpt lat="44.20618" lon="3.21916">
        <ele>410</ele>
        <time>2019-05-22T20:26:30Z</time>
      </trkpt>
      <trkpt lat="44.2063" lon="3.21924">
        <ele>410</ele>
        <time>2019-05-22T20:26:33Z</time>
      </trkpt>
      <trkpt lat="44.20646" lon="3.21944">
        <ele>409</ele>
        <time>2019-05-22T20:26:36Z</time>
      </trkpt>
      <trkpt lat="44.20663" lon="3.21959">
        <ele>408</ele>
        <time>2019-05-22T20:26:40Z</time>
      </trkpt>
      <trkpt lat="44.20681" lon="3.21968">
        <ele>410</ele>
        <time>2019-05-22T20:26:43Z</time>
      </trkpt>
      <trkpt lat="44.207" lon="3.21972">
        <ele>413</ele>
        <time>2019-05-22T20:26:47Z</time>
      </trkpt>
      <trkpt lat="44.20716" lon="3.21979">
        <ele>415</ele>
        <time>2019-05-22T20:26:50Z</time>
      </trkpt>
      <trkpt lat="44.20768" lon="3.22009">
        <ele>421</ele>
        <time>2019-05-22T20:27:00Z</time>
      </trkpt>
      <trkpt lat="44.20783" lon="3.22025">
        <ele>422</ele>
        <time>2019-05-22T20:27:03Z</time>
      </trkpt>
      <trkpt lat="44.20795" lon="3.22051">
        <ele>418</ele>
        <time>2019-05-22T20:27:07Z</time>
      </trkpt>
      <trkpt lat="44.20813" lon="3.22067">
        <ele>418</ele>
        <time>2019-05-22T20:27:11Z</time>
      </trkpt>
      <trkpt lat="44.20858" lon="3.22085">
        <ele>424</ele>
        <time>2019-05-22T20:27:19Z</time>
      </trkpt>
      <trkpt lat="44.20879" lon="3.221">
        <ele>426</ele>
        <time>2019-05-22T20:27:23Z</time>
      </trkpt>
      <trkpt lat="44.20901" lon="3.22126">
        <ele>423</ele>
        <time>2019-05-22T20:27:29Z</time>
      </trkpt>
      <trkpt lat="44.20932" lon="3.22151">
        <ele>422</ele>
        <time>2019-05-22T20:27:35Z</time>
      </trkpt>
      <trkpt lat="44.20968" lon="3.22188">
        <ele>422</ele>
        <time>2019-05-22T20:27:43Z</time>
      </trkpt>
      <trkpt lat="44.21018" lon="3.22219">
        <ele>424</ele>
        <time>2019-05-22T20:27:53Z</time>
      </trkpt>
      <trkpt lat="44.2104" lon="3.2224">
        <ele>422</ele>
        <time>2019-05-22T20:27:57Z</time>
      </trkpt>
      <trkpt lat="44.21087" lon="3.22268">
        <ele>426</ele>
        <time>2019-05-22T20:28:06Z</time>
      </trkpt>
      <trkpt lat="44.21153" lon="3.22316">
        <ele>422</ele>
        <time>2019-05-22T20:28:20Z</time>
      </trkpt>
      <trkpt lat="44.2119" lon="3.22335">
        <ele>422</ele>
        <time>2019-05-22T20:28:27Z</time>
      </trkpt>
      <trkpt lat="44.21206" lon="3.22347">
        <ele>422</ele>
        <time>2019-05-22T20:28:30Z</time>
      </trkpt>
      <trkpt lat="44.21237" lon="3.22379">
        <ele>420</ele>
        <time>2019-05-22T20:28:37Z</time>
      </trkpt>
      <trkpt lat="44.21267" lon="3.22394">
        <ele>419</ele>
        <time>2019-05-22T20:28:43Z</time>
      </trkpt>
      <trkpt lat="44.21292" lon="3.22415">
        <ele>416</ele>
        <time>2019-05-22T20:28:48Z</time>
      </trkpt>
      <trkpt lat="44.2131" lon="3.22421">
        <ele>417</ele>
        <time>2019-05-22T20:28:51Z</time>
      </trkpt>
      <trkpt lat="44.21365" lon="3.22422">
        <ele>418</ele>
        <time>2019-05-22T20:29:01Z</time>
      </trkpt>
      <trkpt lat="44.21396" lon="3.22428">
        <ele>415</ele>
        <time>2019-05-22T20:29:06Z</time>
      </trkpt>
      <trkpt lat="44.21429" lon="3.22429">
        <ele>415</ele>
        <time>2019-05-22T20:29:12Z</time>
      </trkpt>
      <trkpt lat="44.21469" lon="3.22422">
        <ele>417</ele>
        <time>2019-05-22T20:29:19Z</time>
      </trkpt>
      <trkpt lat="44.21631" lon="3.22344">
        <ele>431</ele>
        <time>2019-05-22T20:29:50Z</time>
      </trkpt>
      <trkpt lat="44.21661" lon="3.22336">
        <ele>430</ele>
        <time>2019-05-22T20:29:55Z</time>
      </trkpt>
      <trkpt lat="44.21685" lon="3.22335">
        <ele>426</ele>
        <time>2019-05-22T20:30:00Z</time>
      </trkpt>
      <trkpt lat="44.21738" lon="3.2231">
        <ele>427</ele>
        <time>2019-05-22T20:30:10Z</time>
      </trkpt>
      <trkpt lat="44.21757" lon="3.2229">
        <ele>431</ele>
        <time>2019-05-22T20:30:14Z</time>
      </trkpt>
      <trkpt lat="44.21776" lon="3.2228">
        <ele>430</ele>
        <time>2019-05-22T20:30:17Z</time>
      </trkpt>
      <trkpt lat="44.2183" lon="3.22257">
        <ele>421</ele>
        <time>2019-05-22T20:30:27Z</time>
      </trkpt>
      <trkpt lat="44.21879" lon="3.22251">
        <ele>415</ele>
        <time>2019-05-22T20:30:36Z</time>
      </trkpt>
      <trkpt lat="44.21932" lon="3.22232">
        <ele>414</ele>
        <time>2019-05-22T20:30:46Z</time>
      </trkpt>
      <trkpt lat="44.21983" lon="3.22208">
        <ele>420</ele>
        <time>2019-05-22T20:30:56Z</time>
      </trkpt>
      <trkpt lat="44.22004" lon="3.222">
        <ele>422</ele>
        <time>2019-05-22T20:30:59Z</time>
      </trkpt>
      <trkpt lat="44.22022" lon="3.22206">
        <ele>420</ele>
        <time>2019-05-22T20:31:03Z</time>
      </trkpt>
      <trkpt lat="44.22037" lon="3.2222">
        <ele>417</ele>
        <time>2019-05-22T20:31:06Z</time>
      </trkpt>
      <trkpt lat="44.22081" lon="3.22248">
        <ele>410</ele>
        <time>2019-05-22T20:31:14Z</time>
      </trkpt>
      <trkpt lat="44.22149" lon="3.22279">
        <ele>409</ele>
        <time>2019-05-22T20:31:27Z</time>
      </trkpt>
      <trkpt lat="44.22177" lon="3.22297">
        <ele>410</ele>
        <time>2019-05-22T20:31:33Z</time>
      </trkpt>
      <trkpt lat="44.22221" lon="3.2233">
        <ele>418</ele>
        <time>2019-05-22T20:31:42Z</time>
      </trkpt>
      <trkpt lat="44.22235" lon="3.22351">
        <ele>419</ele>
        <time>2019-05-22T20:31:45Z</time>
      </trkpt>
      <trkpt lat="44.22256" lon="3.22396">
        <ele>419</ele>
        <time>2019-05-22T20:31:52Z</time>
      </trkpt>
      <trkpt lat="44.2229" lon="3.2245">
        <ele>424</ele>
        <time>2019-05-22T20:32:01Z</time>
      </trkpt>
      <trkpt lat="44.22343" lon="3.22545">
        <ele>424</ele>
        <time>2019-05-22T20:32:17Z</time>
      </trkpt>
      <trkpt lat="44.22361" lon="3.22582">
        <ele>425</ele>
        <time>2019-05-22T20:32:22Z</time>
      </trkpt>
      <trkpt lat="44.22376" lon="3.22623">
        <ele>424</ele>
        <time>2019-05-22T20:32:28Z</time>
      </trkpt>
      <trkpt lat="44.22402" lon="3.22717">
        <ele>421</ele>
        <time>2019-05-22T20:32:41Z</time>
      </trkpt>
      <trkpt lat="44.22416" lon="3.22747">
        <ele>418</ele>
        <time>2019-05-22T20:32:46Z</time>
      </trkpt>
      <trkpt lat="44.2243" lon="3.2277">
        <ele>421</ele>
        <time>2019-05-22T20:32:49Z</time>
      </trkpt>
      <trkpt lat="44.22446" lon="3.22788">
        <ele>424</ele>
        <time>2019-05-22T20:32:53Z</time>
      </trkpt>
      <trkpt lat="44.22483" lon="3.22817">
        <ele>428</ele>
        <time>2019-05-22T20:33:01Z</time>
      </trkpt>
      <trkpt lat="44.22526" lon="3.22871">
        <ele>423</ele>
        <time>2019-05-22T20:33:11Z</time>
      </trkpt>
      <trkpt lat="44.22547" lon="3.22885">
        <ele>423</ele>
        <time>2019-05-22T20:33:15Z</time>
      </trkpt>
      <trkpt lat="44.22583" lon="3.22903">
        <ele>425</ele>
        <time>2019-05-22T20:33:22Z</time>
      </trkpt>
      <trkpt lat="44.22638" lon="3.2292">
        <ele>422</ele>
        <time>2019-05-22T20:33:32Z</time>
      </trkpt>
      <trkpt lat="44.22672" lon="3.22923">
        <ele>423</ele>
        <time>2019-05-22T20:33:38Z</time>
      </trkpt>
      <trkpt lat="44.22709" lon="3.22922">
        <ele>423</ele>
        <time>2019-05-22T20:33:45Z</time>
      </trkpt>
      <trkpt lat="44.2277" lon="3.22924">
        <ele>425</ele>
        <time>2019-05-22T20:33:55Z</time>
      </trkpt>
      <trkpt lat="44.22795" lon="3.22935">
        <ele>425</ele>
        <time>2019-05-22T20:34:00Z</time>
      </trkpt>
      <trkpt lat="44.22862" lon="3.22972">
        <ele>421</ele>
        <time>2019-05-22T20:34:13Z</time>
      </trkpt>
      <trkpt lat="44.22884" lon="3.22983">
        <ele>419</ele>
        <time>2019-05-22T20:34:17Z</time>
      </trkpt>
      <trkpt lat="44.22904" lon="3.22987">
        <ele>420</ele>
        <time>2019-05-22T20:34:21Z</time>
      </trkpt>
      <trkpt lat="44.22982" lon="3.22995">
        <ele>416</ele>
        <time>2019-05-22T20:34:35Z</time>
      </trkpt>
      <trkpt lat="44.23008" lon="3.22996">
        <ele>415</ele>
        <time>2019-05-22T20:34:39Z</time>
      </trkpt>
      <trkpt lat="44.23034" lon="3.22991">
        <ele>417</ele>
        <time>2019-05-22T20:34:44Z</time>
      </trkpt>
      <trkpt lat="44.23076" lon="3.22988">
        <ele>417</ele>
        <time>2019-05-22T20:34:51Z</time>
      </trkpt>
      <trkpt lat="44.23131" lon="3.22992">
        <ele>418</ele>
        <time>2019-05-22T20:35:01Z</time>
      </trkpt>
      <trkpt lat="44.23265" lon="3.23013">
        <ele>421</ele>
        <time>2019-05-22T20:35:25Z</time>
      </trkpt>
      <trkpt lat="44.23317" lon="3.23014">
        <ele>424</ele>
        <time>2019-05-22T20:35:34Z</time>
      </trkpt>
      <trkpt lat="44.2334" lon="3.23025">
        <ele>423</ele>
        <time>2019-05-22T20:35:39Z</time>
      </trkpt>
      <trkpt lat="44.23363" lon="3.2304">
        <ele>422</ele>
        <time>2019-05-22T20:35:43Z</time>
      </trkpt>
      <trkpt lat="44.23383" lon="3.23049">
        <ele>421</ele>
        <time>2019-05-22T20:35:47Z</time>
      </trkpt>
      <trkpt lat="44.23406" lon="3.23052">
        <ele>422</ele>
        <time>2019-05-22T20:35:51Z</time>
      </trkpt>
      <trkpt lat="44.23432" lon="3.23051">
        <ele>423</ele>
        <time>2019-05-22T20:35:56Z</time>
      </trkpt>
      <trkpt lat="44.23452" lon="3.23044">
        <ele>425</ele>
        <time>2019-05-22T20:35:59Z</time>
      </trkpt>
      <trkpt lat="44.23469" lon="3.23032">
        <ele>428</ele>
        <time>2019-05-22T20:36:03Z</time>
      </trkpt>
      <trkpt lat="44.23489" lon="3.23026">
        <ele>429</ele>
        <time>2019-05-22T20:36:06Z</time>
      </trkpt>
      <trkpt lat="44.23519" lon="3.23019">
        <ele>431</ele>
        <time>2019-05-22T20:36:12Z</time>
      </trkpt>
      <trkpt lat="44.23575" lon="3.23015">
        <ele>432</ele>
        <time>2019-05-22T20:36:22Z</time>
      </trkpt>
      <trkpt lat="44.23594" lon="3.2302">
        <ele>431</ele>
        <time>2019-05-22T20:36:25Z</time>
      </trkpt>
      <trkpt lat="44.23615" lon="3.23033">
        <ele>426</ele>
        <time>2019-05-22T20:36:29Z</time>
      </trkpt>
      <trkpt lat="44.23638" lon="3.23038">
        <ele>425</ele>
        <time>2019-05-22T20:36:33Z</time>
      </trkpt>
      <trkpt lat="44.23672" lon="3.23039">
        <ele>425</ele>
        <time>2019-05-22T20:36:40Z</time>
      </trkpt>
      <trkpt lat="44.23705" lon="3.23047">
        <ele>426</ele>
        <time>2019-05-22T20:36:45Z</time>
      </trkpt>
      <trkpt lat="44.23732" lon="3.23044">
        <ele>430</ele>
        <time>2019-05-22T20:36:50Z</time>
      </trkpt>
      <trkpt lat="44.23761" lon="3.23036">
        <ele>436</ele>
        <time>2019-05-22T20:36:56Z</time>
      </trkpt>
      <trkpt lat="44.23776" lon="3.23039">
        <ele>436</ele>
        <time>2019-05-22T20:36:58Z</time>
      </trkpt>
      <trkpt lat="44.23798" lon="3.23057">
        <ele>430</ele>
        <time>2019-05-22T20:37:03Z</time>
      </trkpt>
      <trkpt lat="44.23816" lon="3.23063">
        <ele>429</ele>
        <time>2019-05-22T20:37:06Z</time>
      </trkpt>
      <trkpt lat="44.23838" lon="3.23062">
        <ele>430</ele>
        <time>2019-05-22T20:37:10Z</time>
      </trkpt>
      <trkpt lat="44.23852" lon="3.23067">
        <ele>428</ele>
        <time>2019-05-22T20:37:13Z</time>
      </trkpt>
      <trkpt lat="44.23852" lon="3.23067">
        <ele>428</ele>
        <time>2019-05-22T20:37:13Z</time>
      </trkpt>
      <trkpt lat="44.23871" lon="3.2307">
        <ele>427</ele>
        <time>2019-05-22T20:37:16Z</time>
      </trkpt>
      <trkpt lat="44.23912" lon="3.23064">
        <ele>429</ele>
        <time>2019-05-22T20:37:23Z</time>
      </trkpt>
      <trkpt lat="44.2393" lon="3.23064">
        <ele>429</ele>
        <time>2019-05-22T20:37:27Z</time>
      </trkpt>
      <trkpt lat="44.23954" lon="3.23071">
        <ele>426</ele>
        <time>2019-05-22T20:37:31Z</time>
      </trkpt>
      <trkpt lat="44.23982" lon="3.23072">
        <ele>426</ele>
        <time>2019-05-22T20:37:36Z</time>
      </trkpt>
      <trkpt lat="44.24004" lon="3.23068">
        <ele>428</ele>
        <time>2019-05-22T20:37:40Z</time>
      </trkpt>
      <trkpt lat="44.24037" lon="3.23077">
        <ele>425</ele>
        <time>2019-05-22T20:37:46Z</time>
      </trkpt>
      <trkpt lat="44.24055" lon="3.23076">
        <ele>426</ele>
        <time>2019-05-22T20:37:49Z</time>
      </trkpt>
      <trkpt lat="44.24073" lon="3.23078">
        <ele>426</ele>
        <time>2019-05-22T20:37:52Z</time>
      </trkpt>
      <trkpt lat="44.24172" lon="3.23109">
        <ele>433</ele>
        <time>2019-05-22T20:38:10Z</time>
      </trkpt>
      <trkpt lat="44.242" lon="3.23113">
        <ele>435</ele>
        <time>2019-05-22T20:38:15Z</time>
      </trkpt>
      <trkpt lat="44.24243" lon="3.2313">
        <ele>432</ele>
        <time>2019-05-22T20:38:23Z</time>
      </trkpt>
      <trkpt lat="44.24296" lon="3.23134">
        <ele>434</ele>
        <time>2019-05-22T20:38:33Z</time>
      </trkpt>
      <trkpt lat="44.24318" lon="3.23143">
        <ele>432</ele>
        <time>2019-05-22T20:38:37Z</time>
      </trkpt>
      <trkpt lat="44.24337" lon="3.23154">
        <ele>430</ele>
        <time>2019-05-22T20:38:40Z</time>
      </trkpt>
      <trkpt lat="44.24397" lon="3.23201">
        <ele>432</ele>
        <time>2019-05-22T20:38:53Z</time>
      </trkpt>
      <trkpt lat="44.24417" lon="3.23214">
        <ele>430</ele>
        <time>2019-05-22T20:38:57Z</time>
      </trkpt>
      <trkpt lat="44.24438" lon="3.23225">
        <ele>428</ele>
        <time>2019-05-22T20:39:01Z</time>
      </trkpt>
      <trkpt lat="44.24481" lon="3.23238">
        <ele>425</ele>
        <time>2019-05-22T20:39:08Z</time>
      </trkpt>
      <trkpt lat="44.24508" lon="3.23238">
        <ele>426</ele>
        <time>2019-05-22T20:39:13Z</time>
      </trkpt>
      <trkpt lat="44.24561" lon="3.23227">
        <ele>430</ele>
        <time>2019-05-22T20:39:23Z</time>
      </trkpt>
      <trkpt lat="44.24729" lon="3.23185">
        <ele>433</ele>
        <time>2019-05-22T20:39:53Z</time>
      </trkpt>
      <trkpt lat="44.24779" lon="3.23186">
        <ele>433</ele>
        <time>2019-05-22T20:40:02Z</time>
      </trkpt>
      <trkpt lat="44.24808" lon="3.23183">
        <ele>435</ele>
        <time>2019-05-22T20:40:07Z</time>
      </trkpt>
      <trkpt lat="44.24842" lon="3.23197">
        <ele>432</ele>
        <time>2019-05-22T20:40:13Z</time>
      </trkpt>
      <trkpt lat="44.24893" lon="3.23204">
        <ele>433</ele>
        <time>2019-05-22T20:40:23Z</time>
      </trkpt>
      <trkpt lat="44.24925" lon="3.23202">
        <ele>434</ele>
        <time>2019-05-22T20:40:28Z</time>
      </trkpt>
      <trkpt lat="44.2496" lon="3.23211">
        <ele>433</ele>
        <time>2019-05-22T20:40:35Z</time>
      </trkpt>
      <trkpt lat="44.25175" lon="3.23227">
        <ele>428</ele>
        <time>2019-05-22T20:41:13Z</time>
      </trkpt>
      <trkpt lat="44.25216" lon="3.23221">
        <ele>426</ele>
        <time>2019-05-22T20:41:20Z</time>
      </trkpt>
      <trkpt lat="44.25261" lon="3.23191">
        <ele>432</ele>
        <time>2019-05-22T20:41:29Z</time>
      </trkpt>
      <trkpt lat="44.25278" lon="3.23187">
        <ele>434</ele>
        <time>2019-05-22T20:41:32Z</time>
      </trkpt>
      <trkpt lat="44.25314" lon="3.23186">
        <ele>433</ele>
        <time>2019-05-22T20:41:39Z</time>
      </trkpt>
      <trkpt lat="44.25367" lon="3.23172">
        <ele>432</ele>
        <time>2019-05-22T20:41:48Z</time>
      </trkpt>
      <trkpt lat="44.25398" lon="3.23151">
        <ele>435</ele>
        <time>2019-05-22T20:41:54Z</time>
      </trkpt>
      <trkpt lat="44.25526" lon="3.23086">
        <ele>426</ele>
        <time>2019-05-22T20:42:19Z</time>
      </trkpt>
      <trkpt lat="44.25632" lon="3.23047">
        <ele>426</ele>
        <time>2019-05-22T20:42:38Z</time>
      </trkpt>
      <trkpt lat="44.25658" lon="3.2303">
        <ele>426</ele>
        <time>2019-05-22T20:42:43Z</time>
      </trkpt>
      <trkpt lat="44.25698" lon="3.22996">
        <ele>428</ele>
        <time>2019-05-22T20:42:52Z</time>
      </trkpt>
      <trkpt lat="44.2585" lon="3.22884">
        <ele>431</ele>
        <time>2019-05-22T20:43:22Z</time>
      </trkpt>
      <trkpt lat="44.25949" lon="3.22817">
        <ele>427</ele>
        <time>2019-05-22T20:43:42Z</time>
      </trkpt>
      <trkpt lat="44.25988" lon="3.22796">
        <ele>425</ele>
        <time>2019-05-22T20:43:49Z</time>
      </trkpt>
      <trkpt lat="44.26027" lon="3.22766">
        <ele>428</ele>
        <time>2019-05-22T20:43:57Z</time>
      </trkpt>
      <trkpt lat="44.26049" lon="3.22754">
        <ele>428</ele>
        <time>2019-05-22T20:44:01Z</time>
      </trkpt>
      <trkpt lat="44.26088" lon="3.22743">
        <ele>425</ele>
        <time>2019-05-22T20:44:08Z</time>
      </trkpt>
      <trkpt lat="44.26134" lon="3.22712">
        <ele>431</ele>
        <time>2019-05-22T20:44:17Z</time>
      </trkpt>
      <trkpt lat="44.26166" lon="3.22698">
        <ele>430</ele>
        <time>2019-05-22T20:44:23Z</time>
      </trkpt>
      <trkpt lat="44.26206" lon="3.22689">
        <ele>428</ele>
        <time>2019-05-22T20:44:31Z</time>
      </trkpt>
      <trkpt lat="44.26232" lon="3.22679">
        <ele>426</ele>
        <time>2019-05-22T20:44:35Z</time>
      </trkpt>
      <trkpt lat="44.26335" lon="3.22613">
        <ele>431</ele>
        <time>2019-05-22T20:44:56Z</time>
      </trkpt>
      <trkpt lat="44.2637" lon="3.22598">
        <ele>431</ele>
        <time>2019-05-22T20:45:02Z</time>
      </trkpt>
      <trkpt lat="44.26406" lon="3.22587">
        <ele>430</ele>
        <time>2019-05-22T20:45:09Z</time>
      </trkpt>
      <trkpt lat="44.26481" lon="3.22571">
        <ele>432</ele>
        <time>2019-05-22T20:45:22Z</time>
      </trkpt>
      <trkpt lat="44.26575" lon="3.22563">
        <ele>431</ele>
        <time>2019-05-22T20:45:39Z</time>
      </trkpt>
      <trkpt lat="44.267" lon="3.22593">
        <ele>426</ele>
        <time>2019-05-22T20:46:01Z</time>
      </trkpt>
      <trkpt lat="44.26927" lon="3.22612">
        <ele>429</ele>
        <time>2019-05-22T20:46:42Z</time>
      </trkpt>
      <trkpt lat="44.26969" lon="3.22613">
        <ele>428</ele>
        <time>2019-05-22T20:46:49Z</time>
      </trkpt>
      <trkpt lat="44.2705" lon="3.22597">
        <ele>429</ele>
        <time>2019-05-22T20:47:04Z</time>
      </trkpt>
      <trkpt lat="44.27105" lon="3.2259">
        <ele>429</ele>
        <time>2019-05-22T20:47:14Z</time>
      </trkpt>
      <trkpt lat="44.27168" lon="3.22586">
        <ele>428</ele>
        <time>2019-05-22T20:47:25Z</time>
      </trkpt>
      <trkpt lat="44.27183" lon="3.22577">
        <ele>430</ele>
        <time>2019-05-22T20:47:28Z</time>
      </trkpt>
      <trkpt lat="44.27207" lon="3.22552">
        <ele>437</ele>
        <time>2019-05-22T20:47:33Z</time>
      </trkpt>
      <trkpt lat="44.27221" lon="3.22548">
        <ele>437</ele>
        <time>2019-05-22T20:47:36Z</time>
      </trkpt>
      <trkpt lat="44.27235" lon="3.22555">
        <ele>434</ele>
        <time>2019-05-22T20:47:38Z</time>
      </trkpt>
      <trkpt lat="44.27245" lon="3.22567">
        <ele>429</ele>
        <time>2019-05-22T20:47:41Z</time>
      </trkpt>
      <trkpt lat="44.27254" lon="3.22573">
        <ele>427</ele>
        <time>2019-05-22T20:47:43Z</time>
      </trkpt>
      <trkpt lat="44.27265" lon="3.22576">
        <ele>426</ele>
        <time>2019-05-22T20:47:45Z</time>
      </trkpt>
      <trkpt lat="44.27291" lon="3.22578">
        <ele>426</ele>
        <time>2019-05-22T20:47:49Z</time>
      </trkpt>
      <trkpt lat="44.27418" lon="3.22571">
        <ele>427</ele>
        <time>2019-05-22T20:48:12Z</time>
      </trkpt>
      <trkpt lat="44.27454" lon="3.22573">
        <ele>426</ele>
        <time>2019-05-22T20:48:18Z</time>
      </trkpt>
      <trkpt lat="44.2748" lon="3.22577">
        <ele>424</ele>
        <time>2019-05-22T20:48:23Z</time>
      </trkpt>
      <trkpt lat="44.27503" lon="3.22568">
        <ele>427</ele>
        <time>2019-05-22T20:48:27Z</time>
      </trkpt>
      <trkpt lat="44.27521" lon="3.22573">
        <ele>426</ele>
        <time>2019-05-22T20:48:30Z</time>
      </trkpt>
      <trkpt lat="44.27542" lon="3.22588">
        <ele>423</ele>
        <time>2019-05-22T20:48:35Z</time>
      </trkpt>
      <trkpt lat="44.27552" lon="3.22593">
        <ele>423</ele>
        <time>2019-05-22T20:48:36Z</time>
      </trkpt>
      <trkpt lat="44.27574" lon="3.22595">
        <ele>423</ele>
        <time>2019-05-22T20:48:40Z</time>
      </trkpt>
      <trkpt lat="44.27632" lon="3.22615">
        <ele>423</ele>
        <time>2019-05-22T20:48:51Z</time>
      </trkpt>
      <trkpt lat="44.27637" lon="3.22614">
        <ele>424</ele>
        <time>2019-05-22T20:48:52Z</time>
      </trkpt>
      <trkpt lat="44.27645" lon="3.22608">
        <ele>426</ele>
        <time>2019-05-22T20:48:54Z</time>
      </trkpt>
      <trkpt lat="44.2765" lon="3.22599">
        <ele>429</ele>
        <time>2019-05-22T20:48:55Z</time>
      </trkpt>
      <trkpt lat="44.27659" lon="3.22591">
        <ele>431</ele>
        <time>2019-05-22T20:48:57Z</time>
      </trkpt>
      <trkpt lat="44.27666" lon="3.2259">
        <ele>432</ele>
        <time>2019-05-22T20:48:58Z</time>
      </trkpt>
      <trkpt lat="44.27676" lon="3.22593">
        <ele>435</ele>
        <time>2019-05-22T20:49:00Z</time>
      </trkpt>
      <trkpt lat="44.2768" lon="3.22599">
        <ele>434</ele>
        <time>2019-05-22T20:49:01Z</time>
      </trkpt>
      <trkpt lat="44.27683" lon="3.22606">
        <ele>433</ele>
        <time>2019-05-22T20:49:02Z</time>
      </trkpt>
      <trkpt lat="44.2769" lon="3.22638">
        <ele>426</ele>
        <time>2019-05-22T20:49:06Z</time>
      </trkpt>
      <trkpt lat="44.27696" lon="3.22655">
        <ele>423</ele>
        <time>2019-05-22T20:49:09Z</time>
      </trkpt>
      <trkpt lat="44.27716" lon="3.22679">
        <ele>422</ele>
        <time>2019-05-22T20:49:13Z</time>
      </trkpt>
      <trkpt lat="44.27745" lon="3.22721">
        <ele>420</ele>
        <time>2019-05-22T20:49:21Z</time>
      </trkpt>
      <trkpt lat="44.27791" lon="3.22763">
        <ele>422</ele>
        <time>2019-05-22T20:49:31Z</time>
      </trkpt>
      <trkpt lat="44.27812" lon="3.22781">
        <ele>423</ele>
        <time>2019-05-22T20:49:35Z</time>
      </trkpt>
      <trkpt lat="44.2783" lon="3.22799">
        <ele>423</ele>
        <time>2019-05-22T20:49:39Z</time>
      </trkpt>
      <trkpt lat="44.27851" lon="3.22825">
        <ele>422</ele>
        <time>2019-05-22T20:49:44Z</time>
      </trkpt>
      <trkpt lat="44.27893" lon="3.22847">
        <ele>425</ele>
        <time>2019-05-22T20:49:52Z</time>
      </trkpt>
      <trkpt lat="44.27955" lon="3.22887">
        <ele>424</ele>
        <time>2019-05-22T20:50:04Z</time>
      </trkpt>
      <trkpt lat="44.27972" lon="3.22895">
        <ele>424</ele>
        <time>2019-05-22T20:50:07Z</time>
      </trkpt>
      <trkpt lat="44.2799" lon="3.22897">
        <ele>426</ele>
        <time>2019-05-22T20:50:10Z</time>
      </trkpt>
      <trkpt lat="44.28002" lon="3.22895">
        <ele>428</ele>
        <time>2019-05-22T20:50:13Z</time>
      </trkpt>
      <trkpt lat="44.28048" lon="3.22884">
        <ele>432</ele>
        <time>2019-05-22T20:50:21Z</time>
      </trkpt>
      <trkpt lat="44.28067" lon="3.22887">
        <ele>432</ele>
        <time>2019-05-22T20:50:24Z</time>
      </trkpt>
      <trkpt lat="44.28074" lon="3.2289">
        <ele>431</ele>
        <time>2019-05-22T20:50:26Z</time>
      </trkpt>
      <trkpt lat="44.28089" lon="3.22901">
        <ele>428</ele>
        <time>2019-05-22T20:50:29Z</time>
      </trkpt>
      <trkpt lat="44.28145" lon="3.22958">
        <ele>422</ele>
        <time>2019-05-22T20:50:41Z</time>
      </trkpt>
      <trkpt lat="44.28222" lon="3.22994">
        <ele>421</ele>
        <time>2019-05-22T20:50:55Z</time>
      </trkpt>
      <trkpt lat="44.28273" lon="3.23004">
        <ele>424</ele>
        <time>2019-05-22T20:51:05Z</time>
      </trkpt>
      <trkpt lat="44.28291" lon="3.23016">
        <ele>425</ele>
        <time>2019-05-22T20:51:08Z</time>
      </trkpt>
      <trkpt lat="44.28302" lon="3.2303">
        <ele>424</ele>
        <time>2019-05-22T20:51:11Z</time>
      </trkpt>
      <trkpt lat="44.28331" lon="3.23099">
        <ele>419</ele>
        <time>2019-05-22T20:51:21Z</time>
      </trkpt>
      <trkpt lat="44.28344" lon="3.23118">
        <ele>420</ele>
        <time>2019-05-22T20:51:24Z</time>
      </trkpt>
      <trkpt lat="44.28351" lon="3.23126">
        <ele>420</ele>
        <time>2019-05-22T20:51:26Z</time>
      </trkpt>
      <trkpt lat="44.28368" lon="3.23138">
        <ele>421</ele>
        <time>2019-05-22T20:51:29Z</time>
      </trkpt>
      <trkpt lat="44.28398" lon="3.23155">
        <ele>423</ele>
        <time>2019-05-22T20:51:35Z</time>
      </trkpt>
      <trkpt lat="44.28414" lon="3.23167">
        <ele>424</ele>
        <time>2019-05-22T20:51:38Z</time>
      </trkpt>
      <trkpt lat="44.28464" lon="3.23208">
        <ele>430</ele>
        <time>2019-05-22T20:51:49Z</time>
      </trkpt>
      <trkpt lat="44.28491" lon="3.23235">
        <ele>428</ele>
        <time>2019-05-22T20:51:55Z</time>
      </trkpt>
      <trkpt lat="44.28527" lon="3.23257">
        <ele>431</ele>
        <time>2019-05-22T20:52:02Z</time>
      </trkpt>
      <trkpt lat="44.28581" lon="3.23299">
        <ele>432</ele>
        <time>2019-05-22T20:52:12Z</time>
      </trkpt>
      <trkpt lat="44.28639" lon="3.23334">
        <ele>429</ele>
        <time>2019-05-22T20:52:24Z</time>
      </trkpt>
      <trkpt lat="44.28657" lon="3.23358">
        <ele>428</ele>
        <time>2019-05-22T20:52:28Z</time>
      </trkpt>
      <trkpt lat="44.28704" lon="3.23447">
        <ele>429</ele>
        <time>2019-05-22T20:52:42Z</time>
      </trkpt>
      <trkpt lat="44.28726" lon="3.23492">
        <ele>433</ele>
        <time>2019-05-22T20:52:49Z</time>
      </trkpt>
      <trkpt lat="44.28762" lon="3.2355">
        <ele>437</ele>
        <time>2019-05-22T20:52:59Z</time>
      </trkpt>
      <trkpt lat="44.28791" lon="3.23592">
        <ele>444</ele>
        <time>2019-05-22T20:53:06Z</time>
      </trkpt>
      <trkpt lat="44.28802" lon="3.23615">
        <ele>442</ele>
        <time>2019-05-22T20:53:10Z</time>
      </trkpt>
      <trkpt lat="44.28813" lon="3.23629">
        <ele>440</ele>
        <time>2019-05-22T20:53:13Z</time>
      </trkpt>
      <trkpt lat="44.28853" lon="3.23647">
        <ele>443</ele>
        <time>2019-05-22T20:53:20Z</time>
      </trkpt>
      <trkpt lat="44.28903" lon="3.23682">
        <ele>445</ele>
        <time>2019-05-22T20:53:30Z</time>
      </trkpt>
      <trkpt lat="44.2893" lon="3.2371">
        <ele>443</ele>
        <time>2019-05-22T20:53:36Z</time>
      </trkpt>
      <trkpt lat="44.28952" lon="3.23726">
        <ele>444</ele>
        <time>2019-05-22T20:53:40Z</time>
      </trkpt>
      <trkpt lat="44.28988" lon="3.23762">
        <ele>441</ele>
        <time>2019-05-22T20:53:48Z</time>
      </trkpt>
      <trkpt lat="44.29004" lon="3.23776">
        <ele>443</ele>
        <time>2019-05-22T20:53:52Z</time>
      </trkpt>
      <trkpt lat="44.29017" lon="3.2378">
        <ele>445</ele>
        <time>2019-05-22T20:53:54Z</time>
      </trkpt>
      <trkpt lat="44.29046" lon="3.2378">
        <ele>450</ele>
        <time>2019-05-22T20:53:59Z</time>
      </trkpt>
      <trkpt lat="44.29063" lon="3.23777">
        <ele>454</ele>
        <time>2019-05-22T20:54:02Z</time>
      </trkpt>
      <trkpt lat="44.29083" lon="3.23769">
        <ele>459</ele>
        <time>2019-05-22T20:54:06Z</time>
      </trkpt>
      <trkpt lat="44.29115" lon="3.2375">
        <ele>460</ele>
        <time>2019-05-22T20:54:12Z</time>
      </trkpt>
      <trkpt lat="44.29134" lon="3.23747">
        <ele>460</ele>
        <time>2019-05-22T20:54:16Z</time>
      </trkpt>
      <trkpt lat="44.29191" lon="3.23751">
        <ele>451</ele>
        <time>2019-05-22T20:54:26Z</time>
      </trkpt>
      <trkpt lat="44.29208" lon="3.23749">
        <ele>449</ele>
        <time>2019-05-22T20:54:29Z</time>
      </trkpt>
      <trkpt lat="44.29261" lon="3.23735">
        <ele>447</ele>
        <time>2019-05-22T20:54:38Z</time>
      </trkpt>
      <trkpt lat="44.29271" lon="3.23729">
        <ele>448</ele>
        <time>2019-05-22T20:54:40Z</time>
      </trkpt>
      <trkpt lat="44.29338" lon="3.23668">
        <ele>458</ele>
        <time>2019-05-22T20:54:54Z</time>
      </trkpt>
      <trkpt lat="44.29352" lon="3.23663">
        <ele>461</ele>
        <time>2019-05-22T20:54:57Z</time>
      </trkpt>
      <trkpt lat="44.29377" lon="3.23665">
        <ele>462</ele>
        <time>2019-05-22T20:55:01Z</time>
      </trkpt>
      <trkpt lat="44.2939" lon="3.23671">
        <ele>461</ele>
        <time>2019-05-22T20:55:04Z</time>
      </trkpt>
      <trkpt lat="44.29395" lon="3.23676">
        <ele>459</ele>
        <time>2019-05-22T20:55:05Z</time>
      </trkpt>
      <trkpt lat="44.29419" lon="3.23707">
        <ele>452</ele>
        <time>2019-05-22T20:55:11Z</time>
      </trkpt>
      <trkpt lat="44.29448" lon="3.23736">
        <ele>450</ele>
        <time>2019-05-22T20:55:17Z</time>
      </trkpt>
      <trkpt lat="44.29468" lon="3.23743">
        <ele>453</ele>
        <time>2019-05-22T20:55:21Z</time>
      </trkpt>
      <trkpt lat="44.29478" lon="3.23748">
        <ele>453</ele>
        <time>2019-05-22T20:55:23Z</time>
      </trkpt>
      <trkpt lat="44.29496" lon="3.23771">
        <ele>451</ele>
        <time>2019-05-22T20:55:27Z</time>
      </trkpt>
      <trkpt lat="44.29506" lon="3.2378">
        <ele>451</ele>
        <time>2019-05-22T20:55:29Z</time>
      </trkpt>
      <trkpt lat="44.29533" lon="3.23798">
        <ele>451</ele>
        <time>2019-05-22T20:55:35Z</time>
      </trkpt>
      <trkpt lat="44.29573" lon="3.23821">
        <ele>452</ele>
        <time>2019-05-22T20:55:42Z</time>
      </trkpt>
      <trkpt lat="44.29593" lon="3.2383">
        <ele>452</ele>
        <time>2019-05-22T20:55:46Z</time>
      </trkpt>
      <trkpt lat="44.2964" lon="3.23841">
        <ele>455</ele>
        <time>2019-05-22T20:55:54Z</time>
      </trkpt>
      <trkpt lat="44.29662" lon="3.23855">
        <ele>454</ele>
        <time>2019-05-22T20:55:59Z</time>
      </trkpt>
      <trkpt lat="44.29674" lon="3.23861">
        <ele>453</ele>
        <time>2019-05-22T20:56:01Z</time>
      </trkpt>
      <trkpt lat="44.29703" lon="3.23866">
        <ele>453</ele>
        <time>2019-05-22T20:56:06Z</time>
      </trkpt>
      <trkpt lat="44.29757" lon="3.23861">
        <ele>456</ele>
        <time>2019-05-22T20:56:16Z</time>
      </trkpt>
      <trkpt lat="44.29757" lon="3.23861">
        <ele>456</ele>
        <time>2019-05-22T20:56:16Z</time>
      </trkpt>
      <trkpt lat="44.29774" lon="3.23861">
        <ele>457</ele>
        <time>2019-05-22T20:56:19Z</time>
      </trkpt>
      <trkpt lat="44.29817" lon="3.23869">
        <ele>455</ele>
        <time>2019-05-22T20:56:27Z</time>
      </trkpt>
      <trkpt lat="44.29961" lon="3.23863">
        <ele>457</ele>
        <time>2019-05-22T20:56:52Z</time>
      </trkpt>
      <trkpt lat="44.29975" lon="3.23861">
        <ele>458</ele>
        <time>2019-05-22T20:56:55Z</time>
      </trkpt>
      <trkpt lat="44.30003" lon="3.23849">
        <ele>462</ele>
        <time>2019-05-22T20:57:00Z</time>
      </trkpt>
      <trkpt lat="44.30067" lon="3.23845">
        <ele>458</ele>
        <time>2019-05-22T20:57:11Z</time>
      </trkpt>
      <trkpt lat="44.30082" lon="3.23839">
        <ele>458</ele>
        <time>2019-05-22T20:57:14Z</time>
      </trkpt>
      <trkpt lat="44.30099" lon="3.23829">
        <ele>462</ele>
        <time>2019-05-22T20:57:17Z</time>
      </trkpt>
      <trkpt lat="44.30129" lon="3.23804">
        <ele>482</ele>
        <time>2019-05-22T20:57:24Z</time>
      </trkpt>
      <trkpt lat="44.30141" lon="3.23798">
        <ele>488</ele>
        <time>2019-05-22T20:57:26Z</time>
      </trkpt>
      <trkpt lat="44.30156" lon="3.238">
        <ele>486</ele>
        <time>2019-05-22T20:57:29Z</time>
      </trkpt>
      <trkpt lat="44.30188" lon="3.23811">
        <ele>471</ele>
        <time>2019-05-22T20:57:34Z</time>
      </trkpt>
      <trkpt lat="44.30208" lon="3.23811">
        <ele>469</ele>
        <time>2019-05-22T20:57:38Z</time>
      </trkpt>
      <trkpt lat="44.30237" lon="3.23802">
        <ele>474</ele>
        <time>2019-05-22T20:57:43Z</time>
      </trkpt>
      <trkpt lat="44.30254" lon="3.238">
        <ele>475</ele>
        <time>2019-05-22T20:57:46Z</time>
      </trkpt>
      <trkpt lat="44.3027" lon="3.23802">
        <ele>475</ele>
        <time>2019-05-22T20:57:49Z</time>
      </trkpt>
      <trkpt lat="44.30306" lon="3.23814">
        <ele>469</ele>
        <time>2019-05-22T20:57:56Z</time>
      </trkpt>
      <trkpt lat="44.30324" lon="3.23827">
        <ele>460</ele>
        <time>2019-05-22T20:57:59Z</time>
      </trkpt>
      <trkpt lat="44.3036" lon="3.23867">
        <ele>452</ele>
        <time>2019-05-22T20:58:08Z</time>
      </trkpt>
      <trkpt lat="44.30391" lon="3.23905">
        <ele>447</ele>
        <time>2019-05-22T20:58:15Z</time>
      </trkpt>
      <trkpt lat="44.30401" lon="3.23924">
        <ele>445</ele>
        <time>2019-05-22T20:58:18Z</time>
      </trkpt>
      <trkpt lat="44.30413" lon="3.23955">
        <ele>446</ele>
        <time>2019-05-22T20:58:22Z</time>
      </trkpt>
      <trkpt lat="44.30419" lon="3.23976">
        <ele>446</ele>
        <time>2019-05-22T20:58:25Z</time>
      </trkpt>
      <trkpt lat="44.30422" lon="3.23993">
        <ele>447</ele>
        <time>2019-05-22T20:58:27Z</time>
      </trkpt>
      <trkpt lat="44.30423" lon="3.2401">
        <ele>447</ele>
        <time>2019-05-22T20:58:30Z</time>
      </trkpt>
      <trkpt lat="44.30421" lon="3.24062">
        <ele>449</ele>
        <time>2019-05-22T20:58:36Z</time>
      </trkpt>
      <trkpt lat="44.30427" lon="3.24214">
        <ele>456</ele>
        <time>2019-05-22T20:58:56Z</time>
      </trkpt>
      <trkpt lat="44.30433" lon="3.2425">
        <ele>456</ele>
        <time>2019-05-22T20:59:00Z</time>
      </trkpt>
      <trkpt lat="44.30453" lon="3.24341">
        <ele>456</ele>
        <time>2019-05-22T20:59:12Z</time>
      </trkpt>
      <trkpt lat="44.30463" lon="3.24368">
        <ele>456</ele>
        <time>2019-05-22T20:59:16Z</time>
      </trkpt>
      <trkpt lat="44.3047" lon="3.24378">
        <ele>456</ele>
        <time>2019-05-22T20:59:18Z</time>
      </trkpt>
      <trkpt lat="44.3049" lon="3.24398">
        <ele>456</ele>
        <time>2019-05-22T20:59:22Z</time>
      </trkpt>
      <trkpt lat="44.30535" lon="3.24424">
        <ele>475</ele>
        <time>2019-05-22T20:59:31Z</time>
      </trkpt>
      <trkpt lat="44.30633" lon="3.24494">
        <ele>485</ele>
        <time>2019-05-22T20:59:51Z</time>
      </trkpt>
      <trkpt lat="44.30669" lon="3.24523">
        <ele>495</ele>
        <time>2019-05-22T20:59:58Z</time>
      </trkpt>
      <trkpt lat="44.30696" lon="3.24549">
        <ele>496</ele>
        <time>2019-05-22T21:00:04Z</time>
      </trkpt>
      <trkpt lat="44.30716" lon="3.24578">
        <ele>495</ele>
        <time>2019-05-22T21:00:09Z</time>
      </trkpt>
      <trkpt lat="44.30763" lon="3.24654">
        <ele>481</ele>
        <time>2019-05-22T21:00:22Z</time>
      </trkpt>
      <trkpt lat="44.30768" lon="3.24677">
        <ele>474</ele>
        <time>2019-05-22T21:00:25Z</time>
      </trkpt>
      <trkpt lat="44.30774" lon="3.24737">
        <ele>456</ele>
        <time>2019-05-22T21:00:33Z</time>
      </trkpt>
      <trkpt lat="44.3078" lon="3.24765">
        <ele>452</ele>
        <time>2019-05-22T21:00:36Z</time>
      </trkpt>
      <trkpt lat="44.30794" lon="3.24803">
        <ele>450</ele>
        <time>2019-05-22T21:00:42Z</time>
      </trkpt>
      <trkpt lat="44.30819" lon="3.24848">
        <ele>446</ele>
        <time>2019-05-22T21:00:49Z</time>
      </trkpt>
      <trkpt lat="44.30828" lon="3.24874">
        <ele>446</ele>
        <time>2019-05-22T21:00:53Z</time>
      </trkpt>
      <trkpt lat="44.3083" lon="3.24903">
        <ele>444</ele>
        <time>2019-05-22T21:00:56Z</time>
      </trkpt>
      <trkpt lat="44.30822" lon="3.25041">
        <ele>445</ele>
        <time>2019-05-22T21:01:14Z</time>
      </trkpt>
      <trkpt lat="44.30818" lon="3.25087">
        <ele>449</ele>
        <time>2019-05-22T21:01:20Z</time>
      </trkpt>
      <trkpt lat="44.30797" lon="3.25149">
        <ele>457</ele>
        <time>2019-05-22T21:01:29Z</time>
      </trkpt>
      <trkpt lat="44.30791" lon="3.25172">
        <ele>459</ele>
        <time>2019-05-22T21:01:32Z</time>
      </trkpt>
      <trkpt lat="44.30784" lon="3.2522">
        <ele>463</ele>
        <time>2019-05-22T21:01:38Z</time>
      </trkpt>
      <trkpt lat="44.30759" lon="3.2533">
        <ele>467</ele>
        <time>2019-05-22T21:01:53Z</time>
      </trkpt>
      <trkpt lat="44.30749" lon="3.25345">
        <ele>468</ele>
        <time>2019-05-22T21:01:55Z</time>
      </trkpt>
      <trkpt lat="44.30699" lon="3.25392">
        <ele>463</ele>
        <time>2019-05-22T21:02:06Z</time>
      </trkpt>
      <trkpt lat="44.30661" lon="3.25424">
        <ele>451</ele>
        <time>2019-05-22T21:02:14Z</time>
      </trkpt>
      <trkpt lat="44.30644" lon="3.25441">
        <ele>454</ele>
        <time>2019-05-22T21:02:18Z</time>
      </trkpt>
      <trkpt lat="44.3063" lon="3.2546">
        <ele>455</ele>
        <time>2019-05-22T21:02:21Z</time>
      </trkpt>
      <trkpt lat="44.30614" lon="3.25487">
        <ele>453</ele>
        <time>2019-05-22T21:02:26Z</time>
      </trkpt>
      <trkpt lat="44.306" lon="3.25515">
        <ele>450</ele>
        <time>2019-05-22T21:02:30Z</time>
      </trkpt>
      <trkpt lat="44.3059" lon="3.25541">
        <ele>446</ele>
        <time>2019-05-22T21:02:34Z</time>
      </trkpt>
      <trkpt lat="44.30578" lon="3.25582">
        <ele>443</ele>
        <time>2019-05-22T21:02:39Z</time>
      </trkpt>
      <trkpt lat="44.30569" lon="3.25626">
        <ele>455</ele>
        <time>2019-05-22T21:02:45Z</time>
      </trkpt>
      <trkpt lat="44.30565" lon="3.25671">
        <ele>466</ele>
        <time>2019-05-22T21:02:51Z</time>
      </trkpt>
      <trkpt lat="44.30559" lon="3.25764">
        <ele>489</ele>
        <time>2019-05-22T21:03:03Z</time>
      </trkpt>
      <trkpt lat="44.30574" lon="3.25906">
        <ele>483</ele>
        <time>2019-05-22T21:03:21Z</time>
      </trkpt>
      <trkpt lat="44.30567" lon="3.25947">
        <ele>472</ele>
        <time>2019-05-22T21:03:27Z</time>
      </trkpt>
      <trkpt lat="44.30568" lon="3.25986">
        <ele>466</ele>
        <time>2019-05-22T21:03:32Z</time>
      </trkpt>
      <trkpt lat="44.30563" lon="3.2603">
        <ele>461</ele>
        <time>2019-05-22T21:03:37Z</time>
      </trkpt>
      <trkpt lat="44.30562" lon="3.26078">
        <ele>459</ele>
        <time>2019-05-22T21:03:43Z</time>
      </trkpt>
      <trkpt lat="44.30558" lon="3.26144">
        <ele>459</ele>
        <time>2019-05-22T21:03:52Z</time>
      </trkpt>
      <trkpt lat="44.30548" lon="3.26233">
        <ele>461</ele>
        <time>2019-05-22T21:04:03Z</time>
      </trkpt>
      <trkpt lat="44.30546" lon="3.2629">
        <ele>461</ele>
        <time>2019-05-22T21:04:10Z</time>
      </trkpt>
      <trkpt lat="44.30546" lon="3.2632">
        <ele>461</ele>
        <time>2019-05-22T21:04:14Z</time>
      </trkpt>
      <trkpt lat="44.30548" lon="3.26352">
        <ele>460</ele>
        <time>2019-05-22T21:04:18Z</time>
      </trkpt>
      <trkpt lat="44.30558" lon="3.26416">
        <ele>460</ele>
        <time>2019-05-22T21:04:27Z</time>
      </trkpt>
      <trkpt lat="44.30558" lon="3.26435">
        <ele>458</ele>
        <time>2019-05-22T21:04:29Z</time>
      </trkpt>
      <trkpt lat="44.30557" lon="3.26451">
        <ele>457</ele>
        <time>2019-05-22T21:04:31Z</time>
      </trkpt>
      <trkpt lat="44.30554" lon="3.26468">
        <ele>455</ele>
        <time>2019-05-22T21:04:33Z</time>
      </trkpt>
      <trkpt lat="44.30536" lon="3.26529">
        <ele>449</ele>
        <time>2019-05-22T21:04:42Z</time>
      </trkpt>
      <trkpt lat="44.30534" lon="3.26548">
        <ele>449</ele>
        <time>2019-05-22T21:04:44Z</time>
      </trkpt>
      <trkpt lat="44.30535" lon="3.2656">
        <ele>449</ele>
        <time>2019-05-22T21:04:46Z</time>
      </trkpt>
      <trkpt lat="44.30538" lon="3.26574">
        <ele>450</ele>
        <time>2019-05-22T21:04:48Z</time>
      </trkpt>
      <trkpt lat="44.30547" lon="3.26598">
        <ele>453</ele>
        <time>2019-05-22T21:04:51Z</time>
      </trkpt>
      <trkpt lat="44.30552" lon="3.26618">
        <ele>456</ele>
        <time>2019-05-22T21:04:54Z</time>
      </trkpt>
      <trkpt lat="44.3055" lon="3.26662">
        <ele>460</ele>
        <time>2019-05-22T21:04:59Z</time>
      </trkpt>
      <trkpt lat="44.30547" lon="3.26686">
        <ele>461</ele>
        <time>2019-05-22T21:05:03Z</time>
      </trkpt>
      <trkpt lat="44.30541" lon="3.26707">
        <ele>462</ele>
        <time>2019-05-22T21:05:05Z</time>
      </trkpt>
      <trkpt lat="44.30523" lon="3.26755">
        <ele>461</ele>
        <time>2019-05-22T21:05:12Z</time>
      </trkpt>
      <trkpt lat="44.30513" lon="3.26771">
        <ele>460</ele>
        <time>2019-05-22T21:05:15Z</time>
      </trkpt>
      <trkpt lat="44.30483" lon="3.26806">
        <ele>459</ele>
        <time>2019-05-22T21:05:22Z</time>
      </trkpt>
      <trkpt lat="44.30449" lon="3.2684">
        <ele>456</ele>
        <time>2019-05-22T21:05:29Z</time>
      </trkpt>
      <trkpt lat="44.30404" lon="3.26874">
        <ele>454</ele>
        <time>2019-05-22T21:05:39Z</time>
      </trkpt>
      <trkpt lat="44.30344" lon="3.26943">
        <ele>451</ele>
        <time>2019-05-22T21:05:52Z</time>
      </trkpt>
      <trkpt lat="44.30319" lon="3.2698">
        <ele>453</ele>
        <time>2019-05-22T21:05:59Z</time>
      </trkpt>
      <trkpt lat="44.30304" lon="3.2701">
        <ele>453</ele>
        <time>2019-05-22T21:06:03Z</time>
      </trkpt>
      <trkpt lat="44.30296" lon="3.27038">
        <ele>452</ele>
        <time>2019-05-22T21:06:07Z</time>
      </trkpt>
      <trkpt lat="44.30292" lon="3.27065">
        <ele>453</ele>
        <time>2019-05-22T21:06:11Z</time>
      </trkpt>
      <trkpt lat="44.30293" lon="3.27083">
        <ele>454</ele>
        <time>2019-05-22T21:06:13Z</time>
      </trkpt>
      <trkpt lat="44.30297" lon="3.271">
        <ele>456</ele>
        <time>2019-05-22T21:06:15Z</time>
      </trkpt>
      <trkpt lat="44.30297" lon="3.2712">
        <ele>456</ele>
        <time>2019-05-22T21:06:18Z</time>
      </trkpt>
      <trkpt lat="44.30291" lon="3.2713">
        <ele>454</ele>
        <time>2019-05-22T21:06:20Z</time>
      </trkpt>
      <trkpt lat="44.30268" lon="3.27154">
        <ele>448</ele>
        <time>2019-05-22T21:06:25Z</time>
      </trkpt>
      <trkpt lat="44.3026" lon="3.2717">
        <ele>447</ele>
        <time>2019-05-22T21:06:27Z</time>
      </trkpt>
      <trkpt lat="44.30255" lon="3.27186">
        <ele>447</ele>
        <time>2019-05-22T21:06:29Z</time>
      </trkpt>
      <trkpt lat="44.30254" lon="3.27208">
        <ele>449</ele>
        <time>2019-05-22T21:06:32Z</time>
      </trkpt>
      <trkpt lat="44.3026" lon="3.27238">
        <ele>454</ele>
        <time>2019-05-22T21:06:36Z</time>
      </trkpt>
      <trkpt lat="44.30261" lon="3.27255">
        <ele>457</ele>
        <time>2019-05-22T21:06:38Z</time>
      </trkpt>
      <trkpt lat="44.30257" lon="3.27284">
        <ele>462</ele>
        <time>2019-05-22T21:06:42Z</time>
      </trkpt>
      <trkpt lat="44.30251" lon="3.27299">
        <ele>462</ele>
        <time>2019-05-22T21:06:44Z</time>
      </trkpt>
      <trkpt lat="44.30245" lon="3.2731">
        <ele>463</ele>
        <time>2019-05-22T21:06:46Z</time>
      </trkpt>
      <trkpt lat="44.30236" lon="3.27319">
        <ele>462</ele>
        <time>2019-05-22T21:06:48Z</time>
      </trkpt>
      <trkpt lat="44.30206" lon="3.27339">
        <ele>458</ele>
        <time>2019-05-22T21:06:54Z</time>
      </trkpt>
      <trkpt lat="44.30178" lon="3.27368">
        <ele>461</ele>
        <time>2019-05-22T21:07:00Z</time>
      </trkpt>
      <trkpt lat="44.30139" lon="3.27394">
        <ele>459</ele>
        <time>2019-05-22T21:07:08Z</time>
      </trkpt>
      <trkpt lat="44.30089" lon="3.27484">
        <ele>463</ele>
        <time>2019-05-22T21:07:22Z</time>
      </trkpt>
      <trkpt lat="44.30071" lon="3.27539">
        <ele>469</ele>
        <time>2019-05-22T21:07:30Z</time>
      </trkpt>
      <trkpt lat="44.30037" lon="3.27618">
        <ele>469</ele>
        <time>2019-05-22T21:07:42Z</time>
      </trkpt>
      <trkpt lat="44.30032" lon="3.27627">
        <ele>468</ele>
        <time>2019-05-22T21:07:43Z</time>
      </trkpt>
      <trkpt lat="44.30019" lon="3.27642">
        <ele>464</ele>
        <time>2019-05-22T21:07:46Z</time>
      </trkpt>
      <trkpt lat="44.29989" lon="3.27659">
        <ele>458</ele>
        <time>2019-05-22T21:07:52Z</time>
      </trkpt>
      <trkpt lat="44.29978" lon="3.27672">
        <ele>460</ele>
        <time>2019-05-22T21:07:55Z</time>
      </trkpt>
      <trkpt lat="44.29972" lon="3.2769">
        <ele>462</ele>
        <time>2019-05-22T21:07:57Z</time>
      </trkpt>
      <trkpt lat="44.29971" lon="3.27698">
        <ele>462</ele>
        <time>2019-05-22T21:07:58Z</time>
      </trkpt>
      <trkpt lat="44.29973" lon="3.27716">
        <ele>463</ele>
        <time>2019-05-22T21:08:00Z</time>
      </trkpt>
      <trkpt lat="44.2998" lon="3.27738">
        <ele>464</ele>
        <time>2019-05-22T21:08:04Z</time>
      </trkpt>
      <trkpt lat="44.29985" lon="3.27757">
        <ele>466</ele>
        <time>2019-05-22T21:08:06Z</time>
      </trkpt>
      <trkpt lat="44.29985" lon="3.27773">
        <ele>469</ele>
        <time>2019-05-22T21:08:08Z</time>
      </trkpt>
      <trkpt lat="44.29981" lon="3.2779">
        <ele>471</ele>
        <time>2019-05-22T21:08:10Z</time>
      </trkpt>
      <trkpt lat="44.29973" lon="3.278">
        <ele>471</ele>
        <time>2019-05-22T21:08:12Z</time>
      </trkpt>
      <trkpt lat="44.29951" lon="3.27811">
        <ele>467</ele>
        <time>2019-05-22T21:08:16Z</time>
      </trkpt>
      <trkpt lat="44.29943" lon="3.27825">
        <ele>466</ele>
        <time>2019-05-22T21:08:19Z</time>
      </trkpt>
      <trkpt lat="44.29938" lon="3.27843">
        <ele>467</ele>
        <time>2019-05-22T21:08:21Z</time>
      </trkpt>
      <trkpt lat="44.29935" lon="3.27858">
        <ele>468</ele>
        <time>2019-05-22T21:08:23Z</time>
      </trkpt>
      <trkpt lat="44.29933" lon="3.27898">
        <ele>474</ele>
        <time>2019-05-22T21:08:28Z</time>
      </trkpt>
      <trkpt lat="44.29929" lon="3.2792">
        <ele>475</ele>
        <time>2019-05-22T21:08:31Z</time>
      </trkpt>
      <trkpt lat="44.29918" lon="3.27944">
        <ele>476</ele>
        <time>2019-05-22T21:08:35Z</time>
      </trkpt>
      <trkpt lat="44.29893" lon="3.27969">
        <ele>477</ele>
        <time>2019-05-22T21:08:40Z</time>
      </trkpt>
      <trkpt lat="44.29878" lon="3.28">
        <ele>474</ele>
        <time>2019-05-22T21:08:45Z</time>
      </trkpt>
      <trkpt lat="44.29866" lon="3.28016">
        <ele>473</ele>
        <time>2019-05-22T21:08:48Z</time>
      </trkpt>
      <trkpt lat="44.2986" lon="3.28026">
        <ele>472</ele>
        <time>2019-05-22T21:08:50Z</time>
      </trkpt>
      <trkpt lat="44.2985" lon="3.28063">
        <ele>474</ele>
        <time>2019-05-22T21:08:55Z</time>
      </trkpt>
      <trkpt lat="44.29849" lon="3.28073">
        <ele>476</ele>
        <time>2019-05-22T21:08:56Z</time>
      </trkpt>
      <trkpt lat="44.29849" lon="3.28104">
        <ele>484</ele>
        <time>2019-05-22T21:09:00Z</time>
      </trkpt>
      <trkpt lat="44.29842" lon="3.28127">
        <ele>488</ele>
        <time>2019-05-22T21:09:03Z</time>
      </trkpt>
      <trkpt lat="44.29835" lon="3.28137">
        <ele>488</ele>
        <time>2019-05-22T21:09:05Z</time>
      </trkpt>
      <trkpt lat="44.29829" lon="3.28139">
        <ele>486</ele>
        <time>2019-05-22T21:09:06Z</time>
      </trkpt>
      <trkpt lat="44.29818" lon="3.28138">
        <ele>484</ele>
        <time>2019-05-22T21:09:08Z</time>
      </trkpt>
      <trkpt lat="44.29793" lon="3.28129">
        <ele>477</ele>
        <time>2019-05-22T21:09:13Z</time>
      </trkpt>
      <trkpt lat="44.29782" lon="3.28129">
        <ele>475</ele>
        <time>2019-05-22T21:09:15Z</time>
      </trkpt>
      <trkpt lat="44.29776" lon="3.28133">
        <ele>474</ele>
        <time>2019-05-22T21:09:16Z</time>
      </trkpt>
      <trkpt lat="44.29772" lon="3.28137">
        <ele>473</ele>
        <time>2019-05-22T21:09:17Z</time>
      </trkpt>
      <trkpt lat="44.29766" lon="3.28148">
        <ele>471</ele>
        <time>2019-05-22T21:09:18Z</time>
      </trkpt>
      <trkpt lat="44.29737" lon="3.28218">
        <ele>473</ele>
        <time>2019-05-22T21:09:29Z</time>
      </trkpt>
      <trkpt lat="44.29736" lon="3.28228">
        <ele>474</ele>
        <time>2019-05-22T21:09:30Z</time>
      </trkpt>
      <trkpt lat="44.29747" lon="3.28276">
        <ele>476</ele>
        <time>2019-05-22T21:09:36Z</time>
      </trkpt>
      <trkpt lat="44.29768" lon="3.28332">
        <ele>488</ele>
        <time>2019-05-22T21:09:44Z</time>
      </trkpt>
      <trkpt lat="44.29772" lon="3.28354">
        <ele>488</ele>
        <time>2019-05-22T21:09:47Z</time>
      </trkpt>
      <trkpt lat="44.29773" lon="3.28365">
        <ele>488</ele>
        <time>2019-05-22T21:09:49Z</time>
      </trkpt>
      <trkpt lat="44.2977" lon="3.28383">
        <ele>484</ele>
        <time>2019-05-22T21:09:51Z</time>
      </trkpt>
      <trkpt lat="44.29765" lon="3.28397">
        <ele>480</ele>
        <time>2019-05-22T21:09:53Z</time>
      </trkpt>
      <trkpt lat="44.2975" lon="3.28422">
        <ele>469</ele>
        <time>2019-05-22T21:09:57Z</time>
      </trkpt>
      <trkpt lat="44.29747" lon="3.28438">
        <ele>470</ele>
        <time>2019-05-22T21:09:59Z</time>
      </trkpt>
      <trkpt lat="44.29747" lon="3.28447">
        <ele>470</ele>
        <time>2019-05-22T21:10:00Z</time>
      </trkpt>
      <trkpt lat="44.29751" lon="3.28466">
        <ele>471</ele>
        <time>2019-05-22T21:10:03Z</time>
      </trkpt>
      <trkpt lat="44.29767" lon="3.2852">
        <ele>482</ele>
        <time>2019-05-22T21:10:10Z</time>
      </trkpt>
      <trkpt lat="44.29769" lon="3.28535">
        <ele>484</ele>
        <time>2019-05-22T21:10:12Z</time>
      </trkpt>
      <trkpt lat="44.29766" lon="3.28553">
        <ele>482</ele>
        <time>2019-05-22T21:10:15Z</time>
      </trkpt>
      <trkpt lat="44.29752" lon="3.28589">
        <ele>472</ele>
        <time>2019-05-22T21:10:20Z</time>
      </trkpt>
      <trkpt lat="44.29751" lon="3.28602">
        <ele>471</ele>
        <time>2019-05-22T21:10:22Z</time>
      </trkpt>
      <trkpt lat="44.29755" lon="3.28623">
        <ele>473</ele>
        <time>2019-05-22T21:10:24Z</time>
      </trkpt>
      <trkpt lat="44.29763" lon="3.2865">
        <ele>477</ele>
        <time>2019-05-22T21:10:28Z</time>
      </trkpt>
      <trkpt lat="44.29765" lon="3.28662">
        <ele>478</ele>
        <time>2019-05-22T21:10:30Z</time>
      </trkpt>
      <trkpt lat="44.29766" lon="3.28682">
        <ele>477</ele>
        <time>2019-05-22T21:10:32Z</time>
      </trkpt>
      <trkpt lat="44.29764" lon="3.2873">
        <ele>472</ele>
        <time>2019-05-22T21:10:38Z</time>
      </trkpt>
      <trkpt lat="44.29765" lon="3.28739">
        <ele>472</ele>
        <time>2019-05-22T21:10:39Z</time>
      </trkpt>
      <trkpt lat="44.29778" lon="3.28769">
        <ele>477</ele>
        <time>2019-05-22T21:10:44Z</time>
      </trkpt>
      <trkpt lat="44.29782" lon="3.28788">
        <ele>478</ele>
        <time>2019-05-22T21:10:46Z</time>
      </trkpt>
      <trkpt lat="44.29776" lon="3.28819">
        <ele>472</ele>
        <time>2019-05-22T21:10:51Z</time>
      </trkpt>
      <trkpt lat="44.29777" lon="3.28849">
        <ele>470</ele>
        <time>2019-05-22T21:10:54Z</time>
      </trkpt>
      <trkpt lat="44.29779" lon="3.2886">
        <ele>469</ele>
        <time>2019-05-22T21:10:56Z</time>
      </trkpt>
      <trkpt lat="44.29797" lon="3.2891">
        <ele>469</ele>
        <time>2019-05-22T21:11:03Z</time>
      </trkpt>
      <trkpt lat="44.29805" lon="3.28926">
        <ele>468</ele>
        <time>2019-05-22T21:11:05Z</time>
      </trkpt>
      <trkpt lat="44.29811" lon="3.28932">
        <ele>468</ele>
        <time>2019-05-22T21:11:07Z</time>
      </trkpt>
      <trkpt lat="44.29826" lon="3.28937">
        <ele>471</ele>
        <time>2019-05-22T21:11:10Z</time>
      </trkpt>
      <trkpt lat="44.29849" lon="3.28939">
        <ele>478</ele>
        <time>2019-05-22T21:11:14Z</time>
      </trkpt>
      <trkpt lat="44.29892" lon="3.28956">
        <ele>484</ele>
        <time>2019-05-22T21:11:22Z</time>
      </trkpt>
      <trkpt lat="44.29913" lon="3.28969">
        <ele>485</ele>
        <time>2019-05-22T21:11:26Z</time>
      </trkpt>
      <trkpt lat="44.29949" lon="3.29011">
        <ele>480</ele>
        <time>2019-05-22T21:11:34Z</time>
      </trkpt>
      <trkpt lat="44.30004" lon="3.2907">
        <ele>476</ele>
        <time>2019-05-22T21:11:46Z</time>
      </trkpt>
      <trkpt lat="44.30037" lon="3.29099">
        <ele>484</ele>
        <time>2019-05-22T21:11:53Z</time>
      </trkpt>
      <trkpt lat="44.30042" lon="3.29106">
        <ele>485</ele>
        <time>2019-05-22T21:11:55Z</time>
      </trkpt>
      <trkpt lat="44.30048" lon="3.29116">
        <ele>485</ele>
        <time>2019-05-22T21:11:56Z</time>
      </trkpt>
      <trkpt lat="44.30051" lon="3.29127">
        <ele>483</ele>
        <time>2019-05-22T21:11:58Z</time>
      </trkpt>
      <trkpt lat="44.30062" lon="3.29174">
        <ele>476</ele>
        <time>2019-05-22T21:12:04Z</time>
      </trkpt>
      <trkpt lat="44.30111" lon="3.29297">
        <ele>477</ele>
        <time>2019-05-22T21:12:22Z</time>
      </trkpt>
      <trkpt lat="44.30132" lon="3.29379">
        <ele>471</ele>
        <time>2019-05-22T21:12:33Z</time>
      </trkpt>
      <trkpt lat="44.30143" lon="3.29407">
        <ele>469</ele>
        <time>2019-05-22T21:12:37Z</time>
      </trkpt>
      <trkpt lat="44.30149" lon="3.29417">
        <ele>468</ele>
        <time>2019-05-22T21:12:39Z</time>
      </trkpt>
      <trkpt lat="44.30172" lon="3.29448">
        <ele>472</ele>
        <time>2019-05-22T21:12:44Z</time>
      </trkpt>
      <trkpt lat="44.30175" lon="3.29455">
        <ele>472</ele>
        <time>2019-05-22T21:12:45Z</time>
      </trkpt>
      <trkpt lat="44.30179" lon="3.29466">
        <ele>472</ele>
        <time>2019-05-22T21:12:47Z</time>
      </trkpt>
      <trkpt lat="44.3018" lon="3.29489">
        <ele>469</ele>
        <time>2019-05-22T21:12:50Z</time>
      </trkpt>
      <trkpt lat="44.30177" lon="3.29512">
        <ele>463</ele>
        <time>2019-05-22T21:12:53Z</time>
      </trkpt>
      <trkpt lat="44.30177" lon="3.29529">
        <ele>459</ele>
        <time>2019-05-22T21:12:55Z</time>
      </trkpt>
      <trkpt lat="44.30184" lon="3.29545">
        <ele>457</ele>
        <time>2019-05-22T21:12:57Z</time>
      </trkpt>
      <trkpt lat="44.3019" lon="3.29552">
        <ele>457</ele>
        <time>2019-05-22T21:12:59Z</time>
      </trkpt>
      <trkpt lat="44.3022" lon="3.29581">
        <ele>455</ele>
        <time>2019-05-22T21:13:05Z</time>
      </trkpt>
      <trkpt lat="44.30244" lon="3.29586">
        <ele>457</ele>
        <time>2019-05-22T21:13:10Z</time>
      </trkpt>
      <trkpt lat="44.30262" lon="3.29586">
        <ele>461</ele>
        <time>2019-05-22T21:13:13Z</time>
      </trkpt>
      <trkpt lat="44.3028" lon="3.29584">
        <ele>465</ele>
        <time>2019-05-22T21:13:16Z</time>
      </trkpt>
      <trkpt lat="44.30295" lon="3.29587">
        <ele>468</ele>
        <time>2019-05-22T21:13:19Z</time>
      </trkpt>
      <trkpt lat="44.30304" lon="3.29593">
        <ele>467</ele>
        <time>2019-05-22T21:13:21Z</time>
      </trkpt>
      <trkpt lat="44.30321" lon="3.29614">
        <ele>463</ele>
        <time>2019-05-22T21:13:25Z</time>
      </trkpt>
      <trkpt lat="44.30335" lon="3.29625">
        <ele>461</ele>
        <time>2019-05-22T21:13:27Z</time>
      </trkpt>
      <trkpt lat="44.30416" lon="3.2966">
        <ele>463</ele>
        <time>2019-05-22T21:13:43Z</time>
      </trkpt>
      <trkpt lat="44.30456" lon="3.29693">
        <ele>474</ele>
        <time>2019-05-22T21:13:51Z</time>
      </trkpt>
      <trkpt lat="44.30467" lon="3.29705">
        <ele>475</ele>
        <time>2019-05-22T21:13:53Z</time>
      </trkpt>
      <trkpt lat="44.30479" lon="3.29729">
        <ele>471</ele>
        <time>2019-05-22T21:13:57Z</time>
      </trkpt>
      <trkpt lat="44.30488" lon="3.29742">
        <ele>469</ele>
        <time>2019-05-22T21:13:59Z</time>
      </trkpt>
      <trkpt lat="44.30517" lon="3.29763">
        <ele>477</ele>
        <time>2019-05-22T21:14:05Z</time>
      </trkpt>
      <trkpt lat="44.30528" lon="3.29777">
        <ele>479</ele>
        <time>2019-05-22T21:14:08Z</time>
      </trkpt>
      <trkpt lat="44.30568" lon="3.29858">
        <ele>471</ele>
        <time>2019-05-22T21:14:20Z</time>
      </trkpt>
      <trkpt lat="44.30607" lon="3.29928">
        <ele>468</ele>
        <time>2019-05-22T21:14:32Z</time>
      </trkpt>
      <trkpt lat="44.30614" lon="3.2995">
        <ele>468</ele>
        <time>2019-05-22T21:14:35Z</time>
      </trkpt>
      <trkpt lat="44.30617" lon="3.29999">
        <ele>457</ele>
        <time>2019-05-22T21:14:41Z</time>
      </trkpt>
      <trkpt lat="44.30623" lon="3.30021">
        <ele>458</ele>
        <time>2019-05-22T21:14:44Z</time>
      </trkpt>
      <trkpt lat="44.30632" lon="3.30042">
        <ele>460</ele>
        <time>2019-05-22T21:14:47Z</time>
      </trkpt>
      <trkpt lat="44.30636" lon="3.30057">
        <ele>461</ele>
        <time>2019-05-22T21:14:49Z</time>
      </trkpt>
      <trkpt lat="44.30644" lon="3.3009">
        <ele>462</ele>
        <time>2019-05-22T21:14:54Z</time>
      </trkpt>
      <trkpt lat="44.30646" lon="3.30107">
        <ele>462</ele>
        <time>2019-05-22T21:14:56Z</time>
      </trkpt>
      <trkpt lat="44.30649" lon="3.30171">
        <ele>463</ele>
        <time>2019-05-22T21:15:04Z</time>
      </trkpt>
      <trkpt lat="44.30646" lon="3.30189">
        <ele>462</ele>
        <time>2019-05-22T21:15:06Z</time>
      </trkpt>
      <trkpt lat="44.30637" lon="3.30214">
        <ele>460</ele>
        <time>2019-05-22T21:15:10Z</time>
      </trkpt>
      <trkpt lat="44.30634" lon="3.30229">
        <ele>459</ele>
        <time>2019-05-22T21:15:12Z</time>
      </trkpt>
      <trkpt lat="44.30635" lon="3.30248">
        <ele>460</ele>
        <time>2019-05-22T21:15:14Z</time>
      </trkpt>
      <trkpt lat="44.30637" lon="3.30257">
        <ele>461</ele>
        <time>2019-05-22T21:15:15Z</time>
      </trkpt>
      <trkpt lat="44.3065" lon="3.30294">
        <ele>465</ele>
        <time>2019-05-22T21:15:21Z</time>
      </trkpt>
      <trkpt lat="44.30652" lon="3.3031">
        <ele>466</ele>
        <time>2019-05-22T21:15:23Z</time>
      </trkpt>
      <trkpt lat="44.3065" lon="3.30324">
        <ele>466</ele>
        <time>2019-05-22T21:15:25Z</time>
      </trkpt>
      <trkpt lat="44.30644" lon="3.30338">
        <ele>465</ele>
        <time>2019-05-22T21:15:27Z</time>
      </trkpt>
      <trkpt lat="44.30624" lon="3.3036">
        <ele>463</ele>
        <time>2019-05-22T21:15:31Z</time>
      </trkpt>
      <trkpt lat="44.3061" lon="3.30391">
        <ele>464</ele>
        <time>2019-05-22T21:15:36Z</time>
      </trkpt>
      <trkpt lat="44.3061" lon="3.30391">
        <ele>464</ele>
        <time>2019-05-22T21:15:36Z</time>
      </trkpt>
      <trkpt lat="44.3059" lon="3.30447">
        <ele>467</ele>
        <time>2019-05-22T21:15:44Z</time>
      </trkpt>
      <trkpt lat="44.30563" lon="3.30507">
        <ele>470</ele>
        <time>2019-05-22T21:15:53Z</time>
      </trkpt>
      <trkpt lat="44.30551" lon="3.30558">
        <ele>475</ele>
        <time>2019-05-22T21:16:00Z</time>
      </trkpt>
      <trkpt lat="44.30538" lon="3.30595">
        <ele>475</ele>
        <time>2019-05-22T21:16:05Z</time>
      </trkpt>
      <trkpt lat="44.30485" lon="3.30677">
        <ele>467</ele>
        <time>2019-05-22T21:16:19Z</time>
      </trkpt>
      <trkpt lat="44.30471" lon="3.30715">
        <ele>471</ele>
        <time>2019-05-22T21:16:24Z</time>
      </trkpt>
      <trkpt lat="44.30451" lon="3.30748">
        <ele>468</ele>
        <time>2019-05-22T21:16:30Z</time>
      </trkpt>
      <trkpt lat="44.30415" lon="3.30825">
        <ele>468</ele>
        <time>2019-05-22T21:16:42Z</time>
      </trkpt>
      <trkpt lat="44.30403" lon="3.30867">
        <ele>472</ele>
        <time>2019-05-22T21:16:47Z</time>
      </trkpt>
      <trkpt lat="44.30389" lon="3.30901">
        <ele>473</ele>
        <time>2019-05-22T21:16:52Z</time>
      </trkpt>
      <trkpt lat="44.30356" lon="3.30969">
        <ele>473</ele>
        <time>2019-05-22T21:17:03Z</time>
      </trkpt>
      <trkpt lat="44.30334" lon="3.31003">
        <ele>470</ele>
        <time>2019-05-22T21:17:09Z</time>
      </trkpt>
      <trkpt lat="44.30317" lon="3.31026">
        <ele>473</ele>
        <time>2019-05-22T21:17:13Z</time>
      </trkpt>
      <trkpt lat="44.30255" lon="3.31088">
        <ele>470</ele>
        <time>2019-05-22T21:17:26Z</time>
      </trkpt>
      <trkpt lat="44.30233" lon="3.31107">
        <ele>472</ele>
        <time>2019-05-22T21:17:31Z</time>
      </trkpt>
      <trkpt lat="44.30184" lon="3.3114">
        <ele>471</ele>
        <time>2019-05-22T21:17:41Z</time>
      </trkpt>
      <trkpt lat="44.30154" lon="3.31174">
        <ele>474</ele>
        <time>2019-05-22T21:17:48Z</time>
      </trkpt>
      <trkpt lat="44.30125" lon="3.31195">
        <ele>474</ele>
        <time>2019-05-22T21:17:53Z</time>
      </trkpt>
      <trkpt lat="44.30091" lon="3.31209">
        <ele>468</ele>
        <time>2019-05-22T21:18:00Z</time>
      </trkpt>
      <trkpt lat="44.30021" lon="3.31254">
        <ele>465</ele>
        <time>2019-05-22T21:18:13Z</time>
      </trkpt>
      <trkpt lat="44.30006" lon="3.31268">
        <ele>461</ele>
        <time>2019-05-22T21:18:17Z</time>
      </trkpt>
      <trkpt lat="44.30002" lon="3.31274">
        <ele>460</ele>
        <time>2019-05-22T21:18:18Z</time>
      </trkpt>
      <trkpt lat="44.29999" lon="3.31282">
        <ele>460</ele>
        <time>2019-05-22T21:18:19Z</time>
      </trkpt>
      <trkpt lat="44.29998" lon="3.31297">
        <ele>460</ele>
        <time>2019-05-22T21:18:21Z</time>
      </trkpt>
      <trkpt lat="44.30002" lon="3.31311">
        <ele>461</ele>
        <time>2019-05-22T21:18:23Z</time>
      </trkpt>
      <trkpt lat="44.30038" lon="3.31369">
        <ele>474</ele>
        <time>2019-05-22T21:18:32Z</time>
      </trkpt>
      <trkpt lat="44.30069" lon="3.31411">
        <ele>481</ele>
        <time>2019-05-22T21:18:40Z</time>
      </trkpt>
      <trkpt lat="44.30079" lon="3.3143">
        <ele>481</ele>
        <time>2019-05-22T21:18:43Z</time>
      </trkpt>
      <trkpt lat="44.30093" lon="3.31467">
        <ele>477</ele>
        <time>2019-05-22T21:18:48Z</time>
      </trkpt>
      <trkpt lat="44.30104" lon="3.31508">
        <ele>472</ele>
        <time>2019-05-22T21:18:54Z</time>
      </trkpt>
      <trkpt lat="44.30116" lon="3.31577">
        <ele>468</ele>
        <time>2019-05-22T21:19:03Z</time>
      </trkpt>
      <trkpt lat="44.30131" lon="3.31645">
        <ele>470</ele>
        <time>2019-05-22T21:19:12Z</time>
      </trkpt>
      <trkpt lat="44.30138" lon="3.3168">
        <ele>470</ele>
        <time>2019-05-22T21:19:17Z</time>
      </trkpt>
      <trkpt lat="44.30137" lon="3.31725">
        <ele>467</ele>
        <time>2019-05-22T21:19:23Z</time>
      </trkpt>
      <trkpt lat="44.30129" lon="3.31775">
        <ele>463</ele>
        <time>2019-05-22T21:19:29Z</time>
      </trkpt>
      <trkpt lat="44.30125" lon="3.31855">
        <ele>460</ele>
        <time>2019-05-22T21:19:39Z</time>
      </trkpt>
      <trkpt lat="44.30124" lon="3.31938">
        <ele>456</ele>
        <time>2019-05-22T21:19:50Z</time>
      </trkpt>
      <trkpt lat="44.30125" lon="3.31957">
        <ele>455</ele>
        <time>2019-05-22T21:19:52Z</time>
      </trkpt>
      <trkpt lat="44.30132" lon="3.32">
        <ele>452</ele>
        <time>2019-05-22T21:19:58Z</time>
      </trkpt>
      <trkpt lat="44.30132" lon="3.32016">
        <ele>453</ele>
        <time>2019-05-22T21:20:00Z</time>
      </trkpt>
      <trkpt lat="44.30125" lon="3.32047">
        <ele>453</ele>
        <time>2019-05-22T21:20:04Z</time>
      </trkpt>
      <trkpt lat="44.30125" lon="3.32065">
        <ele>454</ele>
        <time>2019-05-22T21:20:06Z</time>
      </trkpt>
      <trkpt lat="44.30131" lon="3.32098">
        <ele>456</ele>
        <time>2019-05-22T21:20:11Z</time>
      </trkpt>
      <trkpt lat="44.3014" lon="3.32131">
        <ele>457</ele>
        <time>2019-05-22T21:20:15Z</time>
      </trkpt>
      <trkpt lat="44.30213" lon="3.32268">
        <ele>469</ele>
        <time>2019-05-22T21:20:37Z</time>
      </trkpt>
      <trkpt lat="44.30237" lon="3.323">
        <ele>466</ele>
        <time>2019-05-22T21:20:43Z</time>
      </trkpt>
      <trkpt lat="44.3027" lon="3.32327">
        <ele>466</ele>
        <time>2019-05-22T21:20:50Z</time>
      </trkpt>
      <trkpt lat="44.30299" lon="3.32361">
        <ele>469</ele>
        <time>2019-05-22T21:20:56Z</time>
      </trkpt>
      <trkpt lat="44.30327" lon="3.32406">
        <ele>462</ele>
        <time>2019-05-22T21:21:04Z</time>
      </trkpt>
      <trkpt lat="44.30363" lon="3.3245">
        <ele>466</ele>
        <time>2019-05-22T21:21:12Z</time>
      </trkpt>
      <trkpt lat="44.30444" lon="3.32564">
        <ele>461</ele>
        <time>2019-05-22T21:21:33Z</time>
      </trkpt>
      <trkpt lat="44.30567" lon="3.32748">
        <ele>465</ele>
        <time>2019-05-22T21:22:05Z</time>
      </trkpt>
      <trkpt lat="44.30622" lon="3.32839">
        <ele>466</ele>
        <time>2019-05-22T21:22:20Z</time>
      </trkpt>
      <trkpt lat="44.30661" lon="3.32892">
        <ele>465</ele>
        <time>2019-05-22T21:22:30Z</time>
      </trkpt>
      <trkpt lat="44.30713" lon="3.32954">
        <ele>470</ele>
        <time>2019-05-22T21:22:42Z</time>
      </trkpt>
      <trkpt lat="44.30746" lon="3.32989">
        <ele>469</ele>
        <time>2019-05-22T21:22:49Z</time>
      </trkpt>
      <trkpt lat="44.3078" lon="3.33009">
        <ele>477</ele>
        <time>2019-05-22T21:22:56Z</time>
      </trkpt>
      <trkpt lat="44.30803" lon="3.33031">
        <ele>478</ele>
        <time>2019-05-22T21:23:01Z</time>
      </trkpt>
      <trkpt lat="44.30888" lon="3.33094">
        <ele>481</ele>
        <time>2019-05-22T21:23:18Z</time>
      </trkpt>
      <trkpt lat="44.3091" lon="3.33113">
        <ele>481</ele>
        <time>2019-05-22T21:23:23Z</time>
      </trkpt>
      <trkpt lat="44.30931" lon="3.33137">
        <ele>479</ele>
        <time>2019-05-22T21:23:27Z</time>
      </trkpt>
      <trkpt lat="44.30943" lon="3.33146">
        <ele>481</ele>
        <time>2019-05-22T21:23:30Z</time>
      </trkpt>
      <trkpt lat="44.31009" lon="3.33225">
        <ele>476</ele>
        <time>2019-05-22T21:23:45Z</time>
      </trkpt>
      <trkpt lat="44.31035" lon="3.33262">
        <ele>475</ele>
        <time>2019-05-22T21:23:52Z</time>
      </trkpt>
      <trkpt lat="44.31116" lon="3.33428">
        <ele>463</ele>
        <time>2019-05-22T21:24:17Z</time>
      </trkpt>
      <trkpt lat="44.31146" lon="3.3347">
        <ele>466</ele>
        <time>2019-05-22T21:24:25Z</time>
      </trkpt>
      <trkpt lat="44.31169" lon="3.33521">
        <ele>459</ele>
        <time>2019-05-22T21:24:33Z</time>
      </trkpt>
      <trkpt lat="44.31202" lon="3.33576">
        <ele>460</ele>
        <time>2019-05-22T21:24:42Z</time>
      </trkpt>
      <trkpt lat="44.31249" lon="3.33637">
        <ele>458</ele>
        <time>2019-05-22T21:24:53Z</time>
      </trkpt>
      <trkpt lat="44.31303" lon="3.33685">
        <ele>463</ele>
        <time>2019-05-22T21:25:05Z</time>
      </trkpt>
      <trkpt lat="44.31341" lon="3.33735">
        <ele>466</ele>
        <time>2019-05-22T21:25:14Z</time>
      </trkpt>
      <trkpt lat="44.31417" lon="3.33799">
        <ele>474</ele>
        <time>2019-05-22T21:25:30Z</time>
      </trkpt>
      <trkpt lat="44.31463" lon="3.33848">
        <ele>475</ele>
        <time>2019-05-22T21:25:40Z</time>
      </trkpt>
      <trkpt lat="44.31523" lon="3.33865">
        <ele>491</ele>
        <time>2019-05-22T21:25:51Z</time>
      </trkpt>
      <trkpt lat="44.31538" lon="3.33881">
        <ele>488</ele>
        <time>2019-05-22T21:25:54Z</time>
      </trkpt>
      <trkpt lat="44.31569" lon="3.33926">
        <ele>473</ele>
        <time>2019-05-22T21:26:02Z</time>
      </trkpt>
      <trkpt lat="44.3158" lon="3.33947">
        <ele>470</ele>
        <time>2019-05-22T21:26:06Z</time>
      </trkpt>
      <trkpt lat="44.31597" lon="3.33996">
        <ele>463</ele>
        <time>2019-05-22T21:26:12Z</time>
      </trkpt>
      <trkpt lat="44.31612" lon="3.34045">
        <ele>465</ele>
        <time>2019-05-22T21:26:19Z</time>
      </trkpt>
      <trkpt lat="44.31628" lon="3.34088">
        <ele>467</ele>
        <time>2019-05-22T21:26:25Z</time>
      </trkpt>
      <trkpt lat="44.31647" lon="3.34123">
        <ele>471</ele>
        <time>2019-05-22T21:26:31Z</time>
      </trkpt>
      <trkpt lat="44.31667" lon="3.34204">
        <ele>467</ele>
        <time>2019-05-22T21:26:42Z</time>
      </trkpt>
      <trkpt lat="44.31684" lon="3.34312">
        <ele>468</ele>
        <time>2019-05-22T21:26:56Z</time>
      </trkpt>
      <trkpt lat="44.31699" lon="3.34377">
        <ele>470</ele>
        <time>2019-05-22T21:27:05Z</time>
      </trkpt>
      <trkpt lat="44.31729" lon="3.34477">
        <ele>471</ele>
        <time>2019-05-22T21:27:19Z</time>
      </trkpt>
      <trkpt lat="44.3175" lon="3.34527">
        <ele>467</ele>
        <time>2019-05-22T21:27:26Z</time>
      </trkpt>
      <trkpt lat="44.3176" lon="3.34542">
        <ele>467</ele>
        <time>2019-05-22T21:27:29Z</time>
      </trkpt>
      <trkpt lat="44.31781" lon="3.34565">
        <ele>466</ele>
        <time>2019-05-22T21:27:33Z</time>
      </trkpt>
      <trkpt lat="44.31806" lon="3.34587">
        <ele>466</ele>
        <time>2019-05-22T21:27:39Z</time>
      </trkpt>
      <trkpt lat="44.31821" lon="3.34595">
        <ele>467</ele>
        <time>2019-05-22T21:27:41Z</time>
      </trkpt>
      <trkpt lat="44.31864" lon="3.34604">
        <ele>470</ele>
        <time>2019-05-22T21:27:49Z</time>
      </trkpt>
      <trkpt lat="44.31949" lon="3.34617">
        <ele>471</ele>
        <time>2019-05-22T21:28:04Z</time>
      </trkpt>
      <trkpt lat="44.31976" lon="3.34617">
        <ele>472</ele>
        <time>2019-05-22T21:28:09Z</time>
      </trkpt>
      <trkpt lat="44.32018" lon="3.3461">
        <ele>474</ele>
        <time>2019-05-22T21:28:17Z</time>
      </trkpt>
      <trkpt lat="44.32048" lon="3.34601">
        <ele>474</ele>
        <time>2019-05-22T21:28:22Z</time>
      </trkpt>
      <trkpt lat="44.32087" lon="3.34582">
        <ele>475</ele>
        <time>2019-05-22T21:28:29Z</time>
      </trkpt>
      <trkpt lat="44.32102" lon="3.34578">
        <ele>476</ele>
        <time>2019-05-22T21:28:32Z</time>
      </trkpt>
      <trkpt lat="44.32134" lon="3.34575">
        <ele>475</ele>
        <time>2019-05-22T21:28:38Z</time>
      </trkpt>
      <trkpt lat="44.32173" lon="3.34562">
        <ele>479</ele>
        <time>2019-05-22T21:28:45Z</time>
      </trkpt>
      <trkpt lat="44.32183" lon="3.3456">
        <ele>480</ele>
        <time>2019-05-22T21:28:47Z</time>
      </trkpt>
      <trkpt lat="44.32211" lon="3.3456">
        <ele>478</ele>
        <time>2019-05-22T21:28:52Z</time>
      </trkpt>
      <trkpt lat="44.32277" lon="3.34555">
        <ele>475</ele>
        <time>2019-05-22T21:29:04Z</time>
      </trkpt>
      <trkpt lat="44.323" lon="3.34546">
        <ele>476</ele>
        <time>2019-05-22T21:29:08Z</time>
      </trkpt>
      <trkpt lat="44.32323" lon="3.34526">
        <ele>481</ele>
        <time>2019-05-22T21:29:13Z</time>
      </trkpt>
      <trkpt lat="44.32332" lon="3.3452">
        <ele>481</ele>
        <time>2019-05-22T21:29:14Z</time>
      </trkpt>
      <trkpt lat="44.32341" lon="3.34518">
        <ele>483</ele>
        <time>2019-05-22T21:29:16Z</time>
      </trkpt>
      <trkpt lat="44.32348" lon="3.34519">
        <ele>483</ele>
        <time>2019-05-22T21:29:17Z</time>
      </trkpt>
      <trkpt lat="44.32362" lon="3.34529">
        <ele>480</ele>
        <time>2019-05-22T21:29:20Z</time>
      </trkpt>
      <trkpt lat="44.32379" lon="3.34554">
        <ele>473</ele>
        <time>2019-05-22T21:29:24Z</time>
      </trkpt>
      <trkpt lat="44.32387" lon="3.34563">
        <ele>470</ele>
        <time>2019-05-22T21:29:26Z</time>
      </trkpt>
      <trkpt lat="44.32398" lon="3.3457">
        <ele>468</ele>
        <time>2019-05-22T21:29:28Z</time>
      </trkpt>
      <trkpt lat="44.32437" lon="3.34579">
        <ele>468</ele>
        <time>2019-05-22T21:29:35Z</time>
      </trkpt>
      <trkpt lat="44.32472" lon="3.34582">
        <ele>471</ele>
        <time>2019-05-22T21:29:42Z</time>
      </trkpt>
      <trkpt lat="44.32495" lon="3.3459">
        <ele>472</ele>
        <time>2019-05-22T21:29:46Z</time>
      </trkpt>
      <trkpt lat="44.32518" lon="3.34607">
        <ele>470</ele>
        <time>2019-05-22T21:29:51Z</time>
      </trkpt>
      <trkpt lat="44.32552" lon="3.34607">
        <ele>476</ele>
        <time>2019-05-22T21:29:57Z</time>
      </trkpt>
      <trkpt lat="44.32563" lon="3.34611">
        <ele>476</ele>
        <time>2019-05-22T21:29:59Z</time>
      </trkpt>
      <trkpt lat="44.32612" lon="3.34641">
        <ele>473</ele>
        <time>2019-05-22T21:30:08Z</time>
      </trkpt>
      <trkpt lat="44.32622" lon="3.34645">
        <ele>473</ele>
        <time>2019-05-22T21:30:10Z</time>
      </trkpt>
      <trkpt lat="44.32643" lon="3.34648">
        <ele>476</ele>
        <time>2019-05-22T21:30:14Z</time>
      </trkpt>
      <trkpt lat="44.32652" lon="3.34651">
        <ele>476</ele>
        <time>2019-05-22T21:30:15Z</time>
      </trkpt>
      <trkpt lat="44.32668" lon="3.34666">
        <ele>473</ele>
        <time>2019-05-22T21:30:19Z</time>
      </trkpt>
      <trkpt lat="44.32675" lon="3.34679">
        <ele>473</ele>
        <time>2019-05-22T21:30:21Z</time>
      </trkpt>
      <trkpt lat="44.32686" lon="3.34712">
        <ele>471</ele>
        <time>2019-05-22T21:30:26Z</time>
      </trkpt>
      <trkpt lat="44.32698" lon="3.34731">
        <ele>471</ele>
        <time>2019-05-22T21:30:29Z</time>
      </trkpt>
      <trkpt lat="44.32728" lon="3.3475">
        <ele>476</ele>
        <time>2019-05-22T21:30:35Z</time>
      </trkpt>
      <trkpt lat="44.32737" lon="3.34759">
        <ele>477</ele>
        <time>2019-05-22T21:30:37Z</time>
      </trkpt>
      <trkpt lat="44.32775" lon="3.34808">
        <ele>480</ele>
        <time>2019-05-22T21:30:46Z</time>
      </trkpt>
      <trkpt lat="44.32809" lon="3.34849">
        <ele>481</ele>
        <time>2019-05-22T21:30:54Z</time>
      </trkpt>
      <trkpt lat="44.32823" lon="3.34869">
        <ele>481</ele>
        <time>2019-05-22T21:30:57Z</time>
      </trkpt>
      <trkpt lat="44.32853" lon="3.34938">
        <ele>477</ele>
        <time>2019-05-22T21:31:08Z</time>
      </trkpt>
      <trkpt lat="44.32858" lon="3.34954">
        <ele>478</ele>
        <time>2019-05-22T21:31:10Z</time>
      </trkpt>
      <trkpt lat="44.32863" lon="3.34974">
        <ele>478</ele>
        <time>2019-05-22T21:31:13Z</time>
      </trkpt>
      <trkpt lat="44.32868" lon="3.35026">
        <ele>475</ele>
        <time>2019-05-22T21:31:19Z</time>
      </trkpt>
      <trkpt lat="44.32871" lon="3.35042">
        <ele>475</ele>
        <time>2019-05-22T21:31:21Z</time>
      </trkpt>
      <trkpt lat="44.32885" lon="3.35081">
        <ele>478</ele>
        <time>2019-05-22T21:31:27Z</time>
      </trkpt>
      <trkpt lat="44.32911" lon="3.35142">
        <ele>478</ele>
        <time>2019-05-22T21:31:36Z</time>
      </trkpt>
      <trkpt lat="44.32915" lon="3.35156">
        <ele>477</ele>
        <time>2019-05-22T21:31:38Z</time>
      </trkpt>
      <trkpt lat="44.32928" lon="3.35209">
        <ele>477</ele>
        <time>2019-05-22T21:31:45Z</time>
      </trkpt>
      <trkpt lat="44.3294" lon="3.35269">
        <ele>475</ele>
        <time>2019-05-22T21:31:53Z</time>
      </trkpt>
      <trkpt lat="44.32944" lon="3.35286">
        <ele>474</ele>
        <time>2019-05-22T21:31:55Z</time>
      </trkpt>
      <trkpt lat="44.32953" lon="3.35305">
        <ele>475</ele>
        <time>2019-05-22T21:31:58Z</time>
      </trkpt>
      <trkpt lat="44.32981" lon="3.35358">
        <ele>474</ele>
        <time>2019-05-22T21:32:06Z</time>
      </trkpt>
      <trkpt lat="44.32987" lon="3.35368">
        <ele>473</ele>
        <time>2019-05-22T21:32:08Z</time>
      </trkpt>
      <trkpt lat="44.33" lon="3.35383">
        <ele>472</ele>
        <time>2019-05-22T21:32:11Z</time>
      </trkpt>
      <trkpt lat="44.33019" lon="3.35398">
        <ele>472</ele>
        <time>2019-05-22T21:32:15Z</time>
      </trkpt>
      <trkpt lat="44.33078" lon="3.35429">
        <ele>473</ele>
        <time>2019-05-22T21:32:26Z</time>
      </trkpt>
      <trkpt lat="44.33093" lon="3.35434">
        <ele>474</ele>
        <time>2019-05-22T21:32:29Z</time>
      </trkpt>
      <trkpt lat="44.33172" lon="3.35452">
        <ele>477</ele>
        <time>2019-05-22T21:32:43Z</time>
      </trkpt>
      <trkpt lat="44.33226" lon="3.35484">
        <ele>476</ele>
        <time>2019-05-22T21:32:54Z</time>
      </trkpt>
      <trkpt lat="44.33263" lon="3.35495">
        <ele>478</ele>
        <time>2019-05-22T21:33:00Z</time>
      </trkpt>
      <trkpt lat="44.33375" lon="3.35564">
        <ele>486</ele>
        <time>2019-05-22T21:33:22Z</time>
      </trkpt>
      <trkpt lat="44.3339" lon="3.35576">
        <ele>483</ele>
        <time>2019-05-22T21:33:25Z</time>
      </trkpt>
      <trkpt lat="44.33428" lon="3.35617">
        <ele>479</ele>
        <time>2019-05-22T21:33:34Z</time>
      </trkpt>
      <trkpt lat="44.33458" lon="3.35645">
        <ele>483</ele>
        <time>2019-05-22T21:33:40Z</time>
      </trkpt>
      <trkpt lat="44.33468" lon="3.35656">
        <ele>483</ele>
        <time>2019-05-22T21:33:42Z</time>
      </trkpt>
      <trkpt lat="44.33497" lon="3.35711">
        <ele>482</ele>
        <time>2019-05-22T21:33:51Z</time>
      </trkpt>
      <trkpt lat="44.33522" lon="3.35752">
        <ele>484</ele>
        <time>2019-05-22T21:33:58Z</time>
      </trkpt>
      <trkpt lat="44.33587" lon="3.35837">
        <ele>490</ele>
        <time>2019-05-22T21:34:14Z</time>
      </trkpt>
      <trkpt lat="44.33594" lon="3.35851">
        <ele>495</ele>
        <time>2019-05-22T21:34:16Z</time>
      </trkpt>
      <trkpt lat="44.33597" lon="3.35871">
        <ele>497</ele>
        <time>2019-05-22T21:34:19Z</time>
      </trkpt>
      <trkpt lat="44.33592" lon="3.35891">
        <ele>494</ele>
        <time>2019-05-22T21:34:21Z</time>
      </trkpt>
      <trkpt lat="44.33587" lon="3.35901">
        <ele>490</ele>
        <time>2019-05-22T21:34:23Z</time>
      </trkpt>
      <trkpt lat="44.33585" lon="3.35914">
        <ele>488</ele>
        <time>2019-05-22T21:34:25Z</time>
      </trkpt>
      <trkpt lat="44.33588" lon="3.36058">
        <ele>491</ele>
        <time>2019-05-22T21:34:43Z</time>
      </trkpt>
      <trkpt lat="44.33583" lon="3.36199">
        <ele>485</ele>
        <time>2019-05-22T21:35:01Z</time>
      </trkpt>
      <trkpt lat="44.33587" lon="3.36225">
        <ele>482</ele>
        <time>2019-05-22T21:35:04Z</time>
      </trkpt>
      <trkpt lat="44.33593" lon="3.36234">
        <ele>481</ele>
        <time>2019-05-22T21:35:06Z</time>
      </trkpt>
      <trkpt lat="44.33604" lon="3.36239">
        <ele>481</ele>
        <time>2019-05-22T21:35:08Z</time>
      </trkpt>
      <trkpt lat="44.33642" lon="3.36235">
        <ele>484</ele>
        <time>2019-05-22T21:35:15Z</time>
      </trkpt>
      <trkpt lat="44.33652" lon="3.3623">
        <ele>487</ele>
        <time>2019-05-22T21:35:17Z</time>
      </trkpt>
      <trkpt lat="44.33698" lon="3.36195">
        <ele>498</ele>
        <time>2019-05-22T21:35:26Z</time>
      </trkpt>
      <trkpt lat="44.3371" lon="3.36189">
        <ele>498</ele>
        <time>2019-05-22T21:35:28Z</time>
      </trkpt>
      <trkpt lat="44.33725" lon="3.36186">
        <ele>496</ele>
        <time>2019-05-22T21:35:31Z</time>
      </trkpt>
      <trkpt lat="44.33743" lon="3.36178">
        <ele>495</ele>
        <time>2019-05-22T21:35:34Z</time>
      </trkpt>
      <trkpt lat="44.3376" lon="3.36162">
        <ele>497</ele>
        <time>2019-05-22T21:35:38Z</time>
      </trkpt>
      <trkpt lat="44.33789" lon="3.36117">
        <ele>513</ele>
        <time>2019-05-22T21:35:46Z</time>
      </trkpt>
      <trkpt lat="44.33796" lon="3.36111">
        <ele>514</ele>
        <time>2019-05-22T21:35:47Z</time>
      </trkpt>
      <trkpt lat="44.33802" lon="3.36108">
        <ele>514</ele>
        <time>2019-05-22T21:35:48Z</time>
      </trkpt>
      <trkpt lat="44.33814" lon="3.36109">
        <ele>510</ele>
        <time>2019-05-22T21:35:50Z</time>
      </trkpt>
      <trkpt lat="44.3387" lon="3.36129">
        <ele>498</ele>
        <time>2019-05-22T21:36:01Z</time>
      </trkpt>
      <trkpt lat="44.33884" lon="3.36139">
        <ele>495</ele>
        <time>2019-05-22T21:36:03Z</time>
      </trkpt>
      <trkpt lat="44.33911" lon="3.36167">
        <ele>488</ele>
        <time>2019-05-22T21:36:09Z</time>
      </trkpt>
      <trkpt lat="44.33916" lon="3.36176">
        <ele>487</ele>
        <time>2019-05-22T21:36:11Z</time>
      </trkpt>
      <trkpt lat="44.33927" lon="3.36207">
        <ele>482</ele>
        <time>2019-05-22T21:36:15Z</time>
      </trkpt>
      <trkpt lat="44.33938" lon="3.36266">
        <ele>473</ele>
        <time>2019-05-22T21:36:23Z</time>
      </trkpt>
      <trkpt lat="44.33941" lon="3.36278">
        <ele>472</ele>
        <time>2019-05-22T21:36:25Z</time>
      </trkpt>
      <trkpt lat="44.33949" lon="3.36294">
        <ele>473</ele>
        <time>2019-05-22T21:36:27Z</time>
      </trkpt>
      <trkpt lat="44.33962" lon="3.36305">
        <ele>474</ele>
        <time>2019-05-22T21:36:30Z</time>
      </trkpt>
      <trkpt lat="44.33981" lon="3.36315">
        <ele>476</ele>
        <time>2019-05-22T21:36:33Z</time>
      </trkpt>
      <trkpt lat="44.33994" lon="3.36328">
        <ele>475</ele>
        <time>2019-05-22T21:36:36Z</time>
      </trkpt>
      <trkpt lat="44.34001" lon="3.3634">
        <ele>474</ele>
        <time>2019-05-22T21:36:38Z</time>
      </trkpt>
      <trkpt lat="44.34015" lon="3.36375">
        <ele>474</ele>
        <time>2019-05-22T21:36:43Z</time>
      </trkpt>
      <trkpt lat="44.34022" lon="3.36388">
        <ele>474</ele>
        <time>2019-05-22T21:36:45Z</time>
      </trkpt>
      <trkpt lat="44.34094" lon="3.36496">
        <ele>473</ele>
        <time>2019-05-22T21:37:04Z</time>
      </trkpt>
      <trkpt lat="44.34106" lon="3.36512">
        <ele>475</ele>
        <time>2019-05-22T21:37:07Z</time>
      </trkpt>
      <trkpt lat="44.34131" lon="3.3654">
        <ele>480</ele>
        <time>2019-05-22T21:37:13Z</time>
      </trkpt>
      <trkpt lat="44.34138" lon="3.36553">
        <ele>479</ele>
        <time>2019-05-22T21:37:15Z</time>
      </trkpt>
      <trkpt lat="44.34159" lon="3.36583">
        <ele>476</ele>
        <time>2019-05-22T21:37:20Z</time>
      </trkpt>
      <trkpt lat="44.34186" lon="3.36611">
        <ele>483</ele>
        <time>2019-05-22T21:37:26Z</time>
      </trkpt>
      <trkpt lat="44.34215" lon="3.36652">
        <ele>489</ele>
        <time>2019-05-22T21:37:33Z</time>
      </trkpt>
      <trkpt lat="44.34244" lon="3.36705">
        <ele>486</ele>
        <time>2019-05-22T21:37:42Z</time>
      </trkpt>
      <trkpt lat="44.34284" lon="3.36798">
        <ele>482</ele>
        <time>2019-05-22T21:37:56Z</time>
      </trkpt>
      <trkpt lat="44.3429" lon="3.36822">
        <ele>481</ele>
        <time>2019-05-22T21:37:59Z</time>
      </trkpt>
      <trkpt lat="44.3431" lon="3.36919">
        <ele>479</ele>
        <time>2019-05-22T21:38:12Z</time>
      </trkpt>
      <trkpt lat="44.3431" lon="3.3696">
        <ele>478</ele>
        <time>2019-05-22T21:38:17Z</time>
      </trkpt>
      <trkpt lat="44.34313" lon="3.37005">
        <ele>478</ele>
        <time>2019-05-22T21:38:23Z</time>
      </trkpt>
      <trkpt lat="44.34314" lon="3.37054">
        <ele>480</ele>
        <time>2019-05-22T21:38:29Z</time>
      </trkpt>
      <trkpt lat="44.34312" lon="3.37086">
        <ele>481</ele>
        <time>2019-05-22T21:38:33Z</time>
      </trkpt>
      <trkpt lat="44.34304" lon="3.37135">
        <ele>485</ele>
        <time>2019-05-22T21:38:40Z</time>
      </trkpt>
      <trkpt lat="44.34298" lon="3.37192">
        <ele>490</ele>
        <time>2019-05-22T21:38:47Z</time>
      </trkpt>
      <trkpt lat="44.3428" lon="3.37249">
        <ele>486</ele>
        <time>2019-05-22T21:38:55Z</time>
      </trkpt>
      <trkpt lat="44.34254" lon="3.37284">
        <ele>476</ele>
        <time>2019-05-22T21:39:01Z</time>
      </trkpt>
      <trkpt lat="44.34237" lon="3.37321">
        <ele>477</ele>
        <time>2019-05-22T21:39:07Z</time>
      </trkpt>
      <trkpt lat="44.34221" lon="3.3735">
        <ele>481</ele>
        <time>2019-05-22T21:39:12Z</time>
      </trkpt>
      <trkpt lat="44.34197" lon="3.3738">
        <ele>482</ele>
        <time>2019-05-22T21:39:17Z</time>
      </trkpt>
      <trkpt lat="44.34145" lon="3.37462">
        <ele>489</ele>
        <time>2019-05-22T21:39:31Z</time>
      </trkpt>
      <trkpt lat="44.34137" lon="3.37468">
        <ele>489</ele>
        <time>2019-05-22T21:39:33Z</time>
      </trkpt>
      <trkpt lat="44.34095" lon="3.3749">
        <ele>478</ele>
        <time>2019-05-22T21:39:41Z</time>
      </trkpt>
      <trkpt lat="44.34051" lon="3.37532">
        <ele>479</ele>
        <time>2019-05-22T21:39:50Z</time>
      </trkpt>
      <trkpt lat="44.34044" lon="3.37542">
        <ele>479</ele>
        <time>2019-05-22T21:39:52Z</time>
      </trkpt>
      <trkpt lat="44.33954" lon="3.37702">
        <ele>485</ele>
        <time>2019-05-22T21:40:18Z</time>
      </trkpt>
      <trkpt lat="44.33907" lon="3.37807">
        <ele>490</ele>
        <time>2019-05-22T21:40:34Z</time>
      </trkpt>
      <trkpt lat="44.33893" lon="3.37827">
        <ele>490</ele>
        <time>2019-05-22T21:40:37Z</time>
      </trkpt>
      <trkpt lat="44.33796" lon="3.37941">
        <ele>497</ele>
        <time>2019-05-22T21:41:00Z</time>
      </trkpt>
      <trkpt lat="44.33759" lon="3.37976">
        <ele>491</ele>
        <time>2019-05-22T21:41:08Z</time>
      </trkpt>
      <trkpt lat="44.33732" lon="3.38011">
        <ele>494</ele>
        <time>2019-05-22T21:41:14Z</time>
      </trkpt>
      <trkpt lat="44.33713" lon="3.3803">
        <ele>498</ele>
        <time>2019-05-22T21:41:18Z</time>
      </trkpt>
      <trkpt lat="44.33672" lon="3.38069">
        <ele>502</ele>
        <time>2019-05-22T21:41:27Z</time>
      </trkpt>
      <trkpt lat="44.33619" lon="3.38104">
        <ele>490</ele>
        <time>2019-05-22T21:41:38Z</time>
      </trkpt>
      <trkpt lat="44.33574" lon="3.38146">
        <ele>484</ele>
        <time>2019-05-22T21:41:47Z</time>
      </trkpt>
      <trkpt lat="44.33568" lon="3.38154">
        <ele>484</ele>
        <time>2019-05-22T21:41:49Z</time>
      </trkpt>
      <trkpt lat="44.3356" lon="3.38174">
        <ele>484</ele>
        <time>2019-05-22T21:41:52Z</time>
      </trkpt>
      <trkpt lat="44.33556" lon="3.38203">
        <ele>481</ele>
        <time>2019-05-22T21:41:55Z</time>
      </trkpt>
      <trkpt lat="44.33556" lon="3.38225">
        <ele>480</ele>
        <time>2019-05-22T21:41:58Z</time>
      </trkpt>
      <trkpt lat="44.33557" lon="3.38239">
        <ele>480</ele>
        <time>2019-05-22T21:42:00Z</time>
      </trkpt>
      <trkpt lat="44.33562" lon="3.38255">
        <ele>480</ele>
        <time>2019-05-22T21:42:02Z</time>
      </trkpt>
      <trkpt lat="44.33568" lon="3.3827">
        <ele>479</ele>
        <time>2019-05-22T21:42:04Z</time>
      </trkpt>
      <trkpt lat="44.33573" lon="3.38277">
        <ele>479</ele>
        <time>2019-05-22T21:42:06Z</time>
      </trkpt>
      <trkpt lat="44.33581" lon="3.38282">
        <ele>479</ele>
        <time>2019-05-22T21:42:07Z</time>
      </trkpt>
      <trkpt lat="44.33598" lon="3.38283">
        <ele>478</ele>
        <time>2019-05-22T21:42:10Z</time>
      </trkpt>
      <trkpt lat="44.33605" lon="3.3828">
        <ele>479</ele>
        <time>2019-05-22T21:42:12Z</time>
      </trkpt>
      <trkpt lat="44.33611" lon="3.38272">
        <ele>480</ele>
        <time>2019-05-22T21:42:13Z</time>
      </trkpt>
      <trkpt lat="44.3363" lon="3.38225">
        <ele>493</ele>
        <time>2019-05-22T21:42:20Z</time>
      </trkpt>
      <trkpt lat="44.33634" lon="3.38215">
        <ele>497</ele>
        <time>2019-05-22T21:42:21Z</time>
      </trkpt>
      <trkpt lat="44.3364" lon="3.38207">
        <ele>501</ele>
        <time>2019-05-22T21:42:23Z</time>
      </trkpt>
      <trkpt lat="44.33676" lon="3.3818">
        <ele>521</ele>
        <time>2019-05-22T21:42:30Z</time>
      </trkpt>
      <trkpt lat="44.33687" lon="3.38174">
        <ele>523</ele>
        <time>2019-05-22T21:42:32Z</time>
      </trkpt>
      <trkpt lat="44.33703" lon="3.38168">
        <ele>525</ele>
        <time>2019-05-22T21:42:35Z</time>
      </trkpt>
      <trkpt lat="44.3372" lon="3.38165">
        <ele>524</ele>
        <time>2019-05-22T21:42:38Z</time>
      </trkpt>
      <trkpt lat="44.33747" lon="3.38165">
        <ele>521</ele>
        <time>2019-05-22T21:42:43Z</time>
      </trkpt>
      <trkpt lat="44.33813" lon="3.3818">
        <ele>521</ele>
        <time>2019-05-22T21:42:55Z</time>
      </trkpt>
      <trkpt lat="44.33826" lon="3.38186">
        <ele>519</ele>
        <time>2019-05-22T21:42:57Z</time>
      </trkpt>
      <trkpt lat="44.3384" lon="3.38198">
        <ele>514</ele>
        <time>2019-05-22T21:43:00Z</time>
      </trkpt>
      <trkpt lat="44.33875" lon="3.38244">
        <ele>499</ele>
        <time>2019-05-22T21:43:09Z</time>
      </trkpt>
      <trkpt lat="44.33891" lon="3.38255">
        <ele>501</ele>
        <time>2019-05-22T21:43:12Z</time>
      </trkpt>
      <trkpt lat="44.33905" lon="3.38272">
        <ele>501</ele>
        <time>2019-05-22T21:43:15Z</time>
      </trkpt>
      <trkpt lat="44.33913" lon="3.38284">
        <ele>499</ele>
        <time>2019-05-22T21:43:17Z</time>
      </trkpt>
      <trkpt lat="44.33944" lon="3.38347">
        <ele>489</ele>
        <time>2019-05-22T21:43:27Z</time>
      </trkpt>
      <trkpt lat="44.33967" lon="3.38387">
        <ele>491</ele>
        <time>2019-05-22T21:43:34Z</time>
      </trkpt>
      <trkpt lat="44.33978" lon="3.38418">
        <ele>487</ele>
        <time>2019-05-22T21:43:38Z</time>
      </trkpt>
      <trkpt lat="44.33984" lon="3.38429">
        <ele>487</ele>
        <time>2019-05-22T21:43:40Z</time>
      </trkpt>
      <trkpt lat="44.3401" lon="3.3847">
        <ele>489</ele>
        <time>2019-05-22T21:43:47Z</time>
      </trkpt>
      <trkpt lat="44.34037" lon="3.38502">
        <ele>498</ele>
        <time>2019-05-22T21:43:53Z</time>
      </trkpt>
      <trkpt lat="44.34123" lon="3.38592">
        <ele>502</ele>
        <time>2019-05-22T21:44:12Z</time>
      </trkpt>
      <trkpt lat="44.34149" lon="3.38624">
        <ele>501</ele>
        <time>2019-05-22T21:44:18Z</time>
      </trkpt>
      <trkpt lat="44.34155" lon="3.38633">
        <ele>500</ele>
        <time>2019-05-22T21:44:20Z</time>
      </trkpt>
      <trkpt lat="44.34166" lon="3.38664">
        <ele>489</ele>
        <time>2019-05-22T21:44:24Z</time>
      </trkpt>
      <trkpt lat="44.34195" lon="3.38767">
        <ele>481</ele>
        <time>2019-05-22T21:44:38Z</time>
      </trkpt>
      <trkpt lat="44.34195" lon="3.38767">
        <ele>481</ele>
        <time>2019-05-22T21:44:38Z</time>
      </trkpt>
      <trkpt lat="44.34216" lon="3.3882">
        <ele>479</ele>
        <time>2019-05-22T21:44:46Z</time>
      </trkpt>
      <trkpt lat="44.34227" lon="3.38839">
        <ele>479</ele>
        <time>2019-05-22T21:44:49Z</time>
      </trkpt>
      <trkpt lat="44.34263" lon="3.38861">
        <ele>481</ele>
        <time>2019-05-22T21:44:56Z</time>
      </trkpt>
      <trkpt lat="44.34277" lon="3.38865">
        <ele>482</ele>
        <time>2019-05-22T21:44:59Z</time>
      </trkpt>
      <trkpt lat="44.34309" lon="3.38858">
        <ele>489</ele>
        <time>2019-05-22T21:45:05Z</time>
      </trkpt>
      <trkpt lat="44.34323" lon="3.38862">
        <ele>489</ele>
        <time>2019-05-22T21:45:07Z</time>
      </trkpt>
      <trkpt lat="44.34339" lon="3.38859">
        <ele>492</ele>
        <time>2019-05-22T21:45:10Z</time>
      </trkpt>
      <trkpt lat="44.34384" lon="3.38864">
        <ele>495</ele>
        <time>2019-05-22T21:45:18Z</time>
      </trkpt>
      <trkpt lat="44.34399" lon="3.38873">
        <ele>493</ele>
        <time>2019-05-22T21:45:21Z</time>
      </trkpt>
      <trkpt lat="44.34414" lon="3.38899">
        <ele>485</ele>
        <time>2019-05-22T21:45:25Z</time>
      </trkpt>
      <trkpt lat="44.34419" lon="3.38903">
        <ele>485</ele>
        <time>2019-05-22T21:45:26Z</time>
      </trkpt>
      <trkpt lat="44.34432" lon="3.38909">
        <ele>486</ele>
        <time>2019-05-22T21:45:29Z</time>
      </trkpt>
      <trkpt lat="44.3446" lon="3.38912">
        <ele>493</ele>
        <time>2019-05-22T21:45:34Z</time>
      </trkpt>
      <trkpt lat="44.34485" lon="3.38919">
        <ele>498</ele>
        <time>2019-05-22T21:45:38Z</time>
      </trkpt>
      <trkpt lat="44.34501" lon="3.38932">
        <ele>497</ele>
        <time>2019-05-22T21:45:41Z</time>
      </trkpt>
      <trkpt lat="44.34516" lon="3.3894">
        <ele>500</ele>
        <time>2019-05-22T21:45:44Z</time>
      </trkpt>
      <trkpt lat="44.34523" lon="3.38948">
        <ele>500</ele>
        <time>2019-05-22T21:45:46Z</time>
      </trkpt>
      <trkpt lat="44.3453" lon="3.38959">
        <ele>498</ele>
        <time>2019-05-22T21:45:48Z</time>
      </trkpt>
      <trkpt lat="44.34573" lon="3.39036">
        <ele>492</ele>
        <time>2019-05-22T21:46:00Z</time>
      </trkpt>
      <trkpt lat="44.34574" lon="3.39055">
        <ele>489</ele>
        <time>2019-05-22T21:46:03Z</time>
      </trkpt>
      <trkpt lat="44.34571" lon="3.3911">
        <ele>484</ele>
        <time>2019-05-22T21:46:10Z</time>
      </trkpt>
      <trkpt lat="44.34557" lon="3.39194">
        <ele>481</ele>
        <time>2019-05-22T21:46:21Z</time>
      </trkpt>
      <trkpt lat="44.34551" lon="3.39261">
        <ele>483</ele>
        <time>2019-05-22T21:46:29Z</time>
      </trkpt>
      <trkpt lat="44.34535" lon="3.3932">
        <ele>480</ele>
        <time>2019-05-22T21:46:37Z</time>
      </trkpt>
      <trkpt lat="44.34532" lon="3.39339">
        <ele>479</ele>
        <time>2019-05-22T21:46:40Z</time>
      </trkpt>
      <trkpt lat="44.34535" lon="3.39361">
        <ele>480</ele>
        <time>2019-05-22T21:46:43Z</time>
      </trkpt>
      <trkpt lat="44.34544" lon="3.39389">
        <ele>481</ele>
        <time>2019-05-22T21:46:47Z</time>
      </trkpt>
      <trkpt lat="44.34581" lon="3.3947">
        <ele>482</ele>
        <time>2019-05-22T21:46:59Z</time>
      </trkpt>
      <trkpt lat="44.34599" lon="3.395">
        <ele>484</ele>
        <time>2019-05-22T21:47:04Z</time>
      </trkpt>
      <trkpt lat="44.34624" lon="3.39531">
        <ele>486</ele>
        <time>2019-05-22T21:47:10Z</time>
      </trkpt>
      <trkpt lat="44.34659" lon="3.39561">
        <ele>486</ele>
        <time>2019-05-22T21:47:17Z</time>
      </trkpt>
      <trkpt lat="44.34675" lon="3.3957">
        <ele>485</ele>
        <time>2019-05-22T21:47:20Z</time>
      </trkpt>
      <trkpt lat="44.34693" lon="3.39575">
        <ele>485</ele>
        <time>2019-05-22T21:47:23Z</time>
      </trkpt>
      <trkpt lat="44.3473" lon="3.39581">
        <ele>485</ele>
        <time>2019-05-22T21:47:30Z</time>
      </trkpt>
      <trkpt lat="44.3475" lon="3.39577">
        <ele>488</ele>
        <time>2019-05-22T21:47:34Z</time>
      </trkpt>
      <trkpt lat="44.34779" lon="3.39569">
        <ele>491</ele>
        <time>2019-05-22T21:47:39Z</time>
      </trkpt>
      <trkpt lat="44.34827" lon="3.39569">
        <ele>490</ele>
        <time>2019-05-22T21:47:47Z</time>
      </trkpt>
      <trkpt lat="44.34877" lon="3.39558">
        <ele>496</ele>
        <time>2019-05-22T21:47:56Z</time>
      </trkpt>
      <trkpt lat="44.34895" lon="3.39558">
        <ele>496</ele>
        <time>2019-05-22T21:48:00Z</time>
      </trkpt>
      <trkpt lat="44.34919" lon="3.39562">
        <ele>494</ele>
        <time>2019-05-22T21:48:04Z</time>
      </trkpt>
      <trkpt lat="44.34951" lon="3.39573">
        <ele>488</ele>
        <time>2019-05-22T21:48:10Z</time>
      </trkpt>
      <trkpt lat="44.34967" lon="3.39575">
        <ele>487</ele>
        <time>2019-05-22T21:48:13Z</time>
      </trkpt>
      <trkpt lat="44.34982" lon="3.39569">
        <ele>490</ele>
        <time>2019-05-22T21:48:15Z</time>
      </trkpt>
      <trkpt lat="44.35002" lon="3.39559">
        <ele>497</ele>
        <time>2019-05-22T21:48:19Z</time>
      </trkpt>
      <trkpt lat="44.3501" lon="3.39558">
        <ele>498</ele>
        <time>2019-05-22T21:48:21Z</time>
      </trkpt>
      <trkpt lat="44.35025" lon="3.3956">
        <ele>500</ele>
        <time>2019-05-22T21:48:23Z</time>
      </trkpt>
      <trkpt lat="44.35085" lon="3.39593">
        <ele>493</ele>
        <time>2019-05-22T21:48:35Z</time>
      </trkpt>
      <trkpt lat="44.35099" lon="3.39606">
        <ele>492</ele>
        <time>2019-05-22T21:48:38Z</time>
      </trkpt>
      <trkpt lat="44.35126" lon="3.39639">
        <ele>487</ele>
        <time>2019-05-22T21:48:44Z</time>
      </trkpt>
      <trkpt lat="44.35162" lon="3.39669">
        <ele>483</ele>
        <time>2019-05-22T21:48:52Z</time>
      </trkpt>
      <trkpt lat="44.35189" lon="3.39701">
        <ele>485</ele>
        <time>2019-05-22T21:48:58Z</time>
      </trkpt>
      <trkpt lat="44.35199" lon="3.39719">
        <ele>486</ele>
        <time>2019-05-22T21:49:01Z</time>
      </trkpt>
      <trkpt lat="44.35208" lon="3.3975">
        <ele>486</ele>
        <time>2019-05-22T21:49:05Z</time>
      </trkpt>
      <trkpt lat="44.35223" lon="3.39819">
        <ele>489</ele>
        <time>2019-05-22T21:49:14Z</time>
      </trkpt>
      <trkpt lat="44.35229" lon="3.39837">
        <ele>491</ele>
        <time>2019-05-22T21:49:17Z</time>
      </trkpt>
      <trkpt lat="44.3526" lon="3.39911">
        <ele>490</ele>
        <time>2019-05-22T21:49:28Z</time>
      </trkpt>
      <trkpt lat="44.35273" lon="3.39967">
        <ele>486</ele>
        <time>2019-05-22T21:49:35Z</time>
      </trkpt>
      <trkpt lat="44.35299" lon="3.40043">
        <ele>484</ele>
        <time>2019-05-22T21:49:46Z</time>
      </trkpt>
      <trkpt lat="44.35306" lon="3.40057">
        <ele>484</ele>
        <time>2019-05-22T21:49:48Z</time>
      </trkpt>
      <trkpt lat="44.35345" lon="3.40126">
        <ele>484</ele>
        <time>2019-05-22T21:49:59Z</time>
      </trkpt>
      <trkpt lat="44.35371" lon="3.40176">
        <ele>487</ele>
        <time>2019-05-22T21:50:07Z</time>
      </trkpt>
      <trkpt lat="44.35401" lon="3.40246">
        <ele>481</ele>
        <time>2019-05-22T21:50:17Z</time>
      </trkpt>
      <trkpt lat="44.35424" lon="3.40288">
        <ele>480</ele>
        <time>2019-05-22T21:50:24Z</time>
      </trkpt>
      <trkpt lat="44.35435" lon="3.40316">
        <ele>479</ele>
        <time>2019-05-22T21:50:28Z</time>
      </trkpt>
      <trkpt lat="44.35446" lon="3.40327">
        <ele>480</ele>
        <time>2019-05-22T21:50:31Z</time>
      </trkpt>
      <trkpt lat="44.35531" lon="3.40386">
        <ele>484</ele>
        <time>2019-05-22T21:50:48Z</time>
      </trkpt>
      <trkpt lat="44.3555" lon="3.40397">
        <ele>482</ele>
        <time>2019-05-22T21:50:51Z</time>
      </trkpt>
      <trkpt lat="44.35568" lon="3.40403">
        <ele>481</ele>
        <time>2019-05-22T21:50:54Z</time>
      </trkpt>
      <trkpt lat="44.35632" lon="3.40416">
        <ele>479</ele>
        <time>2019-05-22T21:51:06Z</time>
      </trkpt>
      <trkpt lat="44.35664" lon="3.40424">
        <ele>480</ele>
        <time>2019-05-22T21:51:12Z</time>
      </trkpt>
      <trkpt lat="44.35713" lon="3.40446">
        <ele>482</ele>
        <time>2019-05-22T21:51:21Z</time>
      </trkpt>
      <trkpt lat="44.35767" lon="3.4045">
        <ele>488</ele>
        <time>2019-05-22T21:51:31Z</time>
      </trkpt>
      <trkpt lat="44.35813" lon="3.40457">
        <ele>492</ele>
        <time>2019-05-22T21:51:39Z</time>
      </trkpt>
      <trkpt lat="44.35825" lon="3.4046">
        <ele>493</ele>
        <time>2019-05-22T21:51:41Z</time>
      </trkpt>
      <trkpt lat="44.35842" lon="3.4047">
        <ele>493</ele>
        <time>2019-05-22T21:51:44Z</time>
      </trkpt>
      <trkpt lat="44.35885" lon="3.40509">
        <ele>492</ele>
        <time>2019-05-22T21:51:53Z</time>
      </trkpt>
      <trkpt lat="44.35913" lon="3.40543">
        <ele>489</ele>
        <time>2019-05-22T21:52:00Z</time>
      </trkpt>
      <trkpt lat="44.3598" lon="3.40635">
        <ele>490</ele>
        <time>2019-05-22T21:52:17Z</time>
      </trkpt>
      <trkpt lat="44.35993" lon="3.40664">
        <ele>484</ele>
        <time>2019-05-22T21:52:21Z</time>
      </trkpt>
      <trkpt lat="44.36008" lon="3.40705">
        <ele>482</ele>
        <time>2019-05-22T21:52:27Z</time>
      </trkpt>
      <trkpt lat="44.36013" lon="3.40715">
        <ele>483</ele>
        <time>2019-05-22T21:52:28Z</time>
      </trkpt>
      <trkpt lat="44.36028" lon="3.40734">
        <ele>486</ele>
        <time>2019-05-22T21:52:32Z</time>
      </trkpt>
      <trkpt lat="44.36028" lon="3.40734">
        <ele>486</ele>
        <time>2019-05-22T21:52:32Z</time>
      </trkpt>
      <trkpt lat="44.36037" lon="3.40751">
        <ele>486</ele>
        <time>2019-05-22T21:52:35Z</time>
      </trkpt>
      <trkpt lat="44.36052" lon="3.40784">
        <ele>488</ele>
        <time>2019-05-22T21:52:40Z</time>
      </trkpt>
      <trkpt lat="44.36073" lon="3.40838">
        <ele>486</ele>
        <time>2019-05-22T21:52:47Z</time>
      </trkpt>
      <trkpt lat="44.36105" lon="3.40904">
        <ele>488</ele>
        <time>2019-05-22T21:52:58Z</time>
      </trkpt>
      <trkpt lat="44.3619" lon="3.411">
        <ele>483</ele>
        <time>2019-05-22T21:53:27Z</time>
      </trkpt>
      <trkpt lat="44.36201" lon="3.41118">
        <ele>482</ele>
        <time>2019-05-22T21:53:30Z</time>
      </trkpt>
      <trkpt lat="44.3623" lon="3.41155">
        <ele>478</ele>
        <time>2019-05-22T21:53:37Z</time>
      </trkpt>
      <trkpt lat="44.36243" lon="3.41165">
        <ele>477</ele>
        <time>2019-05-22T21:53:39Z</time>
      </trkpt>
      <trkpt lat="44.36252" lon="3.4117">
        <ele>476</ele>
        <time>2019-05-22T21:53:41Z</time>
      </trkpt>
      <trkpt lat="44.3626" lon="3.41172">
        <ele>475</ele>
        <time>2019-05-22T21:53:43Z</time>
      </trkpt>
      <trkpt lat="44.36274" lon="3.41171">
        <ele>474</ele>
        <time>2019-05-22T21:53:45Z</time>
      </trkpt>
      <trkpt lat="44.36284" lon="3.41165">
        <ele>473</ele>
        <time>2019-05-22T21:53:47Z</time>
      </trkpt>
      <trkpt lat="44.36298" lon="3.41153">
        <ele>474</ele>
        <time>2019-05-22T21:53:50Z</time>
      </trkpt>
      <trkpt lat="44.36301" lon="3.41145">
        <ele>475</ele>
        <time>2019-05-22T21:53:51Z</time>
      </trkpt>
      <trkpt lat="44.36306" lon="3.41119">
        <ele>479</ele>
        <time>2019-05-22T21:53:55Z</time>
      </trkpt>
      <trkpt lat="44.36306" lon="3.41096">
        <ele>483</ele>
        <time>2019-05-22T21:53:57Z</time>
      </trkpt>
      <trkpt lat="44.36303" lon="3.4107">
        <ele>491</ele>
        <time>2019-05-22T21:54:01Z</time>
      </trkpt>
      <trkpt lat="44.36304" lon="3.4106">
        <ele>493</ele>
        <time>2019-05-22T21:54:02Z</time>
      </trkpt>
      <trkpt lat="44.36312" lon="3.41041">
        <ele>497</ele>
        <time>2019-05-22T21:54:05Z</time>
      </trkpt>
      <trkpt lat="44.36391" lon="3.4094">
        <ele>499</ele>
        <time>2019-05-22T21:54:24Z</time>
      </trkpt>
      <trkpt lat="44.36397" lon="3.40931">
        <ele>497</ele>
        <time>2019-05-22T21:54:26Z</time>
      </trkpt>
      <trkpt lat="44.36405" lon="3.40926">
        <ele>494</ele>
        <time>2019-05-22T21:54:27Z</time>
      </trkpt>
      <trkpt lat="44.36431" lon="3.40919">
        <ele>487</ele>
        <time>2019-05-22T21:54:32Z</time>
      </trkpt>
      <trkpt lat="44.36456" lon="3.40918">
        <ele>486</ele>
        <time>2019-05-22T21:54:36Z</time>
      </trkpt>
      <trkpt lat="44.36477" lon="3.40922">
        <ele>484</ele>
        <time>2019-05-22T21:54:40Z</time>
      </trkpt>
      <trkpt lat="44.3649" lon="3.40931">
        <ele>482</ele>
        <time>2019-05-22T21:54:43Z</time>
      </trkpt>
      <trkpt lat="44.36505" lon="3.40948">
        <ele>478</ele>
        <time>2019-05-22T21:54:46Z</time>
      </trkpt>
      <trkpt lat="44.36525" lon="3.40958">
        <ele>479</ele>
        <time>2019-05-22T21:54:50Z</time>
      </trkpt>
      <trkpt lat="44.36535" lon="3.40969">
        <ele>478</ele>
        <time>2019-05-22T21:54:52Z</time>
      </trkpt>
      <trkpt lat="44.36542" lon="3.40988">
        <ele>475</ele>
        <time>2019-05-22T21:54:55Z</time>
      </trkpt>
      <trkpt lat="44.36556" lon="3.41029">
        <ele>474</ele>
        <time>2019-05-22T21:55:01Z</time>
      </trkpt>
      <trkpt lat="44.36585" lon="3.41006">
        <ele>477</ele>
        <time>2019-05-22T21:55:06Z</time>
      </trkpt>
      <trkpt lat="44.36596" lon="3.40995">
        <ele>479</ele>
        <time>2019-05-22T21:55:09Z</time>
      </trkpt>
      <trkpt lat="44.36596" lon="3.40986">
        <ele>482</ele>
        <time>2019-05-22T21:55:10Z</time>
      </trkpt>
      <trkpt lat="44.36591" lon="3.40985">
        <ele>481</ele>
        <time>2019-05-22T21:55:11Z</time>
      </trkpt>
      <trkpt lat="44.3659" lon="3.40982">
        <ele>482</ele>
        <time>2019-05-22T21:55:11Z</time>
      </trkpt>
      <trkpt lat="44.366" lon="3.40967">
        <ele>487</ele>
        <time>2019-05-22T21:55:14Z</time>
      </trkpt>
      <trkpt lat="44.36597" lon="3.40963">
        <ele>487</ele>
        <time>2019-05-22T21:55:15Z</time>
      </trkpt>
      <trkpt lat="44.36597" lon="3.40956">
        <ele>489</ele>
        <time>2019-05-22T21:55:16Z</time>
      </trkpt>
      <trkpt lat="44.36581" lon="3.40951">
        <ele>489</ele>
        <time>2019-05-22T21:55:19Z</time>
      </trkpt>
      <trkpt lat="44.36574" lon="3.40945">
        <ele>489</ele>
        <time>2019-05-22T21:55:20Z</time>
      </trkpt>
      <trkpt lat="44.36551" lon="3.40912">
        <ele>495</ele>
        <time>2019-05-22T21:55:26Z</time>
      </trkpt>
      <trkpt lat="44.36539" lon="3.40904">
        <ele>496</ele>
        <time>2019-05-22T21:55:28Z</time>
      </trkpt>
      <trkpt lat="44.36465" lon="3.40874">
        <ele>508</ele>
        <time>2019-05-22T21:55:42Z</time>
      </trkpt>
      <trkpt lat="44.36455" lon="3.40873">
        <ele>510</ele>
        <time>2019-05-22T21:55:44Z</time>
      </trkpt>
      <trkpt lat="44.36407" lon="3.40881">
        <ele>516</ele>
        <time>2019-05-22T21:55:52Z</time>
      </trkpt>
      <trkpt lat="44.36387" lon="3.40889">
        <ele>523</ele>
        <time>2019-05-22T21:55:56Z</time>
      </trkpt>
      <trkpt lat="44.36376" lon="3.40898">
        <ele>525</ele>
        <time>2019-05-22T21:55:58Z</time>
      </trkpt>
      <trkpt lat="44.3637" lon="3.40907">
        <ele>524</ele>
        <time>2019-05-22T21:56:00Z</time>
      </trkpt>
      <trkpt lat="44.36361" lon="3.40944">
        <ele>514</ele>
        <time>2019-05-22T21:56:05Z</time>
      </trkpt>
      <trkpt lat="44.36353" lon="3.40956">
        <ele>514</ele>
        <time>2019-05-22T21:56:07Z</time>
      </trkpt>
      <trkpt lat="44.36343" lon="3.40963">
        <ele>516</ele>
        <time>2019-05-22T21:56:09Z</time>
      </trkpt>
      <trkpt lat="44.3632" lon="3.40975">
        <ele>519</ele>
        <time>2019-05-22T21:56:13Z</time>
      </trkpt>
      <trkpt lat="44.36302" lon="3.40993">
        <ele>517</ele>
        <time>2019-05-22T21:56:17Z</time>
      </trkpt>
      <trkpt lat="44.36275" lon="3.41048">
        <ele>508</ele>
        <time>2019-05-22T21:56:26Z</time>
      </trkpt>
      <trkpt lat="44.36264" lon="3.41073">
        <ele>503</ele>
        <time>2019-05-22T21:56:29Z</time>
      </trkpt>
      <trkpt lat="44.36255" lon="3.41082">
        <ele>503</ele>
        <time>2019-05-22T21:56:31Z</time>
      </trkpt>
      <trkpt lat="44.36249" lon="3.41083">
        <ele>504</ele>
        <time>2019-05-22T21:56:32Z</time>
      </trkpt>
      <trkpt lat="44.36245" lon="3.41081">
        <ele>503</ele>
        <time>2019-05-22T21:56:33Z</time>
      </trkpt>
      <trkpt lat="44.36237" lon="3.41071">
        <ele>504</ele>
        <time>2019-05-22T21:56:35Z</time>
      </trkpt>
      <trkpt lat="44.3621" lon="3.40983">
        <ele>517</ele>
        <time>2019-05-22T21:56:47Z</time>
      </trkpt>
      <trkpt lat="44.36162" lon="3.40853">
        <ele>528</ele>
        <time>2019-05-22T21:57:06Z</time>
      </trkpt>
      <trkpt lat="44.36133" lon="3.40739">
        <ele>537</ele>
        <time>2019-05-22T21:57:21Z</time>
      </trkpt>
      <trkpt lat="44.36111" lon="3.40686">
        <ele>538</ele>
        <time>2019-05-22T21:57:29Z</time>
      </trkpt>
      <trkpt lat="44.36108" lon="3.40674">
        <ele>539</ele>
        <time>2019-05-22T21:57:31Z</time>
      </trkpt>
      <trkpt lat="44.36099" lon="3.40619">
        <ele>550</ele>
        <time>2019-05-22T21:57:38Z</time>
      </trkpt>
      <trkpt lat="44.36092" lon="3.40602">
        <ele>551</ele>
        <time>2019-05-22T21:57:40Z</time>
      </trkpt>
      <trkpt lat="44.36079" lon="3.4059">
        <ele>547</ele>
        <time>2019-05-22T21:57:43Z</time>
      </trkpt>
      <trkpt lat="44.36037" lon="3.40571">
        <ele>536</ele>
        <time>2019-05-22T21:57:51Z</time>
      </trkpt>
      <trkpt lat="44.36031" lon="3.40565">
        <ele>536</ele>
        <time>2019-05-22T21:57:52Z</time>
      </trkpt>
      <trkpt lat="44.36021" lon="3.40546">
        <ele>540</ele>
        <time>2019-05-22T21:57:55Z</time>
      </trkpt>
      <trkpt lat="44.36021" lon="3.40546">
        <ele>540</ele>
        <time>2019-05-22T21:57:55Z</time>
      </trkpt>
      <trkpt lat="44.36011" lon="3.40516">
        <ele>550</ele>
        <time>2019-05-22T21:58:00Z</time>
      </trkpt>
      <trkpt lat="44.36007" lon="3.40507">
        <ele>552</ele>
        <time>2019-05-22T21:58:01Z</time>
      </trkpt>
      <trkpt lat="44.35961" lon="3.40457">
        <ele>552</ele>
        <time>2019-05-22T21:58:11Z</time>
      </trkpt>
      <trkpt lat="44.35925" lon="3.40397">
        <ele>567</ele>
        <time>2019-05-22T21:58:21Z</time>
      </trkpt>
      <trkpt lat="44.35913" lon="3.40383">
        <ele>571</ele>
        <time>2019-05-22T21:58:24Z</time>
      </trkpt>
      <trkpt lat="44.35866" lon="3.40349">
        <ele>575</ele>
        <time>2019-05-22T21:58:33Z</time>
      </trkpt>
      <trkpt lat="44.35824" lon="3.40324">
        <ele>576</ele>
        <time>2019-05-22T21:58:42Z</time>
      </trkpt>
      <trkpt lat="44.35816" lon="3.40321">
        <ele>576</ele>
        <time>2019-05-22T21:58:43Z</time>
      </trkpt>
      <trkpt lat="44.35795" lon="3.4032">
        <ele>570</ele>
        <time>2019-05-22T21:58:47Z</time>
      </trkpt>
      <trkpt lat="44.35788" lon="3.40318">
        <ele>569</ele>
        <time>2019-05-22T21:58:48Z</time>
      </trkpt>
      <trkpt lat="44.35771" lon="3.40311">
        <ele>569</ele>
        <time>2019-05-22T21:58:51Z</time>
      </trkpt>
      <trkpt lat="44.35761" lon="3.40305">
        <ele>570</ele>
        <time>2019-05-22T21:58:53Z</time>
      </trkpt>
      <trkpt lat="44.35754" lon="3.40296">
        <ele>573</ele>
        <time>2019-05-22T21:58:55Z</time>
      </trkpt>
      <trkpt lat="44.35741" lon="3.40272">
        <ele>586</ele>
        <time>2019-05-22T21:58:59Z</time>
      </trkpt>
      <trkpt lat="44.35732" lon="3.40261">
        <ele>592</ele>
        <time>2019-05-22T21:59:01Z</time>
      </trkpt>
      <trkpt lat="44.35732" lon="3.40255">
        <ele>596</ele>
        <time>2019-05-22T21:59:02Z</time>
      </trkpt>
      <trkpt lat="44.35734" lon="3.4025">
        <ele>600</ele>
        <time>2019-05-22T21:59:02Z</time>
      </trkpt>
      <trkpt lat="44.35727" lon="3.40246">
        <ele>600</ele>
        <time>2019-05-22T21:59:04Z</time>
      </trkpt>
      <trkpt lat="44.35713" lon="3.40242">
        <ele>599</ele>
        <time>2019-05-22T21:59:06Z</time>
      </trkpt>
      <trkpt lat="44.35703" lon="3.40243">
        <ele>596</ele>
        <time>2019-05-22T21:59:08Z</time>
      </trkpt>
      <trkpt lat="44.35641" lon="3.40259">
        <ele>576</ele>
        <time>2019-05-22T21:59:19Z</time>
      </trkpt>
      <trkpt lat="44.35617" lon="3.4026">
        <ele>571</ele>
        <time>2019-05-22T21:59:23Z</time>
      </trkpt>
      <trkpt lat="44.35589" lon="3.40253">
        <ele>571</ele>
        <time>2019-05-22T21:59:28Z</time>
      </trkpt>
      <trkpt lat="44.35573" lon="3.40242">
        <ele>570</ele>
        <time>2019-05-22T21:59:32Z</time>
      </trkpt>
      <trkpt lat="44.35558" lon="3.40223">
        <ele>570</ele>
        <time>2019-05-22T21:59:35Z</time>
      </trkpt>
      <trkpt lat="44.35523" lon="3.40158">
        <ele>578</ele>
        <time>2019-05-22T21:59:46Z</time>
      </trkpt>
      <trkpt lat="44.35494" lon="3.40083">
        <ele>578</ele>
        <time>2019-05-22T21:59:56Z</time>
      </trkpt>
      <trkpt lat="44.35477" lon="3.40045">
        <ele>582</ele>
        <time>2019-05-22T22:00:02Z</time>
      </trkpt>
      <trkpt lat="44.35449" lon="3.39989">
        <ele>583</ele>
        <time>2019-05-22T22:00:11Z</time>
      </trkpt>
      <trkpt lat="44.35401" lon="3.39882">
        <ele>584</ele>
        <time>2019-05-22T22:00:27Z</time>
      </trkpt>
      <trkpt lat="44.35402" lon="3.39877">
        <ele>586</ele>
        <time>2019-05-22T22:00:28Z</time>
      </trkpt>
      <trkpt lat="44.35404" lon="3.39875">
        <ele>588</ele>
        <time>2019-05-22T22:00:28Z</time>
      </trkpt>
      <trkpt lat="44.35413" lon="3.39876">
        <ele>594</ele>
        <time>2019-05-22T22:00:30Z</time>
      </trkpt>
      <trkpt lat="44.35416" lon="3.39881">
        <ele>594</ele>
        <time>2019-05-22T22:00:30Z</time>
      </trkpt>
      <trkpt lat="44.35421" lon="3.39898">
        <ele>593</ele>
        <time>2019-05-22T22:00:33Z</time>
      </trkpt>
      <trkpt lat="44.3543" lon="3.3992">
        <ele>593</ele>
        <time>2019-05-22T22:00:36Z</time>
      </trkpt>
      <trkpt lat="44.3548" lon="3.40001">
        <ele>599</ele>
        <time>2019-05-22T22:00:50Z</time>
      </trkpt>
      <trkpt lat="44.35508" lon="3.40043">
        <ele>602</ele>
        <time>2019-05-22T22:00:57Z</time>
      </trkpt>
      <trkpt lat="44.35549" lon="3.40118">
        <ele>603</ele>
        <time>2019-05-22T22:01:09Z</time>
      </trkpt>
      <trkpt lat="44.35573" lon="3.40151">
        <ele>606</ele>
        <time>2019-05-22T22:01:15Z</time>
      </trkpt>
      <trkpt lat="44.35592" lon="3.40174">
        <ele>606</ele>
        <time>2019-05-22T22:01:19Z</time>
      </trkpt>
      <trkpt lat="44.35602" lon="3.40184">
        <ele>604</ele>
        <time>2019-05-22T22:01:22Z</time>
      </trkpt>
      <trkpt lat="44.35607" lon="3.40185">
        <ele>605</ele>
        <time>2019-05-22T22:01:22Z</time>
      </trkpt>
      <trkpt lat="44.3561" lon="3.40182">
        <ele>607</ele>
        <time>2019-05-22T22:01:23Z</time>
      </trkpt>
      <trkpt lat="44.35611" lon="3.40175">
        <ele>611</ele>
        <time>2019-05-22T22:01:24Z</time>
      </trkpt>
      <trkpt lat="44.3561" lon="3.40169">
        <ele>613</ele>
        <time>2019-05-22T22:01:25Z</time>
      </trkpt>
      <trkpt lat="44.35586" lon="3.40144">
        <ele>615</ele>
        <time>2019-05-22T22:01:30Z</time>
      </trkpt>
      <trkpt lat="44.35571" lon="3.40121">
        <ele>614</ele>
        <time>2019-05-22T22:01:34Z</time>
      </trkpt>
      <trkpt lat="44.35548" lon="3.40053">
        <ele>623</ele>
        <time>2019-05-22T22:01:44Z</time>
      </trkpt>
      <trkpt lat="44.35538" lon="3.40029">
        <ele>626</ele>
        <time>2019-05-22T22:01:47Z</time>
      </trkpt>
      <trkpt lat="44.35527" lon="3.40013">
        <ele>625</ele>
        <time>2019-05-22T22:01:50Z</time>
      </trkpt>
      <trkpt lat="44.35508" lon="3.39993">
        <ele>620</ele>
        <time>2019-05-22T22:01:54Z</time>
      </trkpt>
      <trkpt lat="44.355" lon="3.39981">
        <ele>620</ele>
        <time>2019-05-22T22:01:56Z</time>
      </trkpt>
      <trkpt lat="44.35479" lon="3.39912">
        <ele>630</ele>
        <time>2019-05-22T22:02:06Z</time>
      </trkpt>
      <trkpt lat="44.35448" lon="3.39835">
        <ele>630</ele>
        <time>2019-05-22T22:02:17Z</time>
      </trkpt>
      <trkpt lat="44.3544" lon="3.3979">
        <ele>627</ele>
        <time>2019-05-22T22:02:23Z</time>
      </trkpt>
      <trkpt lat="44.35439" lon="3.39779">
        <ele>627</ele>
        <time>2019-05-22T22:02:24Z</time>
      </trkpt>
      <trkpt lat="44.35441" lon="3.39769">
        <ele>628</ele>
        <time>2019-05-22T22:02:26Z</time>
      </trkpt>
      <trkpt lat="44.35504" lon="3.39555">
        <ele>637</ele>
        <time>2019-05-22T22:02:55Z</time>
      </trkpt>
      <trkpt lat="44.35519" lon="3.39516">
        <ele>638</ele>
        <time>2019-05-22T22:03:01Z</time>
      </trkpt>
      <trkpt lat="44.35537" lon="3.39484">
        <ele>640</ele>
        <time>2019-05-22T22:03:06Z</time>
      </trkpt>
      <trkpt lat="44.35554" lon="3.39461">
        <ele>642</ele>
        <time>2019-05-22T22:03:10Z</time>
      </trkpt>
      <trkpt lat="44.35583" lon="3.3943">
        <ele>649</ele>
        <time>2019-05-22T22:03:17Z</time>
      </trkpt>
      <trkpt lat="44.35629" lon="3.39386">
        <ele>652</ele>
        <time>2019-05-22T22:03:27Z</time>
      </trkpt>
      <trkpt lat="44.3565" lon="3.3937">
        <ele>653</ele>
        <time>2019-05-22T22:03:31Z</time>
      </trkpt>
      <trkpt lat="44.35691" lon="3.39349">
        <ele>660</ele>
        <time>2019-05-22T22:03:39Z</time>
      </trkpt>
      <trkpt lat="44.35713" lon="3.39333">
        <ele>662</ele>
        <time>2019-05-22T22:03:43Z</time>
      </trkpt>
      <trkpt lat="44.35735" lon="3.39313">
        <ele>664</ele>
        <time>2019-05-22T22:03:48Z</time>
      </trkpt>
      <trkpt lat="44.3577" lon="3.39273">
        <ele>662</ele>
        <time>2019-05-22T22:03:56Z</time>
      </trkpt>
      <trkpt lat="44.3577" lon="3.39273">
        <ele>662</ele>
        <time>2019-05-22T22:03:56Z</time>
      </trkpt>
      <trkpt lat="44.35792" lon="3.39248">
        <ele>660</ele>
        <time>2019-05-22T22:04:01Z</time>
      </trkpt>
      <trkpt lat="44.35828" lon="3.39225">
        <ele>668</ele>
        <time>2019-05-22T22:04:08Z</time>
      </trkpt>
      <trkpt lat="44.35907" lon="3.39195">
        <ele>683</ele>
        <time>2019-05-22T22:04:22Z</time>
      </trkpt>
      <trkpt lat="44.35937" lon="3.39189">
        <ele>688</ele>
        <time>2019-05-22T22:04:28Z</time>
      </trkpt>
      <trkpt lat="44.35949" lon="3.39184">
        <ele>689</ele>
        <time>2019-05-22T22:04:30Z</time>
      </trkpt>
      <trkpt lat="44.35955" lon="3.39178">
        <ele>689</ele>
        <time>2019-05-22T22:04:31Z</time>
      </trkpt>
      <trkpt lat="44.35959" lon="3.39171">
        <ele>688</ele>
        <time>2019-05-22T22:04:33Z</time>
      </trkpt>
      <trkpt lat="44.35961" lon="3.39158">
        <ele>690</ele>
        <time>2019-05-22T22:04:34Z</time>
      </trkpt>
      <trkpt lat="44.35958" lon="3.39147">
        <ele>692</ele>
        <time>2019-05-22T22:04:36Z</time>
      </trkpt>
      <trkpt lat="44.35954" lon="3.39138">
        <ele>694</ele>
        <time>2019-05-22T22:04:37Z</time>
      </trkpt>
      <trkpt lat="44.35947" lon="3.39134">
        <ele>693</ele>
        <time>2019-05-22T22:04:38Z</time>
      </trkpt>
      <trkpt lat="44.35917" lon="3.3913">
        <ele>689</ele>
        <time>2019-05-22T22:04:44Z</time>
      </trkpt>
      <trkpt lat="44.35825" lon="3.39112">
        <ele>682</ele>
        <time>2019-05-22T22:05:00Z</time>
      </trkpt>
      <trkpt lat="44.35804" lon="3.39105">
        <ele>683</ele>
        <time>2019-05-22T22:05:04Z</time>
      </trkpt>
      <trkpt lat="44.35782" lon="3.39094">
        <ele>685</ele>
        <time>2019-05-22T22:05:08Z</time>
      </trkpt>
      <trkpt lat="44.3574" lon="3.39055">
        <ele>699</ele>
        <time>2019-05-22T22:05:17Z</time>
      </trkpt>
      <trkpt lat="44.3573" lon="3.39053">
        <ele>701</ele>
        <time>2019-05-22T22:05:19Z</time>
      </trkpt>
      <trkpt lat="44.35721" lon="3.39054">
        <ele>703</ele>
        <time>2019-05-22T22:05:21Z</time>
      </trkpt>
      <trkpt lat="44.35717" lon="3.39057">
        <ele>703</ele>
        <time>2019-05-22T22:05:21Z</time>
      </trkpt>
      <trkpt lat="44.35694" lon="3.39104">
        <ele>691</ele>
        <time>2019-05-22T22:05:29Z</time>
      </trkpt>
      <trkpt lat="44.35671" lon="3.39126">
        <ele>687</ele>
        <time>2019-05-22T22:05:34Z</time>
      </trkpt>
      <trkpt lat="44.35655" lon="3.39133">
        <ele>686</ele>
        <time>2019-05-22T22:05:37Z</time>
      </trkpt>
      <trkpt lat="44.35647" lon="3.39135">
        <ele>686</ele>
        <time>2019-05-22T22:05:38Z</time>
      </trkpt>
      <trkpt lat="44.35502" lon="3.39124">
        <ele>703</ele>
        <time>2019-05-22T22:06:04Z</time>
      </trkpt>
      <trkpt lat="44.35477" lon="3.39125">
        <ele>705</ele>
        <time>2019-05-22T22:06:08Z</time>
      </trkpt>
      <trkpt lat="44.35419" lon="3.3914">
        <ele>705</ele>
        <time>2019-05-22T22:06:19Z</time>
      </trkpt>
      <trkpt lat="44.35402" lon="3.39141">
        <ele>708</ele>
        <time>2019-05-22T22:06:22Z</time>
      </trkpt>
      <trkpt lat="44.35363" lon="3.39137">
        <ele>719</ele>
        <time>2019-05-22T22:06:29Z</time>
      </trkpt>
      <trkpt lat="44.3535" lon="3.39144">
        <ele>719</ele>
        <time>2019-05-22T22:06:31Z</time>
      </trkpt>
      <trkpt lat="44.35323" lon="3.39178">
        <ele>712</ele>
        <time>2019-05-22T22:06:38Z</time>
      </trkpt>
      <trkpt lat="44.35295" lon="3.39196">
        <ele>711</ele>
        <time>2019-05-22T22:06:43Z</time>
      </trkpt>
      <trkpt lat="44.35265" lon="3.39211">
        <ele>712</ele>
        <time>2019-05-22T22:06:49Z</time>
      </trkpt>
      <trkpt lat="44.35232" lon="3.39223">
        <ele>711</ele>
        <time>2019-05-22T22:06:55Z</time>
      </trkpt>
      <trkpt lat="44.3521" lon="3.39223">
        <ele>712</ele>
        <time>2019-05-22T22:06:59Z</time>
      </trkpt>
      <trkpt lat="44.3519" lon="3.39221">
        <ele>714</ele>
        <time>2019-05-22T22:07:03Z</time>
      </trkpt>
      <trkpt lat="44.35167" lon="3.39213">
        <ele>718</ele>
        <time>2019-05-22T22:07:07Z</time>
      </trkpt>
      <trkpt lat="44.35009" lon="3.39146">
        <ele>723</ele>
        <time>2019-05-22T22:07:36Z</time>
      </trkpt>
      <trkpt lat="44.34999" lon="3.39138">
        <ele>723</ele>
        <time>2019-05-22T22:07:38Z</time>
      </trkpt>
      <trkpt lat="44.34993" lon="3.39131">
        <ele>722</ele>
        <time>2019-05-22T22:07:40Z</time>
      </trkpt>
      <trkpt lat="44.34989" lon="3.39118">
        <ele>724</ele>
        <time>2019-05-22T22:07:41Z</time>
      </trkpt>
      <trkpt lat="44.34982" lon="3.39073">
        <ele>733</ele>
        <time>2019-05-22T22:07:47Z</time>
      </trkpt>
      <trkpt lat="44.34973" lon="3.39043">
        <ele>735</ele>
        <time>2019-05-22T22:07:51Z</time>
      </trkpt>
      <trkpt lat="44.34959" lon="3.39019">
        <ele>733</ele>
        <time>2019-05-22T22:07:55Z</time>
      </trkpt>
      <trkpt lat="44.34941" lon="3.38995">
        <ele>728</ele>
        <time>2019-05-22T22:08:00Z</time>
      </trkpt>
      <trkpt lat="44.34932" lon="3.38971">
        <ele>731</ele>
        <time>2019-05-22T22:08:03Z</time>
      </trkpt>
      <trkpt lat="44.34926" lon="3.38943">
        <ele>737</ele>
        <time>2019-05-22T22:08:07Z</time>
      </trkpt>
      <trkpt lat="44.34916" lon="3.38916">
        <ele>741</ele>
        <time>2019-05-22T22:08:11Z</time>
      </trkpt>
      <trkpt lat="44.34902" lon="3.38891">
        <ele>742</ele>
        <time>2019-05-22T22:08:15Z</time>
      </trkpt>
      <trkpt lat="44.34874" lon="3.38861">
        <ele>736</ele>
        <time>2019-05-22T22:08:21Z</time>
      </trkpt>
      <trkpt lat="44.34867" lon="3.38852">
        <ele>735</ele>
        <time>2019-05-22T22:08:23Z</time>
      </trkpt>
      <trkpt lat="44.34836" lon="3.38779">
        <ele>743</ele>
        <time>2019-05-22T22:08:34Z</time>
      </trkpt>
      <trkpt lat="44.34824" lon="3.38733">
        <ele>752</ele>
        <time>2019-05-22T22:08:40Z</time>
      </trkpt>
      <trkpt lat="44.34807" lon="3.38712">
        <ele>751</ele>
        <time>2019-05-22T22:08:44Z</time>
      </trkpt>
      <trkpt lat="44.34786" lon="3.38668">
        <ele>758</ele>
        <time>2019-05-22T22:08:51Z</time>
      </trkpt>
      <trkpt lat="44.34773" lon="3.38656">
        <ele>757</ele>
        <time>2019-05-22T22:08:53Z</time>
      </trkpt>
      <trkpt lat="44.3471" lon="3.38621">
        <ele>746</ele>
        <time>2019-05-22T22:09:05Z</time>
      </trkpt>
      <trkpt lat="44.34689" lon="3.38605">
        <ele>743</ele>
        <time>2019-05-22T22:09:10Z</time>
      </trkpt>
      <trkpt lat="44.34682" lon="3.38595">
        <ele>744</ele>
        <time>2019-05-22T22:09:11Z</time>
      </trkpt>
      <trkpt lat="44.34673" lon="3.38575">
        <ele>749</ele>
        <time>2019-05-22T22:09:14Z</time>
      </trkpt>
      <trkpt lat="44.34658" lon="3.3851">
        <ele>767</ele>
        <time>2019-05-22T22:09:23Z</time>
      </trkpt>
      <trkpt lat="44.34654" lon="3.385">
        <ele>769</ele>
        <time>2019-05-22T22:09:25Z</time>
      </trkpt>
      <trkpt lat="44.34649" lon="3.38493">
        <ele>770</ele>
        <time>2019-05-22T22:09:26Z</time>
      </trkpt>
      <trkpt lat="44.34643" lon="3.3849">
        <ele>768</ele>
        <time>2019-05-22T22:09:27Z</time>
      </trkpt>
      <trkpt lat="44.34613" lon="3.38476">
        <ele>759</ele>
        <time>2019-05-22T22:09:33Z</time>
      </trkpt>
      <trkpt lat="44.34605" lon="3.3847">
        <ele>758</ele>
        <time>2019-05-22T22:09:34Z</time>
      </trkpt>
      <trkpt lat="44.34584" lon="3.38447">
        <ele>759</ele>
        <time>2019-05-22T22:09:39Z</time>
      </trkpt>
      <trkpt lat="44.34567" lon="3.38418">
        <ele>766</ele>
        <time>2019-05-22T22:09:44Z</time>
      </trkpt>
      <trkpt lat="44.34553" lon="3.38398">
        <ele>769</ele>
        <time>2019-05-22T22:09:47Z</time>
      </trkpt>
      <trkpt lat="44.34519" lon="3.3838">
        <ele>762</ele>
        <time>2019-05-22T22:09:54Z</time>
      </trkpt>
      <trkpt lat="44.34509" lon="3.38373">
        <ele>760</ele>
        <time>2019-05-22T22:09:56Z</time>
      </trkpt>
      <trkpt lat="44.34498" lon="3.38355">
        <ele>762</ele>
        <time>2019-05-22T22:09:59Z</time>
      </trkpt>
      <trkpt lat="44.34469" lon="3.38296">
        <ele>776</ele>
        <time>2019-05-22T22:10:08Z</time>
      </trkpt>
      <trkpt lat="44.34457" lon="3.38279">
        <ele>779</ele>
        <time>2019-05-22T22:10:11Z</time>
      </trkpt>
      <trkpt lat="44.34443" lon="3.38268">
        <ele>779</ele>
        <time>2019-05-22T22:10:14Z</time>
      </trkpt>
      <trkpt lat="44.344" lon="3.38256">
        <ele>769</ele>
        <time>2019-05-22T22:10:22Z</time>
      </trkpt>
      <trkpt lat="44.34387" lon="3.3825">
        <ele>767</ele>
        <time>2019-05-22T22:10:24Z</time>
      </trkpt>
      <trkpt lat="44.34377" lon="3.38243">
        <ele>765</ele>
        <time>2019-05-22T22:10:26Z</time>
      </trkpt>
      <trkpt lat="44.34368" lon="3.38233">
        <ele>764</ele>
        <time>2019-05-22T22:10:28Z</time>
      </trkpt>
      <trkpt lat="44.34361" lon="3.38221">
        <ele>765</ele>
        <time>2019-05-22T22:10:30Z</time>
      </trkpt>
      <trkpt lat="44.34356" lon="3.38207">
        <ele>766</ele>
        <time>2019-05-22T22:10:32Z</time>
      </trkpt>
      <trkpt lat="44.34353" lon="3.38192">
        <ele>769</ele>
        <time>2019-05-22T22:10:34Z</time>
      </trkpt>
      <trkpt lat="44.34345" lon="3.38125">
        <ele>780</ele>
        <time>2019-05-22T22:10:43Z</time>
      </trkpt>
      <trkpt lat="44.34337" lon="3.38087">
        <ele>783</ele>
        <time>2019-05-22T22:10:48Z</time>
      </trkpt>
      <trkpt lat="44.34324" lon="3.38054">
        <ele>783</ele>
        <time>2019-05-22T22:10:52Z</time>
      </trkpt>
      <trkpt lat="44.34295" lon="3.38002">
        <ele>778</ele>
        <time>2019-05-22T22:11:01Z</time>
      </trkpt>
      <trkpt lat="44.34291" lon="3.37993">
        <ele>775</ele>
        <time>2019-05-22T22:11:02Z</time>
      </trkpt>
      <trkpt lat="44.34291" lon="3.37984">
        <ele>774</ele>
        <time>2019-05-22T22:11:03Z</time>
      </trkpt>
      <trkpt lat="44.34294" lon="3.3797">
        <ele>772</ele>
        <time>2019-05-22T22:11:05Z</time>
      </trkpt>
      <trkpt lat="44.3431" lon="3.37952">
        <ele>776</ele>
        <time>2019-05-22T22:11:09Z</time>
      </trkpt>
      <trkpt lat="44.34327" lon="3.3794">
        <ele>780</ele>
        <time>2019-05-22T22:11:12Z</time>
      </trkpt>
      <trkpt lat="44.34388" lon="3.37909">
        <ele>792</ele>
        <time>2019-05-22T22:11:24Z</time>
      </trkpt>
      <trkpt lat="44.34414" lon="3.37889">
        <ele>792</ele>
        <time>2019-05-22T22:11:29Z</time>
      </trkpt>
      <trkpt lat="44.34444" lon="3.37859">
        <ele>794</ele>
        <time>2019-05-22T22:11:36Z</time>
      </trkpt>
      <trkpt lat="44.3446" lon="3.37841">
        <ele>795</ele>
        <time>2019-05-22T22:11:39Z</time>
      </trkpt>
      <trkpt lat="44.34479" lon="3.37815">
        <ele>795</ele>
        <time>2019-05-22T22:11:44Z</time>
      </trkpt>
      <trkpt lat="44.34514" lon="3.37759">
        <ele>797</ele>
        <time>2019-05-22T22:11:53Z</time>
      </trkpt>
      <trkpt lat="44.34526" lon="3.37736">
        <ele>797</ele>
        <time>2019-05-22T22:11:57Z</time>
      </trkpt>
      <trkpt lat="44.34547" lon="3.37683">
        <ele>794</ele>
        <time>2019-05-22T22:12:05Z</time>
      </trkpt>
      <trkpt lat="44.34557" lon="3.37667">
        <ele>795</ele>
        <time>2019-05-22T22:12:08Z</time>
      </trkpt>
      <trkpt lat="44.34567" lon="3.37655">
        <ele>796</ele>
        <time>2019-05-22T22:12:10Z</time>
      </trkpt>
      <trkpt lat="44.34599" lon="3.37623">
        <ele>804</ele>
        <time>2019-05-22T22:12:17Z</time>
      </trkpt>
      <trkpt lat="44.3461" lon="3.37601">
        <ele>803</ele>
        <time>2019-05-22T22:12:20Z</time>
      </trkpt>
      <trkpt lat="44.34626" lon="3.37562">
        <ele>802</ele>
        <time>2019-05-22T22:12:26Z</time>
      </trkpt>
      <trkpt lat="44.34626" lon="3.37562">
        <ele>802</ele>
        <time>2019-05-22T22:12:26Z</time>
      </trkpt>
      <trkpt lat="44.34657" lon="3.37501">
        <ele>807</ele>
        <time>2019-05-22T22:12:36Z</time>
      </trkpt>
      <trkpt lat="44.3466" lon="3.37489">
        <ele>808</ele>
        <time>2019-05-22T22:12:37Z</time>
      </trkpt>
      <trkpt lat="44.3466" lon="3.37478">
        <ele>806</ele>
        <time>2019-05-22T22:12:39Z</time>
      </trkpt>
      <trkpt lat="44.34655" lon="3.37443">
        <ele>798</ele>
        <time>2019-05-22T22:12:43Z</time>
      </trkpt>
      <trkpt lat="44.34655" lon="3.37429">
        <ele>797</ele>
        <time>2019-05-22T22:12:45Z</time>
      </trkpt>
      <trkpt lat="44.34661" lon="3.37406">
        <ele>797</ele>
        <time>2019-05-22T22:12:48Z</time>
      </trkpt>
      <trkpt lat="44.34684" lon="3.37363">
        <ele>800</ele>
        <time>2019-05-22T22:12:55Z</time>
      </trkpt>
      <trkpt lat="44.34702" lon="3.37319">
        <ele>797</ele>
        <time>2019-05-22T22:13:01Z</time>
      </trkpt>
      <trkpt lat="44.34708" lon="3.37309">
        <ele>797</ele>
        <time>2019-05-22T22:13:03Z</time>
      </trkpt>
      <trkpt lat="44.34712" lon="3.37303">
        <ele>797</ele>
        <time>2019-05-22T22:13:04Z</time>
      </trkpt>
      <trkpt lat="44.34727" lon="3.37293">
        <ele>802</ele>
        <time>2019-05-22T22:13:07Z</time>
      </trkpt>
      <trkpt lat="44.34797" lon="3.3727">
        <ele>818</ele>
        <time>2019-05-22T22:13:20Z</time>
      </trkpt>
      <trkpt lat="44.34809" lon="3.37263">
        <ele>819</ele>
        <time>2019-05-22T22:13:22Z</time>
      </trkpt>
      <trkpt lat="44.3482" lon="3.37249">
        <ele>820</ele>
        <time>2019-05-22T22:13:25Z</time>
      </trkpt>
      <trkpt lat="44.34825" lon="3.37231">
        <ele>820</ele>
        <time>2019-05-22T22:13:27Z</time>
      </trkpt>
      <trkpt lat="44.34826" lon="3.37182">
        <ele>818</ele>
        <time>2019-05-22T22:13:33Z</time>
      </trkpt>
      <trkpt lat="44.34823" lon="3.37157">
        <ele>816</ele>
        <time>2019-05-22T22:13:37Z</time>
      </trkpt>
      <trkpt lat="44.34811" lon="3.37109">
        <ele>810</ele>
        <time>2019-05-22T22:13:43Z</time>
      </trkpt>
      <trkpt lat="44.34809" lon="3.37092">
        <ele>809</ele>
        <time>2019-05-22T22:13:45Z</time>
      </trkpt>
      <trkpt lat="44.34809" lon="3.37062">
        <ele>810</ele>
        <time>2019-05-22T22:13:49Z</time>
      </trkpt>
      <trkpt lat="44.34829" lon="3.36934">
        <ele>822</ele>
        <time>2019-05-22T22:14:06Z</time>
      </trkpt>
      <trkpt lat="44.3483" lon="3.3691">
        <ele>823</ele>
        <time>2019-05-22T22:14:09Z</time>
      </trkpt>
      <trkpt lat="44.34819" lon="3.36868">
        <ele>821</ele>
        <time>2019-05-22T22:14:15Z</time>
      </trkpt>
      <trkpt lat="44.34814" lon="3.36842">
        <ele>820</ele>
        <time>2019-05-22T22:14:18Z</time>
      </trkpt>
      <trkpt lat="44.34816" lon="3.36796">
        <ele>824</ele>
        <time>2019-05-22T22:14:24Z</time>
      </trkpt>
      <trkpt lat="44.34821" lon="3.36768">
        <ele>827</ele>
        <time>2019-05-22T22:14:27Z</time>
      </trkpt>
      <trkpt lat="44.34825" lon="3.36755">
        <ele>829</ele>
        <time>2019-05-22T22:14:29Z</time>
      </trkpt>
      <trkpt lat="44.34833" lon="3.36742">
        <ele>831</ele>
        <time>2019-05-22T22:14:31Z</time>
      </trkpt>
      <trkpt lat="44.34846" lon="3.36727">
        <ele>830</ele>
        <time>2019-05-22T22:14:34Z</time>
      </trkpt>
      <trkpt lat="44.34915" lon="3.36663">
        <ele>831</ele>
        <time>2019-05-22T22:14:49Z</time>
      </trkpt>
      <trkpt lat="44.34928" lon="3.36645">
        <ele>830</ele>
        <time>2019-05-22T22:14:52Z</time>
      </trkpt>
      <trkpt lat="44.34939" lon="3.36624">
        <ele>829</ele>
        <time>2019-05-22T22:14:56Z</time>
      </trkpt>
      <trkpt lat="44.34947" lon="3.36595">
        <ele>828</ele>
        <time>2019-05-22T22:15:00Z</time>
      </trkpt>
      <trkpt lat="44.34949" lon="3.36574">
        <ele>828</ele>
        <time>2019-05-22T22:15:02Z</time>
      </trkpt>
      <trkpt lat="44.34948" lon="3.36548">
        <ele>828</ele>
        <time>2019-05-22T22:15:06Z</time>
      </trkpt>
      <trkpt lat="44.34927" lon="3.36432">
        <ele>825</ele>
        <time>2019-05-22T22:15:21Z</time>
      </trkpt>
      <trkpt lat="44.34923" lon="3.36413">
        <ele>825</ele>
        <time>2019-05-22T22:15:23Z</time>
      </trkpt>
      <trkpt lat="44.34915" lon="3.36397">
        <ele>824</ele>
        <time>2019-05-22T22:15:26Z</time>
      </trkpt>
      <trkpt lat="44.34906" lon="3.36385">
        <ele>823</ele>
        <time>2019-05-22T22:15:28Z</time>
      </trkpt>
      <trkpt lat="44.3488" lon="3.36363">
        <ele>822</ele>
        <time>2019-05-22T22:15:34Z</time>
      </trkpt>
      <trkpt lat="44.34869" lon="3.36349">
        <ele>821</ele>
        <time>2019-05-22T22:15:36Z</time>
      </trkpt>
      <trkpt lat="44.34864" lon="3.36333">
        <ele>822</ele>
        <time>2019-05-22T22:15:38Z</time>
      </trkpt>
      <trkpt lat="44.34864" lon="3.36317">
        <ele>822</ele>
        <time>2019-05-22T22:15:40Z</time>
      </trkpt>
      <trkpt lat="44.34867" lon="3.36302">
        <ele>821</ele>
        <time>2019-05-22T22:15:42Z</time>
      </trkpt>
      <trkpt lat="44.34875" lon="3.3629">
        <ele>821</ele>
        <time>2019-05-22T22:15:45Z</time>
      </trkpt>
      <trkpt lat="44.34885" lon="3.36282">
        <ele>821</ele>
        <time>2019-05-22T22:15:47Z</time>
      </trkpt>
      <trkpt lat="44.34927" lon="3.36265">
        <ele>821</ele>
        <time>2019-05-22T22:15:54Z</time>
      </trkpt>
      <trkpt lat="44.34941" lon="3.36255">
        <ele>821</ele>
        <time>2019-05-22T22:15:57Z</time>
      </trkpt>
      <trkpt lat="44.34997" lon="3.36201">
        <ele>816</ele>
        <time>2019-05-22T22:16:09Z</time>
      </trkpt>
      <trkpt lat="44.35005" lon="3.3619">
        <ele>816</ele>
        <time>2019-05-22T22:16:11Z</time>
      </trkpt>
      <trkpt lat="44.35011" lon="3.36181">
        <ele>815</ele>
        <time>2019-05-22T22:16:13Z</time>
      </trkpt>
      <trkpt lat="44.3502" lon="3.36158">
        <ele>814</ele>
        <time>2019-05-22T22:16:16Z</time>
      </trkpt>
      <trkpt lat="44.35054" lon="3.36026">
        <ele>814</ele>
        <time>2019-05-22T22:16:34Z</time>
      </trkpt>
      <trkpt lat="44.35069" lon="3.35988">
        <ele>816</ele>
        <time>2019-05-22T22:16:40Z</time>
      </trkpt>
      <trkpt lat="44.351" lon="3.35936">
        <ele>819</ele>
        <time>2019-05-22T22:16:48Z</time>
      </trkpt>
      <trkpt lat="44.35109" lon="3.35911">
        <ele>821</ele>
        <time>2019-05-22T22:16:52Z</time>
      </trkpt>
      <trkpt lat="44.35126" lon="3.35819">
        <ele>822</ele>
        <time>2019-05-22T22:17:04Z</time>
      </trkpt>
      <trkpt lat="44.3513" lon="3.35772">
        <ele>820</ele>
        <time>2019-05-22T22:17:10Z</time>
      </trkpt>
      <trkpt lat="44.3513" lon="3.35732">
        <ele>816</ele>
        <time>2019-05-22T22:17:15Z</time>
      </trkpt>
      <trkpt lat="44.35131" lon="3.3571">
        <ele>814</ele>
        <time>2019-05-22T22:17:18Z</time>
      </trkpt>
      <trkpt lat="44.3514" lon="3.35686">
        <ele>813</ele>
        <time>2019-05-22T22:17:21Z</time>
      </trkpt>
      <trkpt lat="44.35151" lon="3.35664">
        <ele>812</ele>
        <time>2019-05-22T22:17:25Z</time>
      </trkpt>
      <trkpt lat="44.3518" lon="3.3564">
        <ele>813</ele>
        <time>2019-05-22T22:17:31Z</time>
      </trkpt>
      <trkpt lat="44.35223" lon="3.35624">
        <ele>814</ele>
        <time>2019-05-22T22:17:38Z</time>
      </trkpt>
      <trkpt lat="44.35237" lon="3.35617">
        <ele>814</ele>
        <time>2019-05-22T22:17:41Z</time>
      </trkpt>
      <trkpt lat="44.3525" lon="3.35606">
        <ele>814</ele>
        <time>2019-05-22T22:17:44Z</time>
      </trkpt>
      <trkpt lat="44.35292" lon="3.35547">
        <ele>813</ele>
        <time>2019-05-22T22:17:54Z</time>
      </trkpt>
      <trkpt lat="44.353" lon="3.35531">
        <ele>812</ele>
        <time>2019-05-22T22:17:57Z</time>
      </trkpt>
      <trkpt lat="44.35308" lon="3.35501">
        <ele>809</ele>
        <time>2019-05-22T22:18:01Z</time>
      </trkpt>
      <trkpt lat="44.35323" lon="3.3547">
        <ele>809</ele>
        <time>2019-05-22T22:18:06Z</time>
      </trkpt>
      <trkpt lat="44.35334" lon="3.35456">
        <ele>809</ele>
        <time>2019-05-22T22:18:08Z</time>
      </trkpt>
      <trkpt lat="44.35389" lon="3.354">
        <ele>812</ele>
        <time>2019-05-22T22:18:20Z</time>
      </trkpt>
      <trkpt lat="44.35414" lon="3.35381">
        <ele>813</ele>
        <time>2019-05-22T22:18:26Z</time>
      </trkpt>
      <trkpt lat="44.35464" lon="3.35356">
        <ele>815</ele>
        <time>2019-05-22T22:18:35Z</time>
      </trkpt>
      <trkpt lat="44.35496" lon="3.35351">
        <ele>817</ele>
        <time>2019-05-22T22:18:41Z</time>
      </trkpt>
      <trkpt lat="44.35517" lon="3.35352">
        <ele>818</ele>
        <time>2019-05-22T22:18:44Z</time>
      </trkpt>
      <trkpt lat="44.35638" lon="3.35364">
        <ele>820</ele>
        <time>2019-05-22T22:19:06Z</time>
      </trkpt>
      <trkpt lat="44.35704" lon="3.35367">
        <ele>822</ele>
        <time>2019-05-22T22:19:18Z</time>
      </trkpt>
      <trkpt lat="44.35878" lon="3.35416">
        <ele>830</ele>
        <time>2019-05-22T22:19:49Z</time>
      </trkpt>
      <trkpt lat="44.35963" lon="3.35448">
        <ele>837</ele>
        <time>2019-05-22T22:20:05Z</time>
      </trkpt>
      <trkpt lat="44.35977" lon="3.35448">
        <ele>837</ele>
        <time>2019-05-22T22:20:08Z</time>
      </trkpt>
      <trkpt lat="44.35996" lon="3.35444">
        <ele>838</ele>
        <time>2019-05-22T22:20:11Z</time>
      </trkpt>
      <trkpt lat="44.36064" lon="3.3542">
        <ele>841</ele>
        <time>2019-05-22T22:20:23Z</time>
      </trkpt>
      <trkpt lat="44.36093" lon="3.35405">
        <ele>843</ele>
        <time>2019-05-22T22:20:29Z</time>
      </trkpt>
      <trkpt lat="44.36301" lon="3.35284">
        <ele>855</ele>
        <time>2019-05-22T22:21:09Z</time>
      </trkpt>
      <trkpt lat="44.36386" lon="3.35241">
        <ele>859</ele>
        <time>2019-05-22T22:21:25Z</time>
      </trkpt>
      <trkpt lat="44.36457" lon="3.35201">
        <ele>863</ele>
        <time>2019-05-22T22:21:39Z</time>
      </trkpt>
      <trkpt lat="44.36481" lon="3.35191">
        <ele>865</ele>
        <time>2019-05-22T22:21:43Z</time>
      </trkpt>
      <trkpt lat="44.36507" lon="3.35187">
        <ele>866</ele>
        <time>2019-05-22T22:21:48Z</time>
      </trkpt>
      <trkpt lat="44.36547" lon="3.35189">
        <ele>867</ele>
        <time>2019-05-22T22:21:55Z</time>
      </trkpt>
      <trkpt lat="44.36592" lon="3.35185">
        <ele>868</ele>
        <time>2019-05-22T22:22:03Z</time>
      </trkpt>
      <trkpt lat="44.36621" lon="3.35174">
        <ele>868</ele>
        <time>2019-05-22T22:22:08Z</time>
      </trkpt>
      <trkpt lat="44.36648" lon="3.3516">
        <ele>867</ele>
        <time>2019-05-22T22:22:13Z</time>
      </trkpt>
      <trkpt lat="44.36704" lon="3.3511">
        <ele>864</ele>
        <time>2019-05-22T22:22:25Z</time>
      </trkpt>
      <trkpt lat="44.36722" lon="3.35091">
        <ele>863</ele>
        <time>2019-05-22T22:22:29Z</time>
      </trkpt>
      <trkpt lat="44.3673" lon="3.35073">
        <ele>863</ele>
        <time>2019-05-22T22:22:32Z</time>
      </trkpt>
      <trkpt lat="44.36746" lon="3.35017">
        <ele>862</ele>
        <time>2019-05-22T22:22:40Z</time>
      </trkpt>
      <trkpt lat="44.36758" lon="3.34983">
        <ele>861</ele>
        <time>2019-05-22T22:22:44Z</time>
      </trkpt>
      <trkpt lat="44.36777" lon="3.34957">
        <ele>860</ele>
        <time>2019-05-22T22:22:49Z</time>
      </trkpt>
      <trkpt lat="44.36801" lon="3.34943">
        <ele>860</ele>
        <time>2019-05-22T22:22:54Z</time>
      </trkpt>
      <trkpt lat="44.36864" lon="3.34914">
        <ele>858</ele>
        <time>2019-05-22T22:23:06Z</time>
      </trkpt>
      <trkpt lat="44.36881" lon="3.349">
        <ele>858</ele>
        <time>2019-05-22T22:23:09Z</time>
      </trkpt>
      <trkpt lat="44.36965" lon="3.34793">
        <ele>864</ele>
        <time>2019-05-22T22:23:29Z</time>
      </trkpt>
      <trkpt lat="44.36982" lon="3.34768">
        <ele>865</ele>
        <time>2019-05-22T22:23:34Z</time>
      </trkpt>
      <trkpt lat="44.36985" lon="3.34751">
        <ele>865</ele>
        <time>2019-05-22T22:23:36Z</time>
      </trkpt>
      <trkpt lat="44.36986" lon="3.34734">
        <ele>865</ele>
        <time>2019-05-22T22:23:38Z</time>
      </trkpt>
      <trkpt lat="44.36982" lon="3.347">
        <ele>864</ele>
        <time>2019-05-22T22:23:43Z</time>
      </trkpt>
      <trkpt lat="44.36956" lon="3.3461">
        <ele>863</ele>
        <time>2019-05-22T22:23:55Z</time>
      </trkpt>
      <trkpt lat="44.36952" lon="3.34593">
        <ele>863</ele>
        <time>2019-05-22T22:23:57Z</time>
      </trkpt>
      <trkpt lat="44.36951" lon="3.34579">
        <ele>864</ele>
        <time>2019-05-22T22:23:59Z</time>
      </trkpt>
      <trkpt lat="44.36951" lon="3.34564">
        <ele>865</ele>
        <time>2019-05-22T22:24:01Z</time>
      </trkpt>
      <trkpt lat="44.3696" lon="3.34503">
        <ele>870</ele>
        <time>2019-05-22T22:24:09Z</time>
      </trkpt>
      <trkpt lat="44.36961" lon="3.34486">
        <ele>870</ele>
        <time>2019-05-22T22:24:11Z</time>
      </trkpt>
      <trkpt lat="44.36959" lon="3.34467">
        <ele>871</ele>
        <time>2019-05-22T22:24:13Z</time>
      </trkpt>
      <trkpt lat="44.36949" lon="3.34416">
        <ele>871</ele>
        <time>2019-05-22T22:24:20Z</time>
      </trkpt>
      <trkpt lat="44.36949" lon="3.34398">
        <ele>871</ele>
        <time>2019-05-22T22:24:22Z</time>
      </trkpt>
      <trkpt lat="44.36951" lon="3.34381">
        <ele>872</ele>
        <time>2019-05-22T22:24:25Z</time>
      </trkpt>
      <trkpt lat="44.36964" lon="3.34349">
        <ele>874</ele>
        <time>2019-05-22T22:24:29Z</time>
      </trkpt>
      <trkpt lat="44.36985" lon="3.34316">
        <ele>875</ele>
        <time>2019-05-22T22:24:35Z</time>
      </trkpt>
      <trkpt lat="44.37099" lon="3.34195">
        <ele>881</ele>
        <time>2019-05-22T22:25:00Z</time>
      </trkpt>
      <trkpt lat="44.37151" lon="3.34091">
        <ele>880</ele>
        <time>2019-05-22T22:25:16Z</time>
      </trkpt>
      <trkpt lat="44.37239" lon="3.33956">
        <ele>890</ele>
        <time>2019-05-22T22:25:40Z</time>
      </trkpt>
      <trkpt lat="44.37315" lon="3.33852">
        <ele>898</ele>
        <time>2019-05-22T22:25:59Z</time>
      </trkpt>
      <trkpt lat="44.37325" lon="3.33828">
        <ele>898</ele>
        <time>2019-05-22T22:26:02Z</time>
      </trkpt>
      <trkpt lat="44.3733" lon="3.33802">
        <ele>898</ele>
        <time>2019-05-22T22:26:06Z</time>
      </trkpt>
      <trkpt lat="44.37332" lon="3.33741">
        <ele>897</ele>
        <time>2019-05-22T22:26:13Z</time>
      </trkpt>
      <trkpt lat="44.37339" lon="3.33698">
        <ele>898</ele>
        <time>2019-05-22T22:26:19Z</time>
      </trkpt>
      <trkpt lat="44.37401" lon="3.33566">
        <ele>900</ele>
        <time>2019-05-22T22:26:39Z</time>
      </trkpt>
      <trkpt lat="44.3741" lon="3.33539">
        <ele>899</ele>
        <time>2019-05-22T22:26:43Z</time>
      </trkpt>
      <trkpt lat="44.37414" lon="3.335">
        <ele>897</ele>
        <time>2019-05-22T22:26:48Z</time>
      </trkpt>
      <trkpt lat="44.37393" lon="3.33354">
        <ele>902</ele>
        <time>2019-05-22T22:27:07Z</time>
      </trkpt>
      <trkpt lat="44.37392" lon="3.33314">
        <ele>902</ele>
        <time>2019-05-22T22:27:12Z</time>
      </trkpt>
      <trkpt lat="44.37401" lon="3.33273">
        <ele>902</ele>
        <time>2019-05-22T22:27:17Z</time>
      </trkpt>
      <trkpt lat="44.37421" lon="3.33238">
        <ele>904</ele>
        <time>2019-05-22T22:27:23Z</time>
      </trkpt>
      <trkpt lat="44.37516" lon="3.3314">
        <ele>906</ele>
        <time>2019-05-22T22:27:44Z</time>
      </trkpt>
      <trkpt lat="44.37539" lon="3.33108">
        <ele>905</ele>
        <time>2019-05-22T22:27:50Z</time>
      </trkpt>
      <trkpt lat="44.37553" lon="3.33067">
        <ele>906</ele>
        <time>2019-05-22T22:27:56Z</time>
      </trkpt>
      <trkpt lat="44.37557" lon="3.33039">
        <ele>907</ele>
        <time>2019-05-22T22:27:59Z</time>
      </trkpt>
      <trkpt lat="44.37559" lon="3.33004">
        <ele>908</ele>
        <time>2019-05-22T22:28:04Z</time>
      </trkpt>
      <trkpt lat="44.37569" lon="3.3296">
        <ele>908</ele>
        <time>2019-05-22T22:28:10Z</time>
      </trkpt>
      <trkpt lat="44.37601" lon="3.32884">
        <ele>910</ele>
        <time>2019-05-22T22:28:21Z</time>
      </trkpt>
      <trkpt lat="44.37642" lon="3.32798">
        <ele>913</ele>
        <time>2019-05-22T22:28:34Z</time>
      </trkpt>
      <trkpt lat="44.37656" lon="3.32762">
        <ele>915</ele>
        <time>2019-05-22T22:28:39Z</time>
      </trkpt>
      <trkpt lat="44.37662" lon="3.3273">
        <ele>916</ele>
        <time>2019-05-22T22:28:43Z</time>
      </trkpt>
      <trkpt lat="44.37662" lon="3.32703">
        <ele>917</ele>
        <time>2019-05-22T22:28:47Z</time>
      </trkpt>
      <trkpt lat="44.3766" lon="3.32685">
        <ele>918</ele>
        <time>2019-05-22T22:28:49Z</time>
      </trkpt>
      <trkpt lat="44.37647" lon="3.32626">
        <ele>919</ele>
        <time>2019-05-22T22:28:57Z</time>
      </trkpt>
      <trkpt lat="44.37646" lon="3.32604">
        <ele>920</ele>
        <time>2019-05-22T22:29:00Z</time>
      </trkpt>
      <trkpt lat="44.37648" lon="3.32579">
        <ele>919</ele>
        <time>2019-05-22T22:29:03Z</time>
      </trkpt>
      <trkpt lat="44.37656" lon="3.32552">
        <ele>917</ele>
        <time>2019-05-22T22:29:07Z</time>
      </trkpt>
      <trkpt lat="44.37693" lon="3.3246">
        <ele>916</ele>
        <time>2019-05-22T22:29:20Z</time>
      </trkpt>
      <trkpt lat="44.37697" lon="3.32407">
        <ele>911</ele>
        <time>2019-05-22T22:29:27Z</time>
      </trkpt>
      <trkpt lat="44.3768" lon="3.32342">
        <ele>906</ele>
        <time>2019-05-22T22:29:36Z</time>
      </trkpt>
      <trkpt lat="44.3768" lon="3.32321">
        <ele>904</ele>
        <time>2019-05-22T22:29:38Z</time>
      </trkpt>
      <trkpt lat="44.37684" lon="3.32304">
        <ele>904</ele>
        <time>2019-05-22T22:29:41Z</time>
      </trkpt>
      <trkpt lat="44.37692" lon="3.32284">
        <ele>903</ele>
        <time>2019-05-22T22:29:44Z</time>
      </trkpt>
      <trkpt lat="44.37708" lon="3.3227">
        <ele>902</ele>
        <time>2019-05-22T22:29:47Z</time>
      </trkpt>
      <trkpt lat="44.37723" lon="3.32267">
        <ele>903</ele>
        <time>2019-05-22T22:29:50Z</time>
      </trkpt>
      <trkpt lat="44.37738" lon="3.3227">
        <ele>904</ele>
        <time>2019-05-22T22:29:52Z</time>
      </trkpt>
      <trkpt lat="44.37751" lon="3.32278">
        <ele>905</ele>
        <time>2019-05-22T22:29:55Z</time>
      </trkpt>
      <trkpt lat="44.37784" lon="3.32317">
        <ele>907</ele>
        <time>2019-05-22T22:30:03Z</time>
      </trkpt>
      <trkpt lat="44.37802" lon="3.32321">
        <ele>906</ele>
        <time>2019-05-22T22:30:06Z</time>
      </trkpt>
      <trkpt lat="44.37819" lon="3.32321">
        <ele>904</ele>
        <time>2019-05-22T22:30:09Z</time>
      </trkpt>
      <trkpt lat="44.37859" lon="3.32301">
        <ele>901</ele>
        <time>2019-05-22T22:30:16Z</time>
      </trkpt>
      <trkpt lat="44.37966" lon="3.3224">
        <ele>895</ele>
        <time>2019-05-22T22:30:37Z</time>
      </trkpt>
      <trkpt lat="44.3798" lon="3.32226">
        <ele>895</ele>
        <time>2019-05-22T22:30:40Z</time>
      </trkpt>
      <trkpt lat="44.37988" lon="3.32207">
        <ele>894</ele>
        <time>2019-05-22T22:30:43Z</time>
      </trkpt>
      <trkpt lat="44.37993" lon="3.32182">
        <ele>892</ele>
        <time>2019-05-22T22:30:46Z</time>
      </trkpt>
      <trkpt lat="44.3799" lon="3.32155">
        <ele>890</ele>
        <time>2019-05-22T22:30:50Z</time>
      </trkpt>
      <trkpt lat="44.37975" lon="3.32092">
        <ele>886</ele>
        <time>2019-05-22T22:30:58Z</time>
      </trkpt>
      <trkpt lat="44.37978" lon="3.32071">
        <ele>884</ele>
        <time>2019-05-22T22:31:01Z</time>
      </trkpt>
      <trkpt lat="44.37984" lon="3.32053">
        <ele>883</ele>
        <time>2019-05-22T22:31:03Z</time>
      </trkpt>
      <trkpt lat="44.38" lon="3.32034">
        <ele>881</ele>
        <time>2019-05-22T22:31:07Z</time>
      </trkpt>
      <trkpt lat="44.38085" lon="3.32008">
        <ele>882</ele>
        <time>2019-05-22T22:31:22Z</time>
      </trkpt>
      <trkpt lat="44.38112" lon="3.31993">
        <ele>881</ele>
        <time>2019-05-22T22:31:28Z</time>
      </trkpt>
      <trkpt lat="44.38165" lon="3.31943">
        <ele>875</ele>
        <time>2019-05-22T22:31:39Z</time>
      </trkpt>
      <trkpt lat="44.38235" lon="3.31791">
        <ele>864</ele>
        <time>2019-05-22T22:32:02Z</time>
      </trkpt>
      <trkpt lat="44.38275" lon="3.31738">
        <ele>860</ele>
        <time>2019-05-22T22:32:12Z</time>
      </trkpt>
      <trkpt lat="44.38322" lon="3.31695">
        <ele>858</ele>
        <time>2019-05-22T22:32:22Z</time>
      </trkpt>
      <trkpt lat="44.3833" lon="3.31678">
        <ele>856</ele>
        <time>2019-05-22T22:32:24Z</time>
      </trkpt>
      <trkpt lat="44.38334" lon="3.31661">
        <ele>854</ele>
        <time>2019-05-22T22:32:27Z</time>
      </trkpt>
      <trkpt lat="44.38339" lon="3.31601">
        <ele>852</ele>
        <time>2019-05-22T22:32:34Z</time>
      </trkpt>
      <trkpt lat="44.38356" lon="3.31556">
        <ele>854</ele>
        <time>2019-05-22T22:32:41Z</time>
      </trkpt>
      <trkpt lat="44.3836" lon="3.31525">
        <ele>853</ele>
        <time>2019-05-22T22:32:45Z</time>
      </trkpt>
      <trkpt lat="44.38358" lon="3.31482">
        <ele>850</ele>
        <time>2019-05-22T22:32:50Z</time>
      </trkpt>
      <trkpt lat="44.3836" lon="3.31453">
        <ele>848</ele>
        <time>2019-05-22T22:32:54Z</time>
      </trkpt>
      <trkpt lat="44.38368" lon="3.31421">
        <ele>848</ele>
        <time>2019-05-22T22:32:58Z</time>
      </trkpt>
      <trkpt lat="44.38385" lon="3.31376">
        <ele>847</ele>
        <time>2019-05-22T22:33:05Z</time>
      </trkpt>
      <trkpt lat="44.38394" lon="3.31346">
        <ele>845</ele>
        <time>2019-05-22T22:33:09Z</time>
      </trkpt>
      <trkpt lat="44.38397" lon="3.31317">
        <ele>843</ele>
        <time>2019-05-22T22:33:13Z</time>
      </trkpt>
      <trkpt lat="44.38393" lon="3.31227">
        <ele>835</ele>
        <time>2019-05-22T22:33:24Z</time>
      </trkpt>
      <trkpt lat="44.38404" lon="3.31189">
        <ele>833</ele>
        <time>2019-05-22T22:33:29Z</time>
      </trkpt>
      <trkpt lat="44.38404" lon="3.31189">
        <ele>833</ele>
        <time>2019-05-22T22:33:29Z</time>
      </trkpt>
      <trkpt lat="44.38427" lon="3.31138">
        <ele>831</ele>
        <time>2019-05-22T22:33:37Z</time>
      </trkpt>
      <trkpt lat="44.38433" lon="3.31114">
        <ele>830</ele>
        <time>2019-05-22T22:33:40Z</time>
      </trkpt>
      <trkpt lat="44.38436" lon="3.3109">
        <ele>828</ele>
        <time>2019-05-22T22:33:43Z</time>
      </trkpt>
      <trkpt lat="44.38436" lon="3.30967">
        <ele>823</ele>
        <time>2019-05-22T22:33:59Z</time>
      </trkpt>
      <trkpt lat="44.38441" lon="3.3092">
        <ele>821</ele>
        <time>2019-05-22T22:34:05Z</time>
      </trkpt>
      <trkpt lat="44.38452" lon="3.30876">
        <ele>821</ele>
        <time>2019-05-22T22:34:11Z</time>
      </trkpt>
      <trkpt lat="44.38475" lon="3.30826">
        <ele>820</ele>
        <time>2019-05-22T22:34:18Z</time>
      </trkpt>
      <trkpt lat="44.38483" lon="3.30804">
        <ele>819</ele>
        <time>2019-05-22T22:34:22Z</time>
      </trkpt>
      <trkpt lat="44.38486" lon="3.30782">
        <ele>820</ele>
        <time>2019-05-22T22:34:24Z</time>
      </trkpt>
      <trkpt lat="44.38487" lon="3.30725">
        <ele>820</ele>
        <time>2019-05-22T22:34:32Z</time>
      </trkpt>
      <trkpt lat="44.38499" lon="3.30696">
        <ele>820</ele>
        <time>2019-05-22T22:34:36Z</time>
      </trkpt>
      <trkpt lat="44.38537" lon="3.30648">
        <ele>819</ele>
        <time>2019-05-22T22:34:45Z</time>
      </trkpt>
      <trkpt lat="44.38593" lon="3.30514">
        <ele>817</ele>
        <time>2019-05-22T22:35:05Z</time>
      </trkpt>
      <trkpt lat="44.38619" lon="3.30481">
        <ele>817</ele>
        <time>2019-05-22T22:35:11Z</time>
      </trkpt>
      <trkpt lat="44.38676" lon="3.30447">
        <ele>816</ele>
        <time>2019-05-22T22:35:22Z</time>
      </trkpt>
      <trkpt lat="44.38715" lon="3.30427">
        <ele>816</ele>
        <time>2019-05-22T22:35:29Z</time>
      </trkpt>
      <trkpt lat="44.388" lon="3.30393">
        <ele>816</ele>
        <time>2019-05-22T22:35:45Z</time>
      </trkpt>
      <trkpt lat="44.38828" lon="3.30374">
        <ele>815</ele>
        <time>2019-05-22T22:35:51Z</time>
      </trkpt>
      <trkpt lat="44.38862" lon="3.30337">
        <ele>815</ele>
        <time>2019-05-22T22:35:58Z</time>
      </trkpt>
      <trkpt lat="44.3892" lon="3.30236">
        <ele>811</ele>
        <time>2019-05-22T22:36:15Z</time>
      </trkpt>
      <trkpt lat="44.38935" lon="3.30215">
        <ele>811</ele>
        <time>2019-05-22T22:36:19Z</time>
      </trkpt>
      <trkpt lat="44.38952" lon="3.30199">
        <ele>811</ele>
        <time>2019-05-22T22:36:22Z</time>
      </trkpt>
      <trkpt lat="44.39016" lon="3.30168">
        <ele>810</ele>
        <time>2019-05-22T22:36:34Z</time>
      </trkpt>
      <trkpt lat="44.39048" lon="3.30137">
        <ele>811</ele>
        <time>2019-05-22T22:36:41Z</time>
      </trkpt>
      <trkpt lat="44.39065" lon="3.30109">
        <ele>810</ele>
        <time>2019-05-22T22:36:46Z</time>
      </trkpt>
      <trkpt lat="44.39114" lon="3.30001">
        <ele>809</ele>
        <time>2019-05-22T22:37:02Z</time>
      </trkpt>
      <trkpt lat="44.39241" lon="3.29807">
        <ele>809</ele>
        <time>2019-05-22T22:37:36Z</time>
      </trkpt>
      <trkpt lat="44.39286" lon="3.29778">
        <ele>809</ele>
        <time>2019-05-22T22:37:44Z</time>
      </trkpt>
      <trkpt lat="44.39327" lon="3.29772">
        <ele>810</ele>
        <time>2019-05-22T22:37:52Z</time>
      </trkpt>
      <trkpt lat="44.39375" lon="3.29788">
        <ele>813</ele>
        <time>2019-05-22T22:38:01Z</time>
      </trkpt>
      <trkpt lat="44.39398" lon="3.29789">
        <ele>814</ele>
        <time>2019-05-22T22:38:05Z</time>
      </trkpt>
      <trkpt lat="44.39418" lon="3.29784">
        <ele>813</ele>
        <time>2019-05-22T22:38:08Z</time>
      </trkpt>
      <trkpt lat="44.39437" lon="3.29773">
        <ele>812</ele>
        <time>2019-05-22T22:38:12Z</time>
      </trkpt>
      <trkpt lat="44.39497" lon="3.29725">
        <ele>811</ele>
        <time>2019-05-22T22:38:24Z</time>
      </trkpt>
      <trkpt lat="44.3954" lon="3.29703">
        <ele>809</ele>
        <time>2019-05-22T22:38:32Z</time>
      </trkpt>
      <trkpt lat="44.39598" lon="3.2966">
        <ele>806</ele>
        <time>2019-05-22T22:38:44Z</time>
      </trkpt>
      <trkpt lat="44.39614" lon="3.29653">
        <ele>806</ele>
        <time>2019-05-22T22:38:47Z</time>
      </trkpt>
      <trkpt lat="44.39706" lon="3.29651">
        <ele>809</ele>
        <time>2019-05-22T22:39:03Z</time>
      </trkpt>
      <trkpt lat="44.39743" lon="3.2964">
        <ele>810</ele>
        <time>2019-05-22T22:39:10Z</time>
      </trkpt>
      <trkpt lat="44.39855" lon="3.29603">
        <ele>809</ele>
        <time>2019-05-22T22:39:31Z</time>
      </trkpt>
      <trkpt lat="44.39932" lon="3.29548">
        <ele>806</ele>
        <time>2019-05-22T22:39:46Z</time>
      </trkpt>
      <trkpt lat="44.40061" lon="3.29481">
        <ele>805</ele>
        <time>2019-05-22T22:40:11Z</time>
      </trkpt>
      <trkpt lat="44.40068" lon="3.29475">
        <ele>805</ele>
        <time>2019-05-22T22:40:12Z</time>
      </trkpt>
      <trkpt lat="44.40079" lon="3.29459">
        <ele>805</ele>
        <time>2019-05-22T22:40:15Z</time>
      </trkpt>
      <trkpt lat="44.40086" lon="3.29428">
        <ele>805</ele>
        <time>2019-05-22T22:40:19Z</time>
      </trkpt>
      <trkpt lat="44.40089" lon="3.29377">
        <ele>804</ele>
        <time>2019-05-22T22:40:25Z</time>
      </trkpt>
      <trkpt lat="44.40087" lon="3.29337">
        <ele>801</ele>
        <time>2019-05-22T22:40:31Z</time>
      </trkpt>
      <trkpt lat="44.4008" lon="3.29296">
        <ele>799</ele>
        <time>2019-05-22T22:40:36Z</time>
      </trkpt>
      <trkpt lat="44.40046" lon="3.29315">
        <ele>802</ele>
        <time>2019-05-22T22:40:42Z</time>
      </trkpt>
      <trkpt lat="44.40013" lon="3.29327">
        <ele>803</ele>
        <time>2019-05-22T22:40:48Z</time>
      </trkpt>
      <trkpt lat="44.39989" lon="3.29332">
        <ele>803</ele>
        <time>2019-05-22T22:40:53Z</time>
      </trkpt>
      <trkpt lat="44.39973" lon="3.29331">
        <ele>804</ele>
        <time>2019-05-22T22:40:56Z</time>
      </trkpt>
      <trkpt lat="44.39905" lon="3.29309">
        <ele>807</ele>
        <time>2019-05-22T22:41:08Z</time>
      </trkpt>
      <trkpt lat="44.39877" lon="3.29306">
        <ele>809</ele>
        <time>2019-05-22T22:41:13Z</time>
      </trkpt>
      <trkpt lat="44.39818" lon="3.29304">
        <ele>814</ele>
        <time>2019-05-22T22:41:24Z</time>
      </trkpt>
      <trkpt lat="44.39757" lon="3.29313">
        <ele>820</ele>
        <time>2019-05-22T22:41:34Z</time>
      </trkpt>
      <trkpt lat="44.39719" lon="3.2931">
        <ele>822</ele>
        <time>2019-05-22T22:41:41Z</time>
      </trkpt>
      <trkpt lat="44.39691" lon="3.29306">
        <ele>824</ele>
        <time>2019-05-22T22:41:46Z</time>
      </trkpt>
      <trkpt lat="44.39653" lon="3.29293">
        <ele>825</ele>
        <time>2019-05-22T22:41:53Z</time>
      </trkpt>
      <trkpt lat="44.39633" lon="3.29282">
        <ele>825</ele>
        <time>2019-05-22T22:41:57Z</time>
      </trkpt>
      <trkpt lat="44.39608" lon="3.29257">
        <ele>826</ele>
        <time>2019-05-22T22:42:03Z</time>
      </trkpt>
      <trkpt lat="44.3958" lon="3.29221">
        <ele>829</ele>
        <time>2019-05-22T22:42:09Z</time>
      </trkpt>
      <trkpt lat="44.39552" lon="3.29192">
        <ele>832</ele>
        <time>2019-05-22T22:42:15Z</time>
      </trkpt>
      <trkpt lat="44.39517" lon="3.29173">
        <ele>834</ele>
        <time>2019-05-22T22:42:22Z</time>
      </trkpt>
      <trkpt lat="44.39489" lon="3.29163">
        <ele>836</ele>
        <time>2019-05-22T22:42:27Z</time>
      </trkpt>
      <trkpt lat="44.39424" lon="3.29162">
        <ele>844</ele>
        <time>2019-05-22T22:42:39Z</time>
      </trkpt>
      <trkpt lat="44.39382" lon="3.29155">
        <ele>847</ele>
        <time>2019-05-22T22:42:46Z</time>
      </trkpt>
      <trkpt lat="44.39343" lon="3.29135">
        <ele>849</ele>
        <time>2019-05-22T22:42:54Z</time>
      </trkpt>
      <trkpt lat="44.39281" lon="3.29091">
        <ele>854</ele>
        <time>2019-05-22T22:43:06Z</time>
      </trkpt>
      <trkpt lat="44.39237" lon="3.29064">
        <ele>855</ele>
        <time>2019-05-22T22:43:15Z</time>
      </trkpt>
      <trkpt lat="44.39163" lon="3.29038">
        <ele>857</ele>
        <time>2019-05-22T22:43:28Z</time>
      </trkpt>
      <trkpt lat="44.39145" lon="3.29037">
        <ele>859</ele>
        <time>2019-05-22T22:43:31Z</time>
      </trkpt>
      <trkpt lat="44.39122" lon="3.2905">
        <ele>862</ele>
        <time>2019-05-22T22:43:36Z</time>
      </trkpt>
      <trkpt lat="44.39105" lon="3.29075">
        <ele>864</ele>
        <time>2019-05-22T22:43:40Z</time>
      </trkpt>
      <trkpt lat="44.39085" lon="3.29118">
        <ele>862</ele>
        <time>2019-05-22T22:43:47Z</time>
      </trkpt>
      <trkpt lat="44.3907" lon="3.29139">
        <ele>862</ele>
        <time>2019-05-22T22:43:51Z</time>
      </trkpt>
      <trkpt lat="44.39057" lon="3.29148">
        <ele>861</ele>
        <time>2019-05-22T22:43:53Z</time>
      </trkpt>
      <trkpt lat="44.39042" lon="3.29154">
        <ele>861</ele>
        <time>2019-05-22T22:43:56Z</time>
      </trkpt>
      <trkpt lat="44.39024" lon="3.29154">
        <ele>862</ele>
        <time>2019-05-22T22:43:59Z</time>
      </trkpt>
      <trkpt lat="44.39011" lon="3.2915">
        <ele>864</ele>
        <time>2019-05-22T22:44:01Z</time>
      </trkpt>
      <trkpt lat="44.38988" lon="3.29131">
        <ele>866</ele>
        <time>2019-05-22T22:44:06Z</time>
      </trkpt>
      <trkpt lat="44.38971" lon="3.29102">
        <ele>869</ele>
        <time>2019-05-22T22:44:11Z</time>
      </trkpt>
      <trkpt lat="44.38948" lon="3.29045">
        <ele>877</ele>
        <time>2019-05-22T22:44:19Z</time>
      </trkpt>
      <trkpt lat="44.38928" lon="3.29011">
        <ele>881</ele>
        <time>2019-05-22T22:44:25Z</time>
      </trkpt>
      <trkpt lat="44.38913" lon="3.28992">
        <ele>885</ele>
        <time>2019-05-22T22:44:29Z</time>
      </trkpt>
      <trkpt lat="44.38891" lon="3.28975">
        <ele>889</ele>
        <time>2019-05-22T22:44:33Z</time>
      </trkpt>
      <trkpt lat="44.38873" lon="3.28969">
        <ele>891</ele>
        <time>2019-05-22T22:44:36Z</time>
      </trkpt>
      <trkpt lat="44.38842" lon="3.28964">
        <ele>892</ele>
        <time>2019-05-22T22:44:42Z</time>
      </trkpt>
      <trkpt lat="44.38821" lon="3.28955">
        <ele>896</ele>
        <time>2019-05-22T22:44:46Z</time>
      </trkpt>
      <trkpt lat="44.38798" lon="3.28942">
        <ele>900</ele>
        <time>2019-05-22T22:44:50Z</time>
      </trkpt>
      <trkpt lat="44.38778" lon="3.28918">
        <ele>905</ele>
        <time>2019-05-22T22:44:55Z</time>
      </trkpt>
      <trkpt lat="44.38761" lon="3.28885">
        <ele>907</ele>
        <time>2019-05-22T22:45:00Z</time>
      </trkpt>
      <trkpt lat="44.38712" lon="3.28706">
        <ele>909</ele>
        <time>2019-05-22T22:45:24Z</time>
      </trkpt>
      <trkpt lat="44.38694" lon="3.28665">
        <ele>907</ele>
        <time>2019-05-22T22:45:31Z</time>
      </trkpt>
      <trkpt lat="44.38648" lon="3.28605">
        <ele>904</ele>
        <time>2019-05-22T22:45:42Z</time>
      </trkpt>
      <trkpt lat="44.38611" lon="3.28547">
        <ele>902</ele>
        <time>2019-05-22T22:45:52Z</time>
      </trkpt>
      <trkpt lat="44.38593" lon="3.28501">
        <ele>901</ele>
        <time>2019-05-22T22:45:58Z</time>
      </trkpt>
      <trkpt lat="44.38582" lon="3.28455">
        <ele>900</ele>
        <time>2019-05-22T22:46:04Z</time>
      </trkpt>
      <trkpt lat="44.38571" lon="3.28419">
        <ele>899</ele>
        <time>2019-05-22T22:46:09Z</time>
      </trkpt>
      <trkpt lat="44.38545" lon="3.28367">
        <ele>899</ele>
        <time>2019-05-22T22:46:17Z</time>
      </trkpt>
      <trkpt lat="44.38485" lon="3.283">
        <ele>903</ele>
        <time>2019-05-22T22:46:31Z</time>
      </trkpt>
      <trkpt lat="44.38347" lon="3.28159">
        <ele>907</ele>
        <time>2019-05-22T22:47:02Z</time>
      </trkpt>
      <trkpt lat="44.38202" lon="3.28057">
        <ele>902</ele>
        <time>2019-05-22T22:47:30Z</time>
      </trkpt>
      <trkpt lat="44.38172" lon="3.28029">
        <ele>901</ele>
        <time>2019-05-22T22:47:37Z</time>
      </trkpt>
      <trkpt lat="44.38152" lon="3.27998">
        <ele>898</ele>
        <time>2019-05-22T22:47:42Z</time>
      </trkpt>
      <trkpt lat="44.38137" lon="3.27961">
        <ele>896</ele>
        <time>2019-05-22T22:47:48Z</time>
      </trkpt>
      <trkpt lat="44.38105" lon="3.27842">
        <ele>888</ele>
        <time>2019-05-22T22:48:04Z</time>
      </trkpt>
      <trkpt lat="44.38089" lon="3.27812">
        <ele>885</ele>
        <time>2019-05-22T22:48:08Z</time>
      </trkpt>
      <trkpt lat="44.38029" lon="3.27752">
        <ele>877</ele>
        <time>2019-05-22T22:48:22Z</time>
      </trkpt>
      <trkpt lat="44.38017" lon="3.27734">
        <ele>875</ele>
        <time>2019-05-22T22:48:25Z</time>
      </trkpt>
      <trkpt lat="44.38008" lon="3.27713">
        <ele>874</ele>
        <time>2019-05-22T22:48:28Z</time>
      </trkpt>
      <trkpt lat="44.38002" lon="3.27686">
        <ele>873</ele>
        <time>2019-05-22T22:48:31Z</time>
      </trkpt>
      <trkpt lat="44.37997" lon="3.27636">
        <ele>874</ele>
        <time>2019-05-22T22:48:38Z</time>
      </trkpt>
      <trkpt lat="44.37989" lon="3.27603">
        <ele>873</ele>
        <time>2019-05-22T22:48:42Z</time>
      </trkpt>
      <trkpt lat="44.37975" lon="3.27576">
        <ele>871</ele>
        <time>2019-05-22T22:48:47Z</time>
      </trkpt>
      <trkpt lat="44.37959" lon="3.27556">
        <ele>867</ele>
        <time>2019-05-22T22:48:50Z</time>
      </trkpt>
      <trkpt lat="44.37926" lon="3.27531">
        <ele>860</ele>
        <time>2019-05-22T22:48:57Z</time>
      </trkpt>
      <trkpt lat="44.37902" lon="3.27504">
        <ele>859</ele>
        <time>2019-05-22T22:49:03Z</time>
      </trkpt>
      <trkpt lat="44.3786" lon="3.27438">
        <ele>854</ele>
        <time>2019-05-22T22:49:14Z</time>
      </trkpt>
      <trkpt lat="44.37839" lon="3.27417">
        <ele>851</ele>
        <time>2019-05-22T22:49:18Z</time>
      </trkpt>
      <trkpt lat="44.37814" lon="3.27401">
        <ele>848</ele>
        <time>2019-05-22T22:49:23Z</time>
      </trkpt>
      <trkpt lat="44.37778" lon="3.27383">
        <ele>845</ele>
        <time>2019-05-22T22:49:30Z</time>
      </trkpt>
      <trkpt lat="44.37747" lon="3.27359">
        <ele>843</ele>
        <time>2019-05-22T22:49:36Z</time>
      </trkpt>
      <trkpt lat="44.37706" lon="3.27306">
        <ele>844</ele>
        <time>2019-05-22T22:49:46Z</time>
      </trkpt>
      <trkpt lat="44.37644" lon="3.27217">
        <ele>852</ele>
        <time>2019-05-22T22:50:02Z</time>
      </trkpt>
      <trkpt lat="44.37633" lon="3.27188">
        <ele>854</ele>
        <time>2019-05-22T22:50:06Z</time>
      </trkpt>
      <trkpt lat="44.37619" lon="3.27135">
        <ele>856</ele>
        <time>2019-05-22T22:50:13Z</time>
      </trkpt>
      <trkpt lat="44.37575" lon="3.27061">
        <ele>854</ele>
        <time>2019-05-22T22:50:26Z</time>
      </trkpt>
      <trkpt lat="44.37515" lon="3.26968">
        <ele>844</ele>
        <time>2019-05-22T22:50:42Z</time>
      </trkpt>
      <trkpt lat="44.375" lon="3.26937">
        <ele>841</ele>
        <time>2019-05-22T22:50:46Z</time>
      </trkpt>
      <trkpt lat="44.37498" lon="3.2691">
        <ele>840</ele>
        <time>2019-05-22T22:50:50Z</time>
      </trkpt>
      <trkpt lat="44.375" lon="3.26879">
        <ele>841</ele>
        <time>2019-05-22T22:50:54Z</time>
      </trkpt>
      <trkpt lat="44.37517" lon="3.26758">
        <ele>843</ele>
        <time>2019-05-22T22:51:09Z</time>
      </trkpt>
      <trkpt lat="44.37519" lon="3.26719">
        <ele>842</ele>
        <time>2019-05-22T22:51:14Z</time>
      </trkpt>
      <trkpt lat="44.37518" lon="3.26682">
        <ele>840</ele>
        <time>2019-05-22T22:51:19Z</time>
      </trkpt>
      <trkpt lat="44.37513" lon="3.26632">
        <ele>836</ele>
        <time>2019-05-22T22:51:26Z</time>
      </trkpt>
      <trkpt lat="44.37506" lon="3.26596">
        <ele>833</ele>
        <time>2019-05-22T22:51:30Z</time>
      </trkpt>
      <trkpt lat="44.37497" lon="3.26565">
        <ele>832</ele>
        <time>2019-05-22T22:51:35Z</time>
      </trkpt>
      <trkpt lat="44.37481" lon="3.26531">
        <ele>835</ele>
        <time>2019-05-22T22:51:40Z</time>
      </trkpt>
      <trkpt lat="44.37451" lon="3.26481">
        <ele>836</ele>
        <time>2019-05-22T22:51:48Z</time>
      </trkpt>
      <trkpt lat="44.37322" lon="3.26276">
        <ele>829</ele>
        <time>2019-05-22T22:52:23Z</time>
      </trkpt>
      <trkpt lat="44.37264" lon="3.26145">
        <ele>828</ele>
        <time>2019-05-22T22:52:42Z</time>
      </trkpt>
      <trkpt lat="44.37251" lon="3.26117">
        <ele>826</ele>
        <time>2019-05-22T22:52:47Z</time>
      </trkpt>
      <trkpt lat="44.37238" lon="3.26101">
        <ele>826</ele>
        <time>2019-05-22T22:52:50Z</time>
      </trkpt>
      <trkpt lat="44.37188" lon="3.26044">
        <ele>825</ele>
        <time>2019-05-22T22:53:01Z</time>
      </trkpt>
      <trkpt lat="44.37146" lon="3.25981">
        <ele>822</ele>
        <time>2019-05-22T22:53:12Z</time>
      </trkpt>
      <trkpt lat="44.37096" lon="3.25918">
        <ele>821</ele>
        <time>2019-05-22T22:53:24Z</time>
      </trkpt>
      <trkpt lat="44.37083" lon="3.25905">
        <ele>821</ele>
        <time>2019-05-22T22:53:27Z</time>
      </trkpt>
      <trkpt lat="44.37068" lon="3.25897">
        <ele>821</ele>
        <time>2019-05-22T22:53:30Z</time>
      </trkpt>
      <trkpt lat="44.37045" lon="3.2589">
        <ele>821</ele>
        <time>2019-05-22T22:53:34Z</time>
      </trkpt>
      <trkpt lat="44.37014" lon="3.25889">
        <ele>821</ele>
        <time>2019-05-22T22:53:40Z</time>
      </trkpt>
      <trkpt lat="44.36949" lon="3.25897">
        <ele>821</ele>
        <time>2019-05-22T22:53:51Z</time>
      </trkpt>
      <trkpt lat="44.36899" lon="3.25896">
        <ele>821</ele>
        <time>2019-05-22T22:54:00Z</time>
      </trkpt>
      <trkpt lat="44.36864" lon="3.25886">
        <ele>821</ele>
        <time>2019-05-22T22:54:06Z</time>
      </trkpt>
      <trkpt lat="44.36797" lon="3.2585">
        <ele>818</ele>
        <time>2019-05-22T22:54:19Z</time>
      </trkpt>
      <trkpt lat="44.36779" lon="3.25845">
        <ele>817</ele>
        <time>2019-05-22T22:54:22Z</time>
      </trkpt>
      <trkpt lat="44.36763" lon="3.25845">
        <ele>816</ele>
        <time>2019-05-22T22:54:25Z</time>
      </trkpt>
      <trkpt lat="44.36749" lon="3.25849">
        <ele>815</ele>
        <time>2019-05-22T22:54:28Z</time>
      </trkpt>
      <trkpt lat="44.36711" lon="3.25871">
        <ele>815</ele>
        <time>2019-05-22T22:54:35Z</time>
      </trkpt>
      <trkpt lat="44.36677" lon="3.25889">
        <ele>814</ele>
        <time>2019-05-22T22:54:42Z</time>
      </trkpt>
      <trkpt lat="44.36624" lon="3.25908">
        <ele>813</ele>
        <time>2019-05-22T22:54:51Z</time>
      </trkpt>
      <trkpt lat="44.36563" lon="3.25921">
        <ele>810</ele>
        <time>2019-05-22T22:55:02Z</time>
      </trkpt>
      <trkpt lat="44.36493" lon="3.25925">
        <ele>808</ele>
        <time>2019-05-22T22:55:15Z</time>
      </trkpt>
      <trkpt lat="44.3646" lon="3.25923">
        <ele>810</ele>
        <time>2019-05-22T22:55:21Z</time>
      </trkpt>
      <trkpt lat="44.36402" lon="3.25911">
        <ele>814</ele>
        <time>2019-05-22T22:55:31Z</time>
      </trkpt>
      <trkpt lat="44.36355" lon="3.25901">
        <ele>814</ele>
        <time>2019-05-22T22:55:40Z</time>
      </trkpt>
      <trkpt lat="44.36334" lon="3.2589">
        <ele>816</ele>
        <time>2019-05-22T22:55:44Z</time>
      </trkpt>
      <trkpt lat="44.36319" lon="3.25874">
        <ele>816</ele>
        <time>2019-05-22T22:55:47Z</time>
      </trkpt>
      <trkpt lat="44.36277" lon="3.2581">
        <ele>818</ele>
        <time>2019-05-22T22:55:58Z</time>
      </trkpt>
      <trkpt lat="44.36164" lon="3.25751">
        <ele>824</ele>
        <time>2019-05-22T22:56:19Z</time>
      </trkpt>
      <trkpt lat="44.36085" lon="3.25713">
        <ele>831</ele>
        <time>2019-05-22T22:56:34Z</time>
      </trkpt>
      <trkpt lat="44.3606" lon="3.25706">
        <ele>832</ele>
        <time>2019-05-22T22:56:39Z</time>
      </trkpt>
      <trkpt lat="44.36007" lon="3.25705">
        <ele>836</ele>
        <time>2019-05-22T22:56:48Z</time>
      </trkpt>
      <trkpt lat="44.35979" lon="3.25699">
        <ele>839</ele>
        <time>2019-05-22T22:56:53Z</time>
      </trkpt>
      <trkpt lat="44.35945" lon="3.2568">
        <ele>844</ele>
        <time>2019-05-22T22:57:00Z</time>
      </trkpt>
      <trkpt lat="44.35905" lon="3.25642">
        <ele>848</ele>
        <time>2019-05-22T22:57:08Z</time>
      </trkpt>
      <trkpt lat="44.35876" lon="3.25603">
        <ele>850</ele>
        <time>2019-05-22T22:57:16Z</time>
      </trkpt>
      <trkpt lat="44.35836" lon="3.25536">
        <ele>851</ele>
        <time>2019-05-22T22:57:27Z</time>
      </trkpt>
      <trkpt lat="44.35814" lon="3.25484">
        <ele>853</ele>
        <time>2019-05-22T22:57:34Z</time>
      </trkpt>
      <trkpt lat="44.35788" lon="3.25399">
        <ele>862</ele>
        <time>2019-05-22T22:57:46Z</time>
      </trkpt>
      <trkpt lat="44.3576" lon="3.25337">
        <ele>865</ele>
        <time>2019-05-22T22:57:55Z</time>
      </trkpt>
      <trkpt lat="44.35742" lon="3.25308">
        <ele>864</ele>
        <time>2019-05-22T22:58:00Z</time>
      </trkpt>
      <trkpt lat="44.35721" lon="3.25282">
        <ele>863</ele>
        <time>2019-05-22T22:58:05Z</time>
      </trkpt>
      <trkpt lat="44.35687" lon="3.25249">
        <ele>861</ele>
        <time>2019-05-22T22:58:13Z</time>
      </trkpt>
      <trkpt lat="44.35368" lon="3.25031">
        <ele>859</ele>
        <time>2019-05-22T22:59:16Z</time>
      </trkpt>
      <trkpt lat="44.35347" lon="3.25003">
        <ele>857</ele>
        <time>2019-05-22T22:59:21Z</time>
      </trkpt>
      <trkpt lat="44.35337" lon="3.24974">
        <ele>856</ele>
        <time>2019-05-22T22:59:25Z</time>
      </trkpt>
      <trkpt lat="44.35302" lon="3.24733">
        <ele>850</ele>
        <time>2019-05-22T22:59:56Z</time>
      </trkpt>
      <trkpt lat="44.353" lon="3.24677">
        <ele>849</ele>
        <time>2019-05-22T23:00:04Z</time>
      </trkpt>
      <trkpt lat="44.35306" lon="3.24567">
        <ele>851</ele>
        <time>2019-05-22T23:00:18Z</time>
      </trkpt>
      <trkpt lat="44.35305" lon="3.24533">
        <ele>852</ele>
        <time>2019-05-22T23:00:22Z</time>
      </trkpt>
      <trkpt lat="44.353" lon="3.24511">
        <ele>853</ele>
        <time>2019-05-22T23:00:25Z</time>
      </trkpt>
      <trkpt lat="44.3529" lon="3.24485">
        <ele>853</ele>
        <time>2019-05-22T23:00:29Z</time>
      </trkpt>
      <trkpt lat="44.35112" lon="3.24161">
        <ele>841</ele>
        <time>2019-05-22T23:01:21Z</time>
      </trkpt>
      <trkpt lat="44.35081" lon="3.24106">
        <ele>841</ele>
        <time>2019-05-22T23:01:29Z</time>
      </trkpt>
      <trkpt lat="44.35066" lon="3.24086">
        <ele>840</ele>
        <time>2019-05-22T23:01:33Z</time>
      </trkpt>
      <trkpt lat="44.35051" lon="3.24068">
        <ele>840</ele>
        <time>2019-05-22T23:01:37Z</time>
      </trkpt>
      <trkpt lat="44.34831" lon="3.23895">
        <ele>842</ele>
        <time>2019-05-22T23:02:22Z</time>
      </trkpt>
      <trkpt lat="44.34793" lon="3.2386">
        <ele>843</ele>
        <time>2019-05-22T23:02:30Z</time>
      </trkpt>
      <trkpt lat="44.34683" lon="3.23735">
        <ele>839</ele>
        <time>2019-05-22T23:02:55Z</time>
      </trkpt>
      <trkpt lat="44.34666" lon="3.2371">
        <ele>838</ele>
        <time>2019-05-22T23:02:59Z</time>
      </trkpt>
      <trkpt lat="44.34652" lon="3.23683">
        <ele>837</ele>
        <time>2019-05-22T23:03:04Z</time>
      </trkpt>
      <trkpt lat="44.34641" lon="3.23626">
        <ele>837</ele>
        <time>2019-05-22T23:03:11Z</time>
      </trkpt>
      <trkpt lat="44.34613" lon="3.23444">
        <ele>835</ele>
        <time>2019-05-22T23:03:35Z</time>
      </trkpt>
      <trkpt lat="44.34604" lon="3.23402">
        <ele>835</ele>
        <time>2019-05-22T23:03:40Z</time>
      </trkpt>
      <trkpt lat="44.34598" lon="3.2339">
        <ele>836</ele>
        <time>2019-05-22T23:03:42Z</time>
      </trkpt>
      <trkpt lat="44.34589" lon="3.23379">
        <ele>836</ele>
        <time>2019-05-22T23:03:44Z</time>
      </trkpt>
      <trkpt lat="44.34578" lon="3.23373">
        <ele>836</ele>
        <time>2019-05-22T23:03:46Z</time>
      </trkpt>
      <trkpt lat="44.34551" lon="3.23363">
        <ele>835</ele>
        <time>2019-05-22T23:03:51Z</time>
      </trkpt>
      <trkpt lat="44.34551" lon="3.23363">
        <ele>835</ele>
        <time>2019-05-22T23:03:51Z</time>
      </trkpt>
      <trkpt lat="44.34499" lon="3.2334">
        <ele>831</ele>
        <time>2019-05-22T23:04:01Z</time>
      </trkpt>
      <trkpt lat="44.34431" lon="3.23295">
        <ele>831</ele>
        <time>2019-05-22T23:04:14Z</time>
      </trkpt>
      <trkpt lat="44.34403" lon="3.2327">
        <ele>830</ele>
        <time>2019-05-22T23:04:20Z</time>
      </trkpt>
      <trkpt lat="44.34369" lon="3.2323">
        <ele>832</ele>
        <time>2019-05-22T23:04:28Z</time>
      </trkpt>
      <trkpt lat="44.3435" lon="3.23196">
        <ele>832</ele>
        <time>2019-05-22T23:04:34Z</time>
      </trkpt>
      <trkpt lat="44.34323" lon="3.23081">
        <ele>830</ele>
        <time>2019-05-22T23:04:49Z</time>
      </trkpt>
      <trkpt lat="44.3429" lon="3.22975">
        <ele>827</ele>
        <time>2019-05-22T23:05:04Z</time>
      </trkpt>
      <trkpt lat="44.34287" lon="3.22938">
        <ele>826</ele>
        <time>2019-05-22T23:05:09Z</time>
      </trkpt>
      <trkpt lat="44.34289" lon="3.22885">
        <ele>823</ele>
        <time>2019-05-22T23:05:15Z</time>
      </trkpt>
      <trkpt lat="44.34297" lon="3.22755">
        <ele>822</ele>
        <time>2019-05-22T23:05:32Z</time>
      </trkpt>
      <trkpt lat="44.34289" lon="3.22747">
        <ele>822</ele>
        <time>2019-05-22T23:05:34Z</time>
      </trkpt>
      <trkpt lat="44.34251" lon="3.22723">
        <ele>821</ele>
        <time>2019-05-22T23:05:41Z</time>
      </trkpt>
      <trkpt lat="44.34114" lon="3.22678">
        <ele>822</ele>
        <time>2019-05-22T23:06:06Z</time>
      </trkpt>
      <trkpt lat="44.34088" lon="3.22677">
        <ele>823</ele>
        <time>2019-05-22T23:06:11Z</time>
      </trkpt>
      <trkpt lat="44.34029" lon="3.22692">
        <ele>825</ele>
        <time>2019-05-22T23:06:21Z</time>
      </trkpt>
      <trkpt lat="44.33999" lon="3.22695">
        <ele>826</ele>
        <time>2019-05-22T23:06:27Z</time>
      </trkpt>
      <trkpt lat="44.33942" lon="3.22697">
        <ele>824</ele>
        <time>2019-05-22T23:06:37Z</time>
      </trkpt>
      <trkpt lat="44.33918" lon="3.22694">
        <ele>824</ele>
        <time>2019-05-22T23:06:41Z</time>
      </trkpt>
      <trkpt lat="44.33885" lon="3.22685">
        <ele>824</ele>
        <time>2019-05-22T23:06:47Z</time>
      </trkpt>
      <trkpt lat="44.3386" lon="3.22666">
        <ele>825</ele>
        <time>2019-05-22T23:06:52Z</time>
      </trkpt>
      <trkpt lat="44.33843" lon="3.2265">
        <ele>826</ele>
        <time>2019-05-22T23:06:56Z</time>
      </trkpt>
      <trkpt lat="44.33827" lon="3.22641">
        <ele>827</ele>
        <time>2019-05-22T23:06:59Z</time>
      </trkpt>
      <trkpt lat="44.33809" lon="3.22642">
        <ele>827</ele>
        <time>2019-05-22T23:07:02Z</time>
      </trkpt>
      <trkpt lat="44.33784" lon="3.22657">
        <ele>825</ele>
        <time>2019-05-22T23:07:07Z</time>
      </trkpt>
      <trkpt lat="44.33735" lon="3.22707">
        <ele>820</ele>
        <time>2019-05-22T23:07:18Z</time>
      </trkpt>
      <trkpt lat="44.33716" lon="3.2272">
        <ele>819</ele>
        <time>2019-05-22T23:07:22Z</time>
      </trkpt>
      <trkpt lat="44.33582" lon="3.22747">
        <ele>816</ele>
        <time>2019-05-22T23:07:46Z</time>
      </trkpt>
      <trkpt lat="44.33552" lon="3.22757">
        <ele>817</ele>
        <time>2019-05-22T23:07:51Z</time>
      </trkpt>
      <trkpt lat="44.33532" lon="3.2277">
        <ele>817</ele>
        <time>2019-05-22T23:07:55Z</time>
      </trkpt>
      <trkpt lat="44.33486" lon="3.22807">
        <ele>816</ele>
        <time>2019-05-22T23:08:05Z</time>
      </trkpt>
      <trkpt lat="44.33466" lon="3.22819">
        <ele>815</ele>
        <time>2019-05-22T23:08:08Z</time>
      </trkpt>
      <trkpt lat="44.33383" lon="3.22836">
        <ele>821</ele>
        <time>2019-05-22T23:08:23Z</time>
      </trkpt>
      <trkpt lat="44.33355" lon="3.22848">
        <ele>824</ele>
        <time>2019-05-22T23:08:29Z</time>
      </trkpt>
      <trkpt lat="44.33327" lon="3.2287">
        <ele>825</ele>
        <time>2019-05-22T23:08:34Z</time>
      </trkpt>
      <trkpt lat="44.3328" lon="3.22914">
        <ele>826</ele>
        <time>2019-05-22T23:08:44Z</time>
      </trkpt>
      <trkpt lat="44.33246" lon="3.22939">
        <ele>829</ele>
        <time>2019-05-22T23:08:51Z</time>
      </trkpt>
      <trkpt lat="44.3319" lon="3.22984">
        <ele>827</ele>
        <time>2019-05-22T23:09:03Z</time>
      </trkpt>
      <trkpt lat="44.33154" lon="3.23008">
        <ele>826</ele>
        <time>2019-05-22T23:09:10Z</time>
      </trkpt>
      <trkpt lat="44.33135" lon="3.23016">
        <ele>826</ele>
        <time>2019-05-22T23:09:13Z</time>
      </trkpt>
      <trkpt lat="44.33107" lon="3.23014">
        <ele>827</ele>
        <time>2019-05-22T23:09:18Z</time>
      </trkpt>
      <trkpt lat="44.33049" lon="3.23005">
        <ele>828</ele>
        <time>2019-05-22T23:09:29Z</time>
      </trkpt>
      <trkpt lat="44.33032" lon="3.23006">
        <ele>828</ele>
        <time>2019-05-22T23:09:32Z</time>
      </trkpt>
      <trkpt lat="44.33015" lon="3.23">
        <ele>829</ele>
        <time>2019-05-22T23:09:35Z</time>
      </trkpt>
      <trkpt lat="44.32964" lon="3.22954">
        <ele>837</ele>
        <time>2019-05-22T23:09:46Z</time>
      </trkpt>
      <trkpt lat="44.32943" lon="3.22947">
        <ele>837</ele>
        <time>2019-05-22T23:09:49Z</time>
      </trkpt>
      <trkpt lat="44.32922" lon="3.22948">
        <ele>836</ele>
        <time>2019-05-22T23:09:53Z</time>
      </trkpt>
      <trkpt lat="44.32892" lon="3.22958">
        <ele>837</ele>
        <time>2019-05-22T23:09:59Z</time>
      </trkpt>
      <trkpt lat="44.32875" lon="3.22973">
        <ele>838</ele>
        <time>2019-05-22T23:10:02Z</time>
      </trkpt>
      <trkpt lat="44.32862" lon="3.22998">
        <ele>839</ele>
        <time>2019-05-22T23:10:06Z</time>
      </trkpt>
      <trkpt lat="44.32854" lon="3.23086">
        <ele>837</ele>
        <time>2019-05-22T23:10:18Z</time>
      </trkpt>
      <trkpt lat="44.3285" lon="3.23101">
        <ele>836</ele>
        <time>2019-05-22T23:10:20Z</time>
      </trkpt>
      <trkpt lat="44.3284" lon="3.23127">
        <ele>836</ele>
        <time>2019-05-22T23:10:23Z</time>
      </trkpt>
      <trkpt lat="44.32786" lon="3.23219">
        <ele>839</ele>
        <time>2019-05-22T23:10:38Z</time>
      </trkpt>
      <trkpt lat="44.3277" lon="3.23235">
        <ele>841</ele>
        <time>2019-05-22T23:10:42Z</time>
      </trkpt>
      <trkpt lat="44.3275" lon="3.23239">
        <ele>843</ele>
        <time>2019-05-22T23:10:46Z</time>
      </trkpt>
      <trkpt lat="44.32729" lon="3.23236">
        <ele>843</ele>
        <time>2019-05-22T23:10:49Z</time>
      </trkpt>
      <trkpt lat="44.3271" lon="3.23223">
        <ele>845</ele>
        <time>2019-05-22T23:10:53Z</time>
      </trkpt>
      <trkpt lat="44.32693" lon="3.23208">
        <ele>848</ele>
        <time>2019-05-22T23:10:57Z</time>
      </trkpt>
      <trkpt lat="44.32677" lon="3.2319">
        <ele>852</ele>
        <time>2019-05-22T23:11:00Z</time>
      </trkpt>
      <trkpt lat="44.32659" lon="3.23179">
        <ele>856</ele>
        <time>2019-05-22T23:11:04Z</time>
      </trkpt>
      <trkpt lat="44.3264" lon="3.23174">
        <ele>860</ele>
        <time>2019-05-22T23:11:07Z</time>
      </trkpt>
      <trkpt lat="44.32619" lon="3.23179">
        <ele>862</ele>
        <time>2019-05-22T23:11:11Z</time>
      </trkpt>
      <trkpt lat="44.32595" lon="3.23197">
        <ele>863</ele>
        <time>2019-05-22T23:11:16Z</time>
      </trkpt>
      <trkpt lat="44.3248" lon="3.2336">
        <ele>863</ele>
        <time>2019-05-22T23:11:45Z</time>
      </trkpt>
      <trkpt lat="44.32452" lon="3.23373">
        <ele>864</ele>
        <time>2019-05-22T23:11:50Z</time>
      </trkpt>
      <trkpt lat="44.32425" lon="3.23375">
        <ele>864</ele>
        <time>2019-05-22T23:11:55Z</time>
      </trkpt>
      <trkpt lat="44.32308" lon="3.23354">
        <ele>862</ele>
        <time>2019-05-22T23:12:16Z</time>
      </trkpt>
      <trkpt lat="44.32084" lon="3.23323">
        <ele>863</ele>
        <time>2019-05-22T23:12:56Z</time>
      </trkpt>
      <trkpt lat="44.32034" lon="3.23312">
        <ele>865</ele>
        <time>2019-05-22T23:13:05Z</time>
      </trkpt>
      <trkpt lat="44.31992" lon="3.23297">
        <ele>867</ele>
        <time>2019-05-22T23:13:13Z</time>
      </trkpt>
      <trkpt lat="44.31932" lon="3.23281">
        <ele>867</ele>
        <time>2019-05-22T23:13:24Z</time>
      </trkpt>
      <trkpt lat="44.31912" lon="3.23271">
        <ele>867</ele>
        <time>2019-05-22T23:13:27Z</time>
      </trkpt>
      <trkpt lat="44.31898" lon="3.23288">
        <ele>865</ele>
        <time>2019-05-22T23:13:31Z</time>
      </trkpt>
      <trkpt lat="44.31889" lon="3.23292">
        <ele>864</ele>
        <time>2019-05-22T23:13:32Z</time>
      </trkpt>
      <trkpt lat="44.31875" lon="3.23293">
        <ele>863</ele>
        <time>2019-05-22T23:13:35Z</time>
      </trkpt>
      <trkpt lat="44.31863" lon="3.23288">
        <ele>862</ele>
        <time>2019-05-22T23:13:37Z</time>
      </trkpt>
      <trkpt lat="44.31841" lon="3.23271">
        <ele>861</ele>
        <time>2019-05-22T23:13:42Z</time>
      </trkpt>
      <trkpt lat="44.31822" lon="3.23261">
        <ele>861</ele>
        <time>2019-05-22T23:13:45Z</time>
      </trkpt>
      <trkpt lat="44.31814" lon="3.23259">
        <ele>862</ele>
        <time>2019-05-22T23:13:47Z</time>
      </trkpt>
      <trkpt lat="44.31801" lon="3.23259">
        <ele>862</ele>
        <time>2019-05-22T23:13:49Z</time>
      </trkpt>
      <trkpt lat="44.3179" lon="3.23267">
        <ele>861</ele>
        <time>2019-05-22T23:13:51Z</time>
      </trkpt>
      <trkpt lat="44.31738" lon="3.2332">
        <ele>857</ele>
        <time>2019-05-22T23:14:03Z</time>
      </trkpt>
      <trkpt lat="44.31668" lon="3.2338">
        <ele>856</ele>
        <time>2019-05-22T23:14:17Z</time>
      </trkpt>
      <trkpt lat="44.31637" lon="3.23412">
        <ele>852</ele>
        <time>2019-05-22T23:14:24Z</time>
      </trkpt>
      <trkpt lat="44.31623" lon="3.23422">
        <ele>851</ele>
        <time>2019-05-22T23:14:27Z</time>
      </trkpt>
      <trkpt lat="44.31601" lon="3.23424">
        <ele>850</ele>
        <time>2019-05-22T23:14:31Z</time>
      </trkpt>
      <trkpt lat="44.3157" lon="3.23419">
        <ele>850</ele>
        <time>2019-05-22T23:14:36Z</time>
      </trkpt>
      <trkpt lat="44.31547" lon="3.23419">
        <ele>849</ele>
        <time>2019-05-22T23:14:41Z</time>
      </trkpt>
      <trkpt lat="44.31507" lon="3.23433">
        <ele>847</ele>
        <time>2019-05-22T23:14:48Z</time>
      </trkpt>
      <trkpt lat="44.31495" lon="3.23435">
        <ele>847</ele>
        <time>2019-05-22T23:14:50Z</time>
      </trkpt>
      <trkpt lat="44.31451" lon="3.23439">
        <ele>848</ele>
        <time>2019-05-22T23:14:58Z</time>
      </trkpt>
      <trkpt lat="44.31418" lon="3.23448">
        <ele>848</ele>
        <time>2019-05-22T23:15:04Z</time>
      </trkpt>
      <trkpt lat="44.31407" lon="3.23459">
        <ele>848</ele>
        <time>2019-05-22T23:15:06Z</time>
      </trkpt>
      <trkpt lat="44.31394" lon="3.23478">
        <ele>846</ele>
        <time>2019-05-22T23:15:10Z</time>
      </trkpt>
      <trkpt lat="44.31373" lon="3.23506">
        <ele>845</ele>
        <time>2019-05-22T23:15:15Z</time>
      </trkpt>
      <trkpt lat="44.31356" lon="3.23524">
        <ele>845</ele>
        <time>2019-05-22T23:15:19Z</time>
      </trkpt>
      <trkpt lat="44.31356" lon="3.23524">
        <ele>845</ele>
        <time>2019-05-22T23:15:19Z</time>
      </trkpt>
      <trkpt lat="44.31309" lon="3.23574">
        <ele>846</ele>
        <time>2019-05-22T23:15:29Z</time>
      </trkpt>
      <trkpt lat="44.31252" lon="3.23648">
        <ele>848</ele>
        <time>2019-05-22T23:15:43Z</time>
      </trkpt>
      <trkpt lat="44.31173" lon="3.23731">
        <ele>837</ele>
        <time>2019-05-22T23:16:01Z</time>
      </trkpt>
      <trkpt lat="44.31168" lon="3.23743">
        <ele>835</ele>
        <time>2019-05-22T23:16:02Z</time>
      </trkpt>
      <trkpt lat="44.31167" lon="3.23766">
        <ele>832</ele>
        <time>2019-05-22T23:16:05Z</time>
      </trkpt>
      <trkpt lat="44.31172" lon="3.23823">
        <ele>825</ele>
        <time>2019-05-22T23:16:13Z</time>
      </trkpt>
      <trkpt lat="44.31192" lon="3.23973">
        <ele>818</ele>
        <time>2019-05-22T23:16:32Z</time>
      </trkpt>
      <trkpt lat="44.31191" lon="3.23996">
        <ele>816</ele>
        <time>2019-05-22T23:16:35Z</time>
      </trkpt>
      <trkpt lat="44.31179" lon="3.24075">
        <ele>817</ele>
        <time>2019-05-22T23:16:45Z</time>
      </trkpt>
      <trkpt lat="44.31169" lon="3.24127">
        <ele>822</ele>
        <time>2019-05-22T23:16:52Z</time>
      </trkpt>
      <trkpt lat="44.31169" lon="3.24127">
        <ele>822</ele>
        <time>2019-05-22T23:16:52Z</time>
      </trkpt>
      <trkpt lat="44.31179" lon="3.24075">
        <ele>817</ele>
        <time>2019-05-22T23:16:59Z</time>
      </trkpt>
      <trkpt lat="44.31191" lon="3.23996">
        <ele>816</ele>
        <time>2019-05-22T23:17:09Z</time>
      </trkpt>
      <trkpt lat="44.31192" lon="3.23973">
        <ele>818</ele>
        <time>2019-05-22T23:17:12Z</time>
      </trkpt>
      <trkpt lat="44.31172" lon="3.23823">
        <ele>825</ele>
        <time>2019-05-22T23:17:32Z</time>
      </trkpt>
      <trkpt lat="44.31167" lon="3.23766">
        <ele>832</ele>
        <time>2019-05-22T23:17:39Z</time>
      </trkpt>
      <trkpt lat="44.31168" lon="3.23743">
        <ele>835</ele>
        <time>2019-05-22T23:17:42Z</time>
      </trkpt>
      <trkpt lat="44.31173" lon="3.23731">
        <ele>837</ele>
        <time>2019-05-22T23:17:44Z</time>
      </trkpt>
      <trkpt lat="44.31252" lon="3.23648">
        <ele>848</ele>
        <time>2019-05-22T23:18:01Z</time>
      </trkpt>
      <trkpt lat="44.31309" lon="3.23574">
        <ele>846</ele>
        <time>2019-05-22T23:18:15Z</time>
      </trkpt>
      <trkpt lat="44.31373" lon="3.23506">
        <ele>845</ele>
        <time>2019-05-22T23:18:29Z</time>
      </trkpt>
      <trkpt lat="44.31394" lon="3.23478">
        <ele>846</ele>
        <time>2019-05-22T23:18:34Z</time>
      </trkpt>
      <trkpt lat="44.31407" lon="3.23459">
        <ele>848</ele>
        <time>2019-05-22T23:18:38Z</time>
      </trkpt>
      <trkpt lat="44.31418" lon="3.23448">
        <ele>848</ele>
        <time>2019-05-22T23:18:40Z</time>
      </trkpt>
      <trkpt lat="44.31451" lon="3.23439">
        <ele>848</ele>
        <time>2019-05-22T23:18:46Z</time>
      </trkpt>
      <trkpt lat="44.31495" lon="3.23435">
        <ele>847</ele>
        <time>2019-05-22T23:18:54Z</time>
      </trkpt>
      <trkpt lat="44.31507" lon="3.23433">
        <ele>847</ele>
        <time>2019-05-22T23:18:56Z</time>
      </trkpt>
      <trkpt lat="44.31547" lon="3.23419">
        <ele>849</ele>
        <time>2019-05-22T23:19:03Z</time>
      </trkpt>
      <trkpt lat="44.3157" lon="3.23419">
        <ele>850</ele>
        <time>2019-05-22T23:19:08Z</time>
      </trkpt>
      <trkpt lat="44.31601" lon="3.23424">
        <ele>850</ele>
        <time>2019-05-22T23:19:13Z</time>
      </trkpt>
      <trkpt lat="44.31623" lon="3.23422">
        <ele>851</ele>
        <time>2019-05-22T23:19:17Z</time>
      </trkpt>
      <trkpt lat="44.31637" lon="3.23412">
        <ele>852</ele>
        <time>2019-05-22T23:19:20Z</time>
      </trkpt>
      <trkpt lat="44.31668" lon="3.2338">
        <ele>856</ele>
        <time>2019-05-22T23:19:27Z</time>
      </trkpt>
      <trkpt lat="44.31738" lon="3.2332">
        <ele>857</ele>
        <time>2019-05-22T23:19:41Z</time>
      </trkpt>
      <trkpt lat="44.3179" lon="3.23267">
        <ele>861</ele>
        <time>2019-05-22T23:19:53Z</time>
      </trkpt>
      <trkpt lat="44.31801" lon="3.23259">
        <ele>862</ele>
        <time>2019-05-22T23:19:55Z</time>
      </trkpt>
      <trkpt lat="44.31814" lon="3.23259">
        <ele>862</ele>
        <time>2019-05-22T23:19:57Z</time>
      </trkpt>
      <trkpt lat="44.31822" lon="3.23261">
        <ele>861</ele>
        <time>2019-05-22T23:19:59Z</time>
      </trkpt>
      <trkpt lat="44.31841" lon="3.23271">
        <ele>861</ele>
        <time>2019-05-22T23:20:02Z</time>
      </trkpt>
      <trkpt lat="44.31863" lon="3.23288">
        <ele>862</ele>
        <time>2019-05-22T23:20:07Z</time>
      </trkpt>
      <trkpt lat="44.31875" lon="3.23293">
        <ele>863</ele>
        <time>2019-05-22T23:20:09Z</time>
      </trkpt>
      <trkpt lat="44.31889" lon="3.23292">
        <ele>864</ele>
        <time>2019-05-22T23:20:12Z</time>
      </trkpt>
      <trkpt lat="44.31898" lon="3.23288">
        <ele>865</ele>
        <time>2019-05-22T23:20:13Z</time>
      </trkpt>
      <trkpt lat="44.31912" lon="3.23271">
        <ele>867</ele>
        <time>2019-05-22T23:20:17Z</time>
      </trkpt>
      <trkpt lat="44.31913" lon="3.23253">
        <ele>869</ele>
        <time>2019-05-22T23:20:19Z</time>
      </trkpt>
      <trkpt lat="44.31908" lon="3.23239">
        <ele>869</ele>
        <time>2019-05-22T23:20:21Z</time>
      </trkpt>
      <trkpt lat="44.3188" lon="3.23112">
        <ele>879</ele>
        <time>2019-05-22T23:20:38Z</time>
      </trkpt>
      <trkpt lat="44.31884" lon="3.23098">
        <ele>880</ele>
        <time>2019-05-22T23:20:40Z</time>
      </trkpt>
      <trkpt lat="44.31888" lon="3.23088">
        <ele>881</ele>
        <time>2019-05-22T23:20:41Z</time>
      </trkpt>
      <trkpt lat="44.31899" lon="3.2308">
        <ele>882</ele>
        <time>2019-05-22T23:20:43Z</time>
      </trkpt>
      <trkpt lat="44.31901" lon="3.23075">
        <ele>883</ele>
        <time>2019-05-22T23:20:44Z</time>
      </trkpt>
      <trkpt lat="44.31897" lon="3.23057">
        <ele>885</ele>
        <time>2019-05-22T23:20:46Z</time>
      </trkpt>
      <trkpt lat="44.31888" lon="3.23034">
        <ele>887</ele>
        <time>2019-05-22T23:20:50Z</time>
      </trkpt>
      <trkpt lat="44.3188" lon="3.23027">
        <ele>887</ele>
        <time>2019-05-22T23:20:51Z</time>
      </trkpt>
      <trkpt lat="44.31811" lon="3.22996">
        <ele>887</ele>
        <time>2019-05-22T23:21:04Z</time>
      </trkpt>
      <trkpt lat="44.31804" lon="3.22989">
        <ele>888</ele>
        <time>2019-05-22T23:21:06Z</time>
      </trkpt>
      <trkpt lat="44.31777" lon="3.22944">
        <ele>891</ele>
        <time>2019-05-22T23:21:13Z</time>
      </trkpt>
      <trkpt lat="44.31767" lon="3.22931">
        <ele>892</ele>
        <time>2019-05-22T23:21:16Z</time>
      </trkpt>
      <trkpt lat="44.31707" lon="3.22874">
        <ele>902</ele>
        <time>2019-05-22T23:21:29Z</time>
      </trkpt>
      <trkpt lat="44.31684" lon="3.22843">
        <ele>905</ele>
        <time>2019-05-22T23:21:34Z</time>
      </trkpt>
      <trkpt lat="44.3168" lon="3.2284">
        <ele>905</ele>
        <time>2019-05-22T23:21:35Z</time>
      </trkpt>
      <trkpt lat="44.31674" lon="3.2284">
        <ele>906</ele>
        <time>2019-05-22T23:21:36Z</time>
      </trkpt>
      <trkpt lat="44.31668" lon="3.22843">
        <ele>906</ele>
        <time>2019-05-22T23:21:37Z</time>
      </trkpt>
      <trkpt lat="44.31663" lon="3.22852">
        <ele>906</ele>
        <time>2019-05-22T23:21:39Z</time>
      </trkpt>
      <trkpt lat="44.31658" lon="3.22882">
        <ele>907</ele>
        <time>2019-05-22T23:21:43Z</time>
      </trkpt>
      <trkpt lat="44.31654" lon="3.22889">
        <ele>907</ele>
        <time>2019-05-22T23:21:44Z</time>
      </trkpt>
      <trkpt lat="44.3165" lon="3.22891">
        <ele>908</ele>
        <time>2019-05-22T23:21:45Z</time>
      </trkpt>
      <trkpt lat="44.31647" lon="3.22888">
        <ele>908</ele>
        <time>2019-05-22T23:21:45Z</time>
      </trkpt>
      <trkpt lat="44.31639" lon="3.2286">
        <ele>909</ele>
        <time>2019-05-22T23:21:49Z</time>
      </trkpt>
      <trkpt lat="44.31615" lon="3.22826">
        <ele>911</ele>
        <time>2019-05-22T23:21:55Z</time>
      </trkpt>
      <trkpt lat="44.31596" lon="3.22804">
        <ele>912</ele>
        <time>2019-05-22T23:22:00Z</time>
      </trkpt>
      <trkpt lat="44.31574" lon="3.22788">
        <ele>914</ele>
        <time>2019-05-22T23:22:04Z</time>
      </trkpt>
      <trkpt lat="44.31525" lon="3.22762">
        <ele>921</ele>
        <time>2019-05-22T23:22:13Z</time>
      </trkpt>
      <trkpt lat="44.31495" lon="3.22751">
        <ele>925</ele>
        <time>2019-05-22T23:22:19Z</time>
      </trkpt>
      <trkpt lat="44.31446" lon="3.22746">
        <ele>931</ele>
        <time>2019-05-22T23:22:28Z</time>
      </trkpt>
      <trkpt lat="44.31431" lon="3.22745">
        <ele>933</ele>
        <time>2019-05-22T23:22:30Z</time>
      </trkpt>
      <trkpt lat="44.31424" lon="3.22747">
        <ele>934</ele>
        <time>2019-05-22T23:22:32Z</time>
      </trkpt>
      <trkpt lat="44.31415" lon="3.22746">
        <ele>935</ele>
        <time>2019-05-22T23:22:33Z</time>
      </trkpt>
      <trkpt lat="44.31408" lon="3.2274">
        <ele>936</ele>
        <time>2019-05-22T23:22:35Z</time>
      </trkpt>
      <trkpt lat="44.31398" lon="3.22726">
        <ele>937</ele>
        <time>2019-05-22T23:22:37Z</time>
      </trkpt>
      <trkpt lat="44.31382" lon="3.22699">
        <ele>939</ele>
        <time>2019-05-22T23:22:42Z</time>
      </trkpt>
      <trkpt lat="44.31357" lon="3.22626">
        <ele>942</ele>
        <time>2019-05-22T23:22:52Z</time>
      </trkpt>
      <trkpt lat="44.31338" lon="3.22564">
        <ele>948</ele>
        <time>2019-05-22T23:23:01Z</time>
      </trkpt>
      <trkpt lat="44.31332" lon="3.22492">
        <ele>953</ele>
        <time>2019-05-22T23:23:10Z</time>
      </trkpt>
      <trkpt lat="44.31326" lon="3.22446">
        <ele>955</ele>
        <time>2019-05-22T23:23:16Z</time>
      </trkpt>
      <trkpt lat="44.31327" lon="3.22418">
        <ele>955</ele>
        <time>2019-05-22T23:23:19Z</time>
      </trkpt>
      <trkpt lat="44.31321" lon="3.22372">
        <ele>956</ele>
        <time>2019-05-22T23:23:25Z</time>
      </trkpt>
      <trkpt lat="44.31262" lon="3.22209">
        <ele>958</ele>
        <time>2019-05-22T23:23:48Z</time>
      </trkpt>
      <trkpt lat="44.3126" lon="3.22172">
        <ele>960</ele>
        <time>2019-05-22T23:23:53Z</time>
      </trkpt>
      <trkpt lat="44.31256" lon="3.22142">
        <ele>961</ele>
        <time>2019-05-22T23:23:57Z</time>
      </trkpt>
      <trkpt lat="44.31206" lon="3.22042">
        <ele>964</ele>
        <time>2019-05-22T23:24:13Z</time>
      </trkpt>
      <trkpt lat="44.31191" lon="3.21994">
        <ele>967</ele>
        <time>2019-05-22T23:24:19Z</time>
      </trkpt>
      <trkpt lat="44.31166" lon="3.2189">
        <ele>971</ele>
        <time>2019-05-22T23:24:33Z</time>
      </trkpt>
      <trkpt lat="44.31155" lon="3.21854">
        <ele>972</ele>
        <time>2019-05-22T23:24:38Z</time>
      </trkpt>
      <trkpt lat="44.31137" lon="3.21818">
        <ele>974</ele>
        <time>2019-05-22T23:24:44Z</time>
      </trkpt>
      <trkpt lat="44.31112" lon="3.21773">
        <ele>975</ele>
        <time>2019-05-22T23:24:51Z</time>
      </trkpt>
      <trkpt lat="44.3107" lon="3.21729">
        <ele>978</ele>
        <time>2019-05-22T23:25:00Z</time>
      </trkpt>
      <trkpt lat="44.31045" lon="3.21705">
        <ele>979</ele>
        <time>2019-05-22T23:25:06Z</time>
      </trkpt>
      <trkpt lat="44.30966" lon="3.21593">
        <ele>979</ele>
        <time>2019-05-22T23:25:26Z</time>
      </trkpt>
      <trkpt lat="44.30943" lon="3.21543">
        <ele>979</ele>
        <time>2019-05-22T23:25:33Z</time>
      </trkpt>
      <trkpt lat="44.30912" lon="3.21455">
        <ele>980</ele>
        <time>2019-05-22T23:25:46Z</time>
      </trkpt>
      <trkpt lat="44.30912" lon="3.21455">
        <ele>980</ele>
        <time>2019-05-22T23:25:46Z</time>
      </trkpt>
      <trkpt lat="44.30891" lon="3.21388">
        <ele>981</ele>
        <time>2019-05-22T23:25:55Z</time>
      </trkpt>
      <trkpt lat="44.30882" lon="3.21344">
        <ele>981</ele>
        <time>2019-05-22T23:26:01Z</time>
      </trkpt>
      <trkpt lat="44.30866" lon="3.21253">
        <ele>979</ele>
        <time>2019-05-22T23:26:13Z</time>
      </trkpt>
      <trkpt lat="44.30858" lon="3.2115">
        <ele>978</ele>
        <time>2019-05-22T23:26:26Z</time>
      </trkpt>
      <trkpt lat="44.30848" lon="3.2109">
        <ele>977</ele>
        <time>2019-05-22T23:26:34Z</time>
      </trkpt>
      <trkpt lat="44.30844" lon="3.2108">
        <ele>977</ele>
        <time>2019-05-22T23:26:35Z</time>
      </trkpt>
      <trkpt lat="44.30795" lon="3.21008">
        <ele>977</ele>
        <time>2019-05-22T23:26:48Z</time>
      </trkpt>
      <trkpt lat="44.30781" lon="3.20981">
        <ele>978</ele>
        <time>2019-05-22T23:26:52Z</time>
      </trkpt>
      <trkpt lat="44.30775" lon="3.20944">
        <ele>979</ele>
        <time>2019-05-22T23:26:57Z</time>
      </trkpt>
      <trkpt lat="44.30778" lon="3.20905">
        <ele>979</ele>
        <time>2019-05-22T23:27:02Z</time>
      </trkpt>
      <trkpt lat="44.30794" lon="3.20857">
        <ele>983</ele>
        <time>2019-05-22T23:27:09Z</time>
      </trkpt>
      <trkpt lat="44.3083" lon="3.20784">
        <ele>989</ele>
        <time>2019-05-22T23:27:20Z</time>
      </trkpt>
      <trkpt lat="44.30835" lon="3.20759">
        <ele>991</ele>
        <time>2019-05-22T23:27:24Z</time>
      </trkpt>
      <trkpt lat="44.30837" lon="3.20735">
        <ele>991</ele>
        <time>2019-05-22T23:27:27Z</time>
      </trkpt>
      <trkpt lat="44.30836" lon="3.20708">
        <ele>990</ele>
        <time>2019-05-22T23:27:30Z</time>
      </trkpt>
      <trkpt lat="44.30822" lon="3.20638">
        <ele>989</ele>
        <time>2019-05-22T23:27:39Z</time>
      </trkpt>
      <trkpt lat="44.30822" lon="3.20618">
        <ele>988</ele>
        <time>2019-05-22T23:27:42Z</time>
      </trkpt>
      <trkpt lat="44.3084" lon="3.20577">
        <ele>988</ele>
        <time>2019-05-22T23:27:48Z</time>
      </trkpt>
      <trkpt lat="44.30849" lon="3.20546">
        <ele>986</ele>
        <time>2019-05-22T23:27:52Z</time>
      </trkpt>
      <trkpt lat="44.30856" lon="3.20516">
        <ele>984</ele>
        <time>2019-05-22T23:27:56Z</time>
      </trkpt>
      <trkpt lat="44.30862" lon="3.20466">
        <ele>981</ele>
        <time>2019-05-22T23:28:03Z</time>
      </trkpt>
      <trkpt lat="44.30861" lon="3.20446">
        <ele>979</ele>
        <time>2019-05-22T23:28:05Z</time>
      </trkpt>
      <trkpt lat="44.30846" lon="3.20407">
        <ele>975</ele>
        <time>2019-05-22T23:28:11Z</time>
      </trkpt>
      <trkpt lat="44.30845" lon="3.20397">
        <ele>974</ele>
        <time>2019-05-22T23:28:12Z</time>
      </trkpt>
      <trkpt lat="44.30845" lon="3.20306">
        <ele>967</ele>
        <time>2019-05-22T23:28:24Z</time>
      </trkpt>
      <trkpt lat="44.3085" lon="3.20264">
        <ele>963</ele>
        <time>2019-05-22T23:28:29Z</time>
      </trkpt>
      <trkpt lat="44.30804" lon="3.20184">
        <ele>956</ele>
        <time>2019-05-22T23:28:42Z</time>
      </trkpt>
      <trkpt lat="44.30795" lon="3.20158">
        <ele>953</ele>
        <time>2019-05-22T23:28:46Z</time>
      </trkpt>
      <trkpt lat="44.30792" lon="3.20088">
        <ele>948</ele>
        <time>2019-05-22T23:28:55Z</time>
      </trkpt>
      <trkpt lat="44.30821" lon="3.20008">
        <ele>946</ele>
        <time>2019-05-22T23:29:06Z</time>
      </trkpt>
      <trkpt lat="44.3085" lon="3.19919">
        <ele>942</ele>
        <time>2019-05-22T23:29:19Z</time>
      </trkpt>
      <trkpt lat="44.30854" lon="3.19887">
        <ele>940</ele>
        <time>2019-05-22T23:29:23Z</time>
      </trkpt>
      <trkpt lat="44.30844" lon="3.19761">
        <ele>937</ele>
        <time>2019-05-22T23:29:39Z</time>
      </trkpt>
      <trkpt lat="44.30836" lon="3.19717">
        <ele>935</ele>
        <time>2019-05-22T23:29:45Z</time>
      </trkpt>
      <trkpt lat="44.30807" lon="3.19603">
        <ele>930</ele>
        <time>2019-05-22T23:30:00Z</time>
      </trkpt>
      <trkpt lat="44.30785" lon="3.19476">
        <ele>921</ele>
        <time>2019-05-22T23:30:17Z</time>
      </trkpt>
      <trkpt lat="44.30788" lon="3.19414">
        <ele>917</ele>
        <time>2019-05-22T23:30:25Z</time>
      </trkpt>
      <trkpt lat="44.30784" lon="3.19394">
        <ele>916</ele>
        <time>2019-05-22T23:30:27Z</time>
      </trkpt>
      <trkpt lat="44.3074" lon="3.19304">
        <ele>911</ele>
        <time>2019-05-22T23:30:41Z</time>
      </trkpt>
      <trkpt lat="44.30732" lon="3.19245">
        <ele>909</ele>
        <time>2019-05-22T23:30:49Z</time>
      </trkpt>
      <trkpt lat="44.30727" lon="3.19107">
        <ele>896</ele>
        <time>2019-05-22T23:31:06Z</time>
      </trkpt>
      <trkpt lat="44.30735" lon="3.19025">
        <ele>889</ele>
        <time>2019-05-22T23:31:17Z</time>
      </trkpt>
      <trkpt lat="44.30736" lon="3.18997">
        <ele>887</ele>
        <time>2019-05-22T23:31:21Z</time>
      </trkpt>
      <trkpt lat="44.3074" lon="3.18968">
        <ele>885</ele>
        <time>2019-05-22T23:31:24Z</time>
      </trkpt>
      <trkpt lat="44.3075" lon="3.18932">
        <ele>882</ele>
        <time>2019-05-22T23:31:29Z</time>
      </trkpt>
      <trkpt lat="44.30756" lon="3.18899">
        <ele>881</ele>
        <time>2019-05-22T23:31:34Z</time>
      </trkpt>
      <trkpt lat="44.30757" lon="3.18854">
        <ele>881</ele>
        <time>2019-05-22T23:31:39Z</time>
      </trkpt>
      <trkpt lat="44.30747" lon="3.18757">
        <ele>881</ele>
        <time>2019-05-22T23:31:52Z</time>
      </trkpt>
      <trkpt lat="44.30742" lon="3.18693">
        <ele>880</ele>
        <time>2019-05-22T23:32:00Z</time>
      </trkpt>
      <trkpt lat="44.30744" lon="3.18651">
        <ele>879</ele>
        <time>2019-05-22T23:32:05Z</time>
      </trkpt>
      <trkpt lat="44.30743" lon="3.18615">
        <ele>877</ele>
        <time>2019-05-22T23:32:10Z</time>
      </trkpt>
      <trkpt lat="44.30727" lon="3.1853">
        <ele>873</ele>
        <time>2019-05-22T23:32:21Z</time>
      </trkpt>
      <trkpt lat="44.30705" lon="3.18298">
        <ele>867</ele>
        <time>2019-05-22T23:32:51Z</time>
      </trkpt>
      <trkpt lat="44.30705" lon="3.18199">
        <ele>867</ele>
        <time>2019-05-22T23:33:04Z</time>
      </trkpt>
      <trkpt lat="44.30698" lon="3.18147">
        <ele>867</ele>
        <time>2019-05-22T23:33:10Z</time>
      </trkpt>
      <trkpt lat="44.30699" lon="3.18031">
        <ele>867</ele>
        <time>2019-05-22T23:33:25Z</time>
      </trkpt>
      <trkpt lat="44.30688" lon="3.18016">
        <ele>867</ele>
        <time>2019-05-22T23:33:28Z</time>
      </trkpt>
      <trkpt lat="44.30695" lon="3.18001">
        <ele>867</ele>
        <time>2019-05-22T23:33:30Z</time>
      </trkpt>
      <trkpt lat="44.30705" lon="3.17932">
        <ele>869</ele>
        <time>2019-05-22T23:33:39Z</time>
      </trkpt>
      <trkpt lat="44.30713" lon="3.17896">
        <ele>869</ele>
        <time>2019-05-22T23:33:44Z</time>
      </trkpt>
      <trkpt lat="44.30744" lon="3.17819">
        <ele>868</ele>
        <time>2019-05-22T23:33:55Z</time>
      </trkpt>
      <trkpt lat="44.30812" lon="3.17724">
        <ele>866</ele>
        <time>2019-05-22T23:34:12Z</time>
      </trkpt>
      <trkpt lat="44.30836" lon="3.17649">
        <ele>865</ele>
        <time>2019-05-22T23:34:23Z</time>
      </trkpt>
      <trkpt lat="44.30846" lon="3.1761">
        <ele>866</ele>
        <time>2019-05-22T23:34:28Z</time>
      </trkpt>
      <trkpt lat="44.30832" lon="3.17598">
        <ele>866</ele>
        <time>2019-05-22T23:34:31Z</time>
      </trkpt>
      <trkpt lat="44.30816" lon="3.17591">
        <ele>865</ele>
        <time>2019-05-22T23:34:34Z</time>
      </trkpt>
      <trkpt lat="44.30804" lon="3.17581">
        <ele>865</ele>
        <time>2019-05-22T23:34:36Z</time>
      </trkpt>
      <trkpt lat="44.30724" lon="3.17558">
        <ele>862</ele>
        <time>2019-05-22T23:34:51Z</time>
      </trkpt>
      <trkpt lat="44.30705" lon="3.17518">
        <ele>862</ele>
        <time>2019-05-22T23:34:57Z</time>
      </trkpt>
      <trkpt lat="44.30649" lon="3.17438">
        <ele>864</ele>
        <time>2019-05-22T23:35:11Z</time>
      </trkpt>
      <trkpt lat="44.30555" lon="3.17351">
        <ele>869</ele>
        <time>2019-05-22T23:35:31Z</time>
      </trkpt>
      <trkpt lat="44.30544" lon="3.17329">
        <ele>869</ele>
        <time>2019-05-22T23:35:35Z</time>
      </trkpt>
      <trkpt lat="44.3054" lon="3.17311">
        <ele>870</ele>
        <time>2019-05-22T23:35:37Z</time>
      </trkpt>
      <trkpt lat="44.30522" lon="3.17306">
        <ele>871</ele>
        <time>2019-05-22T23:35:40Z</time>
      </trkpt>
      <trkpt lat="44.30502" lon="3.17291">
        <ele>872</ele>
        <time>2019-05-22T23:35:44Z</time>
      </trkpt>
      <trkpt lat="44.30471" lon="3.17266">
        <ele>871</ele>
        <time>2019-05-22T23:35:51Z</time>
      </trkpt>
      <trkpt lat="44.3042" lon="3.17241">
        <ele>868</ele>
        <time>2019-05-22T23:36:00Z</time>
      </trkpt>
      <trkpt lat="44.30368" lon="3.17225">
        <ele>866</ele>
        <time>2019-05-22T23:36:10Z</time>
      </trkpt>
      <trkpt lat="44.30346" lon="3.17221">
        <ele>865</ele>
        <time>2019-05-22T23:36:14Z</time>
      </trkpt>
      <trkpt lat="44.30328" lon="3.17222">
        <ele>865</ele>
        <time>2019-05-22T23:36:17Z</time>
      </trkpt>
      <trkpt lat="44.30266" lon="3.17242">
        <ele>869</ele>
        <time>2019-05-22T23:36:28Z</time>
      </trkpt>
      <trkpt lat="44.30206" lon="3.17266">
        <ele>871</ele>
        <time>2019-05-22T23:36:39Z</time>
      </trkpt>
      <trkpt lat="44.30084" lon="3.1732">
        <ele>870</ele>
        <time>2019-05-22T23:37:02Z</time>
      </trkpt>
      <trkpt lat="44.29862" lon="3.17402">
        <ele>862</ele>
        <time>2019-05-22T23:37:43Z</time>
      </trkpt>
      <trkpt lat="44.29835" lon="3.1741">
        <ele>863</ele>
        <time>2019-05-22T23:37:48Z</time>
      </trkpt>
      <trkpt lat="44.29812" lon="3.17412">
        <ele>863</ele>
        <time>2019-05-22T23:37:52Z</time>
      </trkpt>
      <trkpt lat="44.29694" lon="3.1741">
        <ele>863</ele>
        <time>2019-05-22T23:38:13Z</time>
      </trkpt>
      <trkpt lat="44.29513" lon="3.17412">
        <ele>863</ele>
        <time>2019-05-22T23:38:45Z</time>
      </trkpt>
      <trkpt lat="44.29483" lon="3.17416">
        <ele>862</ele>
        <time>2019-05-22T23:38:51Z</time>
      </trkpt>
      <trkpt lat="44.29465" lon="3.17423">
        <ele>860</ele>
        <time>2019-05-22T23:38:54Z</time>
      </trkpt>
      <trkpt lat="44.2945" lon="3.17433">
        <ele>859</ele>
        <time>2019-05-22T23:38:57Z</time>
      </trkpt>
      <trkpt lat="44.29422" lon="3.17459">
        <ele>857</ele>
        <time>2019-05-22T23:39:03Z</time>
      </trkpt>
      <trkpt lat="44.29401" lon="3.17482">
        <ele>856</ele>
        <time>2019-05-22T23:39:08Z</time>
      </trkpt>
      <trkpt lat="44.29382" lon="3.17506">
        <ele>855</ele>
        <time>2019-05-22T23:39:12Z</time>
      </trkpt>
      <trkpt lat="44.29369" lon="3.17529">
        <ele>854</ele>
        <time>2019-05-22T23:39:16Z</time>
      </trkpt>
      <trkpt lat="44.29343" lon="3.17582">
        <ele>851</ele>
        <time>2019-05-22T23:39:24Z</time>
      </trkpt>
      <trkpt lat="44.29328" lon="3.17606">
        <ele>850</ele>
        <time>2019-05-22T23:39:28Z</time>
      </trkpt>
      <trkpt lat="44.29312" lon="3.17624">
        <ele>851</ele>
        <time>2019-05-22T23:39:32Z</time>
      </trkpt>
      <trkpt lat="44.29296" lon="3.17634">
        <ele>851</ele>
        <time>2019-05-22T23:39:35Z</time>
      </trkpt>
      <trkpt lat="44.2928" lon="3.17642">
        <ele>852</ele>
        <time>2019-05-22T23:39:38Z</time>
      </trkpt>
      <trkpt lat="44.29263" lon="3.17645">
        <ele>853</ele>
        <time>2019-05-22T23:39:41Z</time>
      </trkpt>
      <trkpt lat="44.29244" lon="3.17645">
        <ele>853</ele>
        <time>2019-05-22T23:39:44Z</time>
      </trkpt>
      <trkpt lat="44.29228" lon="3.17641">
        <ele>854</ele>
        <time>2019-05-22T23:39:47Z</time>
      </trkpt>
      <trkpt lat="44.29145" lon="3.176">
        <ele>851</ele>
        <time>2019-05-22T23:40:03Z</time>
      </trkpt>
      <trkpt lat="44.29116" lon="3.17579">
        <ele>851</ele>
        <time>2019-05-22T23:40:09Z</time>
      </trkpt>
      <trkpt lat="44.2907" lon="3.17533">
        <ele>853</ele>
        <time>2019-05-22T23:40:19Z</time>
      </trkpt>
      <trkpt lat="44.28876" lon="3.17434">
        <ele>863</ele>
        <time>2019-05-22T23:40:56Z</time>
      </trkpt>
      <trkpt lat="44.28858" lon="3.17427">
        <ele>865</ele>
        <time>2019-05-22T23:40:59Z</time>
      </trkpt>
      <trkpt lat="44.28835" lon="3.17422">
        <ele>866</ele>
        <time>2019-05-22T23:41:03Z</time>
      </trkpt>
      <trkpt lat="44.28742" lon="3.17415">
        <ele>873</ele>
        <time>2019-05-22T23:41:20Z</time>
      </trkpt>
      <trkpt lat="44.28708" lon="3.17404">
        <ele>873</ele>
        <time>2019-05-22T23:41:26Z</time>
      </trkpt>
      <trkpt lat="44.28685" lon="3.1739">
        <ele>874</ele>
        <time>2019-05-22T23:41:30Z</time>
      </trkpt>
      <trkpt lat="44.28666" lon="3.17374">
        <ele>876</ele>
        <time>2019-05-22T23:41:34Z</time>
      </trkpt>
      <trkpt lat="44.28628" lon="3.17331">
        <ele>880</ele>
        <time>2019-05-22T23:41:43Z</time>
      </trkpt>
      <trkpt lat="44.28605" lon="3.173">
        <ele>881</ele>
        <time>2019-05-22T23:41:49Z</time>
      </trkpt>
      <trkpt lat="44.28579" lon="3.1726">
        <ele>882</ele>
        <time>2019-05-22T23:41:56Z</time>
      </trkpt>
      <trkpt lat="44.28561" lon="3.17238">
        <ele>883</ele>
        <time>2019-05-22T23:42:00Z</time>
      </trkpt>
      <trkpt lat="44.28534" lon="3.17216">
        <ele>884</ele>
        <time>2019-05-22T23:42:05Z</time>
      </trkpt>
      <trkpt lat="44.28524" lon="3.17211">
        <ele>884</ele>
        <time>2019-05-22T23:42:07Z</time>
      </trkpt>
      <trkpt lat="44.28515" lon="3.17211">
        <ele>884</ele>
        <time>2019-05-22T23:42:09Z</time>
      </trkpt>
      <trkpt lat="44.28503" lon="3.17214">
        <ele>883</ele>
        <time>2019-05-22T23:42:11Z</time>
      </trkpt>
      <trkpt lat="44.28488" lon="3.17225">
        <ele>882</ele>
        <time>2019-05-22T23:42:14Z</time>
      </trkpt>
      <trkpt lat="44.28458" lon="3.17252">
        <ele>881</ele>
        <time>2019-05-22T23:42:20Z</time>
      </trkpt>
      <trkpt lat="44.28419" lon="3.17281">
        <ele>882</ele>
        <time>2019-05-22T23:42:28Z</time>
      </trkpt>
      <trkpt lat="44.28389" lon="3.1729">
        <ele>880</ele>
        <time>2019-05-22T23:42:34Z</time>
      </trkpt>
      <trkpt lat="44.28375" lon="3.17289">
        <ele>880</ele>
        <time>2019-05-22T23:42:36Z</time>
      </trkpt>
      <trkpt lat="44.28356" lon="3.17285">
        <ele>879</ele>
        <time>2019-05-22T23:42:40Z</time>
      </trkpt>
      <trkpt lat="44.28033" lon="3.17167">
        <ele>886</ele>
        <time>2019-05-22T23:43:39Z</time>
      </trkpt>
      <trkpt lat="44.27857" lon="3.1708">
        <ele>884</ele>
        <time>2019-05-22T23:44:12Z</time>
      </trkpt>
      <trkpt lat="44.27836" lon="3.17074">
        <ele>883</ele>
        <time>2019-05-22T23:44:16Z</time>
      </trkpt>
      <trkpt lat="44.27822" lon="3.17072">
        <ele>882</ele>
        <time>2019-05-22T23:44:19Z</time>
      </trkpt>
      <trkpt lat="44.27744" lon="3.1708">
        <ele>879</ele>
        <time>2019-05-22T23:44:32Z</time>
      </trkpt>
      <trkpt lat="44.27571" lon="3.17084">
        <ele>869</ele>
        <time>2019-05-22T23:45:03Z</time>
      </trkpt>
      <trkpt lat="44.2755" lon="3.17081">
        <ele>867</ele>
        <time>2019-05-22T23:45:07Z</time>
      </trkpt>
      <trkpt lat="44.27534" lon="3.17075">
        <ele>866</ele>
        <time>2019-05-22T23:45:10Z</time>
      </trkpt>
      <trkpt lat="44.27514" lon="3.17064">
        <ele>864</ele>
        <time>2019-05-22T23:45:14Z</time>
      </trkpt>
      <trkpt lat="44.274" lon="3.1699">
        <ele>863</ele>
        <time>2019-05-22T23:45:36Z</time>
      </trkpt>
      <trkpt lat="44.2733" lon="3.1693">
        <ele>865</ele>
        <time>2019-05-22T23:45:51Z</time>
      </trkpt>
      <trkpt lat="44.27315" lon="3.16914">
        <ele>865</ele>
        <time>2019-05-22T23:45:54Z</time>
      </trkpt>
      <trkpt lat="44.27301" lon="3.16894">
        <ele>864</ele>
        <time>2019-05-22T23:45:58Z</time>
      </trkpt>
      <trkpt lat="44.27293" lon="3.1688">
        <ele>864</ele>
        <time>2019-05-22T23:46:00Z</time>
      </trkpt>
      <trkpt lat="44.27263" lon="3.16805">
        <ele>863</ele>
        <time>2019-05-22T23:46:11Z</time>
      </trkpt>
      <trkpt lat="44.27254" lon="3.16786">
        <ele>862</ele>
        <time>2019-05-22T23:46:14Z</time>
      </trkpt>
      <trkpt lat="44.27235" lon="3.16763">
        <ele>861</ele>
        <time>2019-05-22T23:46:18Z</time>
      </trkpt>
      <trkpt lat="44.27234" lon="3.16789">
        <ele>860</ele>
        <time>2019-05-22T23:46:22Z</time>
      </trkpt>
      <trkpt lat="44.27229" lon="3.1681">
        <ele>859</ele>
        <time>2019-05-22T23:46:24Z</time>
      </trkpt>
      <trkpt lat="44.27224" lon="3.16818">
        <ele>859</ele>
        <time>2019-05-22T23:46:26Z</time>
      </trkpt>
      <trkpt lat="44.27256" lon="3.16873">
        <ele>861</ele>
        <time>2019-05-22T23:46:35Z</time>
      </trkpt>
      <trkpt lat="44.27282" lon="3.16913">
        <ele>862</ele>
        <time>2019-05-22T23:46:42Z</time>
      </trkpt>
      <trkpt lat="44.27379" lon="3.17013">
        <ele>861</ele>
        <time>2019-05-22T23:47:03Z</time>
      </trkpt>
      <trkpt lat="44.27482" lon="3.17091">
        <ele>862</ele>
        <time>2019-05-22T23:47:24Z</time>
      </trkpt>
      <trkpt lat="44.27506" lon="3.17106">
        <ele>863</ele>
        <time>2019-05-22T23:47:29Z</time>
      </trkpt>
      <trkpt lat="44.2753" lon="3.17118">
        <ele>864</ele>
        <time>2019-05-22T23:47:33Z</time>
      </trkpt>
      <trkpt lat="44.27552" lon="3.17123">
        <ele>866</ele>
        <time>2019-05-22T23:47:37Z</time>
      </trkpt>
      <trkpt lat="44.27572" lon="3.17124">
        <ele>868</ele>
        <time>2019-05-22T23:47:41Z</time>
      </trkpt>
      <trkpt lat="44.27606" lon="3.17117">
        <ele>871</ele>
        <time>2019-05-22T23:47:47Z</time>
      </trkpt>
      <trkpt lat="44.27671" lon="3.17111">
        <ele>877</ele>
        <time>2019-05-22T23:47:58Z</time>
      </trkpt>
      <trkpt lat="44.27726" lon="3.1711">
        <ele>878</ele>
        <time>2019-05-22T23:48:08Z</time>
      </trkpt>
      <trkpt lat="44.27775" lon="3.1711">
        <ele>879</ele>
        <time>2019-05-22T23:48:17Z</time>
      </trkpt>
      <trkpt lat="44.27843" lon="3.17115">
        <ele>881</ele>
        <time>2019-05-22T23:48:29Z</time>
      </trkpt>
      <trkpt lat="44.27876" lon="3.17123">
        <ele>883</ele>
        <time>2019-05-22T23:48:35Z</time>
      </trkpt>
      <trkpt lat="44.27912" lon="3.17142">
        <ele>883</ele>
        <time>2019-05-22T23:48:42Z</time>
      </trkpt>
      <trkpt lat="44.27953" lon="3.1716">
        <ele>884</ele>
        <time>2019-05-22T23:48:50Z</time>
      </trkpt>
      <trkpt lat="44.27989" lon="3.17178">
        <ele>885</ele>
        <time>2019-05-22T23:48:56Z</time>
      </trkpt>
      <trkpt lat="44.28038" lon="3.17199">
        <ele>884</ele>
        <time>2019-05-22T23:49:05Z</time>
      </trkpt>
      <trkpt lat="44.28082" lon="3.17216">
        <ele>883</ele>
        <time>2019-05-22T23:49:14Z</time>
      </trkpt>
      <trkpt lat="44.2816" lon="3.1724">
        <ele>882</ele>
        <time>2019-05-22T23:49:28Z</time>
      </trkpt>
      <trkpt lat="44.28202" lon="3.17257">
        <ele>883</ele>
        <time>2019-05-22T23:49:36Z</time>
      </trkpt>
      <trkpt lat="44.28194" lon="3.17292">
        <ele>882</ele>
        <time>2019-05-22T23:49:40Z</time>
      </trkpt>
      <trkpt lat="44.28194" lon="3.17292">
        <ele>882</ele>
        <time>2019-05-22T23:49:40Z</time>
      </trkpt>
      <trkpt lat="44.28202" lon="3.17257">
        <ele>883</ele>
        <time>2019-05-22T23:49:45Z</time>
      </trkpt>
      <trkpt lat="44.2816" lon="3.1724">
        <ele>882</ele>
        <time>2019-05-22T23:49:53Z</time>
      </trkpt>
      <trkpt lat="44.28082" lon="3.17216">
        <ele>883</ele>
        <time>2019-05-22T23:50:07Z</time>
      </trkpt>
      <trkpt lat="44.28038" lon="3.17199">
        <ele>884</ele>
        <time>2019-05-22T23:50:15Z</time>
      </trkpt>
      <trkpt lat="44.27989" lon="3.17178">
        <ele>885</ele>
        <time>2019-05-22T23:50:24Z</time>
      </trkpt>
      <trkpt lat="44.27953" lon="3.1716">
        <ele>884</ele>
        <time>2019-05-22T23:50:31Z</time>
      </trkpt>
      <trkpt lat="44.27912" lon="3.17142">
        <ele>883</ele>
        <time>2019-05-22T23:50:39Z</time>
      </trkpt>
      <trkpt lat="44.27876" lon="3.17123">
        <ele>883</ele>
        <time>2019-05-22T23:50:45Z</time>
      </trkpt>
      <trkpt lat="44.27843" lon="3.17115">
        <ele>881</ele>
        <time>2019-05-22T23:50:51Z</time>
      </trkpt>
      <trkpt lat="44.27775" lon="3.1711">
        <ele>879</ele>
        <time>2019-05-22T23:51:04Z</time>
      </trkpt>
      <trkpt lat="44.27726" lon="3.1711">
        <ele>878</ele>
        <time>2019-05-22T23:51:12Z</time>
      </trkpt>
      <trkpt lat="44.27671" lon="3.17111">
        <ele>877</ele>
        <time>2019-05-22T23:51:22Z</time>
      </trkpt>
      <trkpt lat="44.27606" lon="3.17117">
        <ele>871</ele>
        <time>2019-05-22T23:51:34Z</time>
      </trkpt>
      <trkpt lat="44.27572" lon="3.17124">
        <ele>868</ele>
        <time>2019-05-22T23:51:40Z</time>
      </trkpt>
      <trkpt lat="44.27552" lon="3.17123">
        <ele>866</ele>
        <time>2019-05-22T23:51:43Z</time>
      </trkpt>
      <trkpt lat="44.2753" lon="3.17118">
        <ele>864</ele>
        <time>2019-05-22T23:51:47Z</time>
      </trkpt>
      <trkpt lat="44.27506" lon="3.17106">
        <ele>863</ele>
        <time>2019-05-22T23:51:52Z</time>
      </trkpt>
      <trkpt lat="44.27482" lon="3.17091">
        <ele>862</ele>
        <time>2019-05-22T23:51:56Z</time>
      </trkpt>
      <trkpt lat="44.27379" lon="3.17013">
        <ele>861</ele>
        <time>2019-05-22T23:52:17Z</time>
      </trkpt>
      <trkpt lat="44.27282" lon="3.16913">
        <ele>862</ele>
        <time>2019-05-22T23:52:39Z</time>
      </trkpt>
      <trkpt lat="44.27256" lon="3.16873">
        <ele>861</ele>
        <time>2019-05-22T23:52:46Z</time>
      </trkpt>
      <trkpt lat="44.27224" lon="3.16818">
        <ele>859</ele>
        <time>2019-05-22T23:52:55Z</time>
      </trkpt>
      <trkpt lat="44.27229" lon="3.1681">
        <ele>859</ele>
        <time>2019-05-22T23:52:56Z</time>
      </trkpt>
      <trkpt lat="44.27234" lon="3.16789">
        <ele>860</ele>
        <time>2019-05-22T23:52:59Z</time>
      </trkpt>
      <trkpt lat="44.27235" lon="3.16763">
        <ele>861</ele>
        <time>2019-05-22T23:53:02Z</time>
      </trkpt>
      <trkpt lat="44.27177" lon="3.16711">
        <ele>858</ele>
        <time>2019-05-22T23:53:14Z</time>
      </trkpt>
      <trkpt lat="44.27138" lon="3.16682">
        <ele>858</ele>
        <time>2019-05-22T23:53:22Z</time>
      </trkpt>
      <trkpt lat="44.271" lon="3.16642">
        <ele>859</ele>
        <time>2019-05-22T23:53:31Z</time>
      </trkpt>
      <trkpt lat="44.27086" lon="3.16631">
        <ele>859</ele>
        <time>2019-05-22T23:53:34Z</time>
      </trkpt>
      <trkpt lat="44.27031" lon="3.16601">
        <ele>860</ele>
        <time>2019-05-22T23:53:44Z</time>
      </trkpt>
      <trkpt lat="44.27014" lon="3.16587">
        <ele>861</ele>
        <time>2019-05-22T23:53:48Z</time>
      </trkpt>
      <trkpt lat="44.27005" lon="3.16576">
        <ele>861</ele>
        <time>2019-05-22T23:53:50Z</time>
      </trkpt>
      <trkpt lat="44.26994" lon="3.16561">
        <ele>862</ele>
        <time>2019-05-22T23:53:52Z</time>
      </trkpt>
      <trkpt lat="44.26913" lon="3.1643">
        <ele>869</ele>
        <time>2019-05-22T23:54:15Z</time>
      </trkpt>
      <trkpt lat="44.26902" lon="3.16404">
        <ele>869</ele>
        <time>2019-05-22T23:54:18Z</time>
      </trkpt>
      <trkpt lat="44.26895" lon="3.16383">
        <ele>870</ele>
        <time>2019-05-22T23:54:21Z</time>
      </trkpt>
      <trkpt lat="44.26892" lon="3.1636">
        <ele>870</ele>
        <time>2019-05-22T23:54:24Z</time>
      </trkpt>
      <trkpt lat="44.26889" lon="3.16316">
        <ele>871</ele>
        <time>2019-05-22T23:54:30Z</time>
      </trkpt>
      <trkpt lat="44.26885" lon="3.16301">
        <ele>871</ele>
        <time>2019-05-22T23:54:32Z</time>
      </trkpt>
      <trkpt lat="44.26879" lon="3.16288">
        <ele>872</ele>
        <time>2019-05-22T23:54:34Z</time>
      </trkpt>
      <trkpt lat="44.26871" lon="3.16278">
        <ele>872</ele>
        <time>2019-05-22T23:54:36Z</time>
      </trkpt>
      <trkpt lat="44.26851" lon="3.16266">
        <ele>874</ele>
        <time>2019-05-22T23:54:40Z</time>
      </trkpt>
      <trkpt lat="44.26828" lon="3.1626">
        <ele>875</ele>
        <time>2019-05-22T23:54:44Z</time>
      </trkpt>
      <trkpt lat="44.26805" lon="3.1625">
        <ele>875</ele>
        <time>2019-05-22T23:54:48Z</time>
      </trkpt>
      <trkpt lat="44.26784" lon="3.16239">
        <ele>874</ele>
        <time>2019-05-22T23:54:52Z</time>
      </trkpt>
      <trkpt lat="44.26671" lon="3.16157">
        <ele>871</ele>
        <time>2019-05-22T23:55:15Z</time>
      </trkpt>
      <trkpt lat="44.26485" lon="3.16036">
        <ele>867</ele>
        <time>2019-05-22T23:55:51Z</time>
      </trkpt>
      <trkpt lat="44.26468" lon="3.16027">
        <ele>868</ele>
        <time>2019-05-22T23:55:55Z</time>
      </trkpt>
      <trkpt lat="44.26452" lon="3.16023">
        <ele>868</ele>
        <time>2019-05-22T23:55:57Z</time>
      </trkpt>
      <trkpt lat="44.26361" lon="3.16042">
        <ele>870</ele>
        <time>2019-05-22T23:56:14Z</time>
      </trkpt>
      <trkpt lat="44.26312" lon="3.1605">
        <ele>870</ele>
        <time>2019-05-22T23:56:23Z</time>
      </trkpt>
      <trkpt lat="44.26275" lon="3.16054">
        <ele>869</ele>
        <time>2019-05-22T23:56:29Z</time>
      </trkpt>
      <trkpt lat="44.26254" lon="3.16053">
        <ele>868</ele>
        <time>2019-05-22T23:56:33Z</time>
      </trkpt>
      <trkpt lat="44.26217" lon="3.16036">
        <ele>866</ele>
        <time>2019-05-22T23:56:40Z</time>
      </trkpt>
      <trkpt lat="44.26137" lon="3.15978">
        <ele>862</ele>
        <time>2019-05-22T23:56:56Z</time>
      </trkpt>
      <trkpt lat="44.26119" lon="3.15968">
        <ele>861</ele>
        <time>2019-05-22T23:56:59Z</time>
      </trkpt>
      <trkpt lat="44.26104" lon="3.15964">
        <ele>861</ele>
        <time>2019-05-22T23:57:02Z</time>
      </trkpt>
      <trkpt lat="44.25981" lon="3.15974">
        <ele>859</ele>
        <time>2019-05-22T23:57:24Z</time>
      </trkpt>
      <trkpt lat="44.25913" lon="3.15996">
        <ele>860</ele>
        <time>2019-05-22T23:57:36Z</time>
      </trkpt>
      <trkpt lat="44.25864" lon="3.15999">
        <ele>860</ele>
        <time>2019-05-22T23:57:45Z</time>
      </trkpt>
      <trkpt lat="44.25803" lon="3.15996">
        <ele>862</ele>
        <time>2019-05-22T23:57:56Z</time>
      </trkpt>
      <trkpt lat="44.25785" lon="3.15998">
        <ele>864</ele>
        <time>2019-05-22T23:57:59Z</time>
      </trkpt>
      <trkpt lat="44.25764" lon="3.16003">
        <ele>865</ele>
        <time>2019-05-22T23:58:03Z</time>
      </trkpt>
      <trkpt lat="44.25747" lon="3.16011">
        <ele>866</ele>
        <time>2019-05-22T23:58:06Z</time>
      </trkpt>
      <trkpt lat="44.25722" lon="3.1603">
        <ele>866</ele>
        <time>2019-05-22T23:58:11Z</time>
      </trkpt>
      <trkpt lat="44.25701" lon="3.16058">
        <ele>867</ele>
        <time>2019-05-22T23:58:16Z</time>
      </trkpt>
      <trkpt lat="44.25694" lon="3.16071">
        <ele>867</ele>
        <time>2019-05-22T23:58:19Z</time>
      </trkpt>
      <trkpt lat="44.2567" lon="3.16138">
        <ele>870</ele>
        <time>2019-05-22T23:58:28Z</time>
      </trkpt>
      <trkpt lat="44.25664" lon="3.1615">
        <ele>871</ele>
        <time>2019-05-22T23:58:30Z</time>
      </trkpt>
      <trkpt lat="44.2566" lon="3.16155">
        <ele>871</ele>
        <time>2019-05-22T23:58:31Z</time>
      </trkpt>
      <trkpt lat="44.25656" lon="3.16165">
        <ele>871</ele>
        <time>2019-05-22T23:58:32Z</time>
      </trkpt>
      <trkpt lat="44.25641" lon="3.16193">
        <ele>871</ele>
        <time>2019-05-22T23:58:37Z</time>
      </trkpt>
      <trkpt lat="44.25577" lon="3.16324">
        <ele>872</ele>
        <time>2019-05-22T23:58:57Z</time>
      </trkpt>
      <trkpt lat="44.25553" lon="3.16351">
        <ele>872</ele>
        <time>2019-05-22T23:59:03Z</time>
      </trkpt>
      <trkpt lat="44.25327" lon="3.16435">
        <ele>879</ele>
        <time>2019-05-22T23:59:44Z</time>
      </trkpt>
      <trkpt lat="44.25265" lon="3.1646">
        <ele>877</ele>
        <time>2019-05-22T23:59:56Z</time>
      </trkpt>
      <trkpt lat="44.25221" lon="3.16487">
        <ele>876</ele>
        <time>2019-05-23T00:00:04Z</time>
      </trkpt>
      <trkpt lat="44.25186" lon="3.16525">
        <ele>875</ele>
        <time>2019-05-23T00:00:12Z</time>
      </trkpt>
      <trkpt lat="44.25149" lon="3.1659">
        <ele>873</ele>
        <time>2019-05-23T00:00:23Z</time>
      </trkpt>
      <trkpt lat="44.25089" lon="3.16628">
        <ele>870</ele>
        <time>2019-05-23T00:00:34Z</time>
      </trkpt>
      <trkpt lat="44.24926" lon="3.16656">
        <ele>867</ele>
        <time>2019-05-23T00:01:04Z</time>
      </trkpt>
      <trkpt lat="44.24779" lon="3.16718">
        <ele>861</ele>
        <time>2019-05-23T00:01:31Z</time>
      </trkpt>
      <trkpt lat="44.24552" lon="3.16802">
        <ele>862</ele>
        <time>2019-05-23T00:02:13Z</time>
      </trkpt>
      <trkpt lat="44.2451" lon="3.1683">
        <ele>863</ele>
        <time>2019-05-23T00:02:21Z</time>
      </trkpt>
      <trkpt lat="44.24477" lon="3.16854">
        <ele>862</ele>
        <time>2019-05-23T00:02:28Z</time>
      </trkpt>
      <trkpt lat="44.24426" lon="3.1688">
        <ele>863</ele>
        <time>2019-05-23T00:02:37Z</time>
      </trkpt>
      <trkpt lat="44.24355" lon="3.16911">
        <ele>861</ele>
        <time>2019-05-23T00:02:50Z</time>
      </trkpt>
      <trkpt lat="44.24329" lon="3.16911">
        <ele>860</ele>
        <time>2019-05-23T00:02:55Z</time>
      </trkpt>
      <trkpt lat="44.24275" lon="3.16925">
        <ele>858</ele>
        <time>2019-05-23T00:03:05Z</time>
      </trkpt>
      <trkpt lat="44.24241" lon="3.1693">
        <ele>856</ele>
        <time>2019-05-23T00:03:11Z</time>
      </trkpt>
      <trkpt lat="44.24216" lon="3.16949">
        <ele>854</ele>
        <time>2019-05-23T00:03:16Z</time>
      </trkpt>
      <trkpt lat="44.24198" lon="3.16973">
        <ele>853</ele>
        <time>2019-05-23T00:03:20Z</time>
      </trkpt>
      <trkpt lat="44.24172" lon="3.17003">
        <ele>852</ele>
        <time>2019-05-23T00:03:26Z</time>
      </trkpt>
      <trkpt lat="44.24143" lon="3.17024">
        <ele>850</ele>
        <time>2019-05-23T00:03:32Z</time>
      </trkpt>
      <trkpt lat="44.24112" lon="3.17038">
        <ele>849</ele>
        <time>2019-05-23T00:03:38Z</time>
      </trkpt>
      <trkpt lat="44.2409" lon="3.17061">
        <ele>847</ele>
        <time>2019-05-23T00:03:43Z</time>
      </trkpt>
      <trkpt lat="44.24047" lon="3.17135">
        <ele>843</ele>
        <time>2019-05-23T00:03:55Z</time>
      </trkpt>
      <trkpt lat="44.24047" lon="3.17135">
        <ele>843</ele>
        <time>2019-05-23T00:03:55Z</time>
      </trkpt>
      <trkpt lat="44.24024" lon="3.17169">
        <ele>842</ele>
        <time>2019-05-23T00:04:01Z</time>
      </trkpt>
      <trkpt lat="44.23989" lon="3.17208">
        <ele>840</ele>
        <time>2019-05-23T00:04:09Z</time>
      </trkpt>
      <trkpt lat="44.23966" lon="3.17244">
        <ele>839</ele>
        <time>2019-05-23T00:04:15Z</time>
      </trkpt>
      <trkpt lat="44.23952" lon="3.17278">
        <ele>837</ele>
        <time>2019-05-23T00:04:20Z</time>
      </trkpt>
      <trkpt lat="44.23932" lon="3.17303">
        <ele>835</ele>
        <time>2019-05-23T00:04:25Z</time>
      </trkpt>
      <trkpt lat="44.23913" lon="3.17333">
        <ele>832</ele>
        <time>2019-05-23T00:04:30Z</time>
      </trkpt>
      <trkpt lat="44.23887" lon="3.17395">
        <ele>828</ele>
        <time>2019-05-23T00:04:39Z</time>
      </trkpt>
      <trkpt lat="44.23847" lon="3.17453">
        <ele>823</ele>
        <time>2019-05-23T00:04:49Z</time>
      </trkpt>
      <trkpt lat="44.23817" lon="3.17461">
        <ele>822</ele>
        <time>2019-05-23T00:04:55Z</time>
      </trkpt>
      <trkpt lat="44.2379" lon="3.17486">
        <ele>818</ele>
        <time>2019-05-23T00:05:01Z</time>
      </trkpt>
      <trkpt lat="44.23761" lon="3.17519">
        <ele>814</ele>
        <time>2019-05-23T00:05:07Z</time>
      </trkpt>
      <trkpt lat="44.23735" lon="3.17552">
        <ele>811</ele>
        <time>2019-05-23T00:05:14Z</time>
      </trkpt>
      <trkpt lat="44.23718" lon="3.17587">
        <ele>808</ele>
        <time>2019-05-23T00:05:19Z</time>
      </trkpt>
      <trkpt lat="44.23618" lon="3.17662">
        <ele>796</ele>
        <time>2019-05-23T00:05:39Z</time>
      </trkpt>
      <trkpt lat="44.23601" lon="3.17662">
        <ele>795</ele>
        <time>2019-05-23T00:05:42Z</time>
      </trkpt>
      <trkpt lat="44.23568" lon="3.17637">
        <ele>797</ele>
        <time>2019-05-23T00:05:49Z</time>
      </trkpt>
      <trkpt lat="44.23547" lon="3.17627">
        <ele>797</ele>
        <time>2019-05-23T00:05:53Z</time>
      </trkpt>
      <trkpt lat="44.23527" lon="3.17629">
        <ele>795</ele>
        <time>2019-05-23T00:05:56Z</time>
      </trkpt>
      <trkpt lat="44.23507" lon="3.17639">
        <ele>792</ele>
        <time>2019-05-23T00:06:00Z</time>
      </trkpt>
      <trkpt lat="44.23443" lon="3.17705">
        <ele>789</ele>
        <time>2019-05-23T00:06:14Z</time>
      </trkpt>
      <trkpt lat="44.23413" lon="3.17745">
        <ele>784</ele>
        <time>2019-05-23T00:06:22Z</time>
      </trkpt>
      <trkpt lat="44.23376" lon="3.17804">
        <ele>778</ele>
        <time>2019-05-23T00:06:32Z</time>
      </trkpt>
      <trkpt lat="44.2336" lon="3.17807">
        <ele>777</ele>
        <time>2019-05-23T00:06:35Z</time>
      </trkpt>
      <trkpt lat="44.23336" lon="3.17808">
        <ele>777</ele>
        <time>2019-05-23T00:06:39Z</time>
      </trkpt>
      <trkpt lat="44.23318" lon="3.17818">
        <ele>775</ele>
        <time>2019-05-23T00:06:42Z</time>
      </trkpt>
      <trkpt lat="44.23275" lon="3.17895">
        <ele>763</ele>
        <time>2019-05-23T00:06:55Z</time>
      </trkpt>
      <trkpt lat="44.23253" lon="3.17905">
        <ele>759</ele>
        <time>2019-05-23T00:06:59Z</time>
      </trkpt>
      <trkpt lat="44.23226" lon="3.1791">
        <ele>756</ele>
        <time>2019-05-23T00:07:04Z</time>
      </trkpt>
      <trkpt lat="44.23203" lon="3.17906">
        <ele>755</ele>
        <time>2019-05-23T00:07:08Z</time>
      </trkpt>
      <trkpt lat="44.23149" lon="3.17883">
        <ele>758</ele>
        <time>2019-05-23T00:07:18Z</time>
      </trkpt>
      <trkpt lat="44.23135" lon="3.17885">
        <ele>756</ele>
        <time>2019-05-23T00:07:20Z</time>
      </trkpt>
      <trkpt lat="44.23109" lon="3.17903">
        <ele>747</ele>
        <time>2019-05-23T00:07:26Z</time>
      </trkpt>
      <trkpt lat="44.231" lon="3.17905">
        <ele>745</ele>
        <time>2019-05-23T00:07:27Z</time>
      </trkpt>
      <trkpt lat="44.23085" lon="3.17897">
        <ele>746</ele>
        <time>2019-05-23T00:07:30Z</time>
      </trkpt>
      <trkpt lat="44.23065" lon="3.1788">
        <ele>749</ele>
        <time>2019-05-23T00:07:34Z</time>
      </trkpt>
      <trkpt lat="44.23043" lon="3.17865">
        <ele>750</ele>
        <time>2019-05-23T00:07:39Z</time>
      </trkpt>
      <trkpt lat="44.2302" lon="3.17855">
        <ele>749</ele>
        <time>2019-05-23T00:07:43Z</time>
      </trkpt>
      <trkpt lat="44.23002" lon="3.17854">
        <ele>746</ele>
        <time>2019-05-23T00:07:46Z</time>
      </trkpt>
      <trkpt lat="44.22986" lon="3.17858">
        <ele>745</ele>
        <time>2019-05-23T00:07:49Z</time>
      </trkpt>
      <trkpt lat="44.22962" lon="3.17875">
        <ele>740</ele>
        <time>2019-05-23T00:07:54Z</time>
      </trkpt>
      <trkpt lat="44.22931" lon="3.17885">
        <ele>738</ele>
        <time>2019-05-23T00:07:59Z</time>
      </trkpt>
      <trkpt lat="44.2291" lon="3.17897">
        <ele>734</ele>
        <time>2019-05-23T00:08:03Z</time>
      </trkpt>
      <trkpt lat="44.22891" lon="3.17918">
        <ele>725</ele>
        <time>2019-05-23T00:08:08Z</time>
      </trkpt>
      <trkpt lat="44.22871" lon="3.17931">
        <ele>721</ele>
        <time>2019-05-23T00:08:12Z</time>
      </trkpt>
      <trkpt lat="44.22859" lon="3.17932">
        <ele>719</ele>
        <time>2019-05-23T00:08:14Z</time>
      </trkpt>
      <trkpt lat="44.22844" lon="3.17923">
        <ele>719</ele>
        <time>2019-05-23T00:08:17Z</time>
      </trkpt>
      <trkpt lat="44.22797" lon="3.17883">
        <ele>719</ele>
        <time>2019-05-23T00:08:27Z</time>
      </trkpt>
      <trkpt lat="44.22772" lon="3.17851">
        <ele>723</ele>
        <time>2019-05-23T00:08:33Z</time>
      </trkpt>
      <trkpt lat="44.22744" lon="3.17836">
        <ele>720</ele>
        <time>2019-05-23T00:08:38Z</time>
      </trkpt>
      <trkpt lat="44.22705" lon="3.17833">
        <ele>715</ele>
        <time>2019-05-23T00:08:45Z</time>
      </trkpt>
      <trkpt lat="44.22656" lon="3.17823">
        <ele>710</ele>
        <time>2019-05-23T00:08:54Z</time>
      </trkpt>
      <trkpt lat="44.22583" lon="3.17814">
        <ele>696</ele>
        <time>2019-05-23T00:09:07Z</time>
      </trkpt>
      <trkpt lat="44.22499" lon="3.17758">
        <ele>692</ele>
        <time>2019-05-23T00:09:23Z</time>
      </trkpt>
      <trkpt lat="44.22483" lon="3.17739">
        <ele>694</ele>
        <time>2019-05-23T00:09:27Z</time>
      </trkpt>
      <trkpt lat="44.22475" lon="3.17708">
        <ele>700</ele>
        <time>2019-05-23T00:09:31Z</time>
      </trkpt>
      <trkpt lat="44.22463" lon="3.17691">
        <ele>703</ele>
        <time>2019-05-23T00:09:34Z</time>
      </trkpt>
      <trkpt lat="44.22447" lon="3.17684">
        <ele>704</ele>
        <time>2019-05-23T00:09:37Z</time>
      </trkpt>
      <trkpt lat="44.22351" lon="3.17729">
        <ele>692</ele>
        <time>2019-05-23T00:09:55Z</time>
      </trkpt>
      <trkpt lat="44.22336" lon="3.1774">
        <ele>689</ele>
        <time>2019-05-23T00:09:58Z</time>
      </trkpt>
      <trkpt lat="44.22302" lon="3.17781">
        <ele>680</ele>
        <time>2019-05-23T00:10:06Z</time>
      </trkpt>
      <trkpt lat="44.22281" lon="3.17789">
        <ele>681</ele>
        <time>2019-05-23T00:10:10Z</time>
      </trkpt>
      <trkpt lat="44.22258" lon="3.17793">
        <ele>683</ele>
        <time>2019-05-23T00:10:14Z</time>
      </trkpt>
      <trkpt lat="44.22247" lon="3.178">
        <ele>683</ele>
        <time>2019-05-23T00:10:16Z</time>
      </trkpt>
      <trkpt lat="44.2223" lon="3.17841">
        <ele>674</ele>
        <time>2019-05-23T00:10:22Z</time>
      </trkpt>
      <trkpt lat="44.22215" lon="3.17856">
        <ele>672</ele>
        <time>2019-05-23T00:10:26Z</time>
      </trkpt>
      <trkpt lat="44.22189" lon="3.17873">
        <ele>671</ele>
        <time>2019-05-23T00:10:31Z</time>
      </trkpt>
      <trkpt lat="44.22162" lon="3.17887">
        <ele>672</ele>
        <time>2019-05-23T00:10:36Z</time>
      </trkpt>
      <trkpt lat="44.22135" lon="3.17907">
        <ele>669</ele>
        <time>2019-05-23T00:10:41Z</time>
      </trkpt>
      <trkpt lat="44.22111" lon="3.17933">
        <ele>664</ele>
        <time>2019-05-23T00:10:47Z</time>
      </trkpt>
      <trkpt lat="44.22063" lon="3.18003">
        <ele>641</ele>
        <time>2019-05-23T00:10:59Z</time>
      </trkpt>
      <trkpt lat="44.2204" lon="3.18002">
        <ele>637</ele>
        <time>2019-05-23T00:11:03Z</time>
      </trkpt>
      <trkpt lat="44.2202" lon="3.17986">
        <ele>640</ele>
        <time>2019-05-23T00:11:07Z</time>
      </trkpt>
      <trkpt lat="44.21978" lon="3.17944">
        <ele>648</ele>
        <time>2019-05-23T00:11:17Z</time>
      </trkpt>
      <trkpt lat="44.21949" lon="3.17949">
        <ele>639</ele>
        <time>2019-05-23T00:11:22Z</time>
      </trkpt>
      <trkpt lat="44.2191" lon="3.17931">
        <ele>639</ele>
        <time>2019-05-23T00:11:29Z</time>
      </trkpt>
      <trkpt lat="44.21881" lon="3.17936">
        <ele>636</ele>
        <time>2019-05-23T00:11:34Z</time>
      </trkpt>
      <trkpt lat="44.21855" lon="3.17955">
        <ele>628</ele>
        <time>2019-05-23T00:11:39Z</time>
      </trkpt>
      <trkpt lat="44.2182" lon="3.17977">
        <ele>619</ele>
        <time>2019-05-23T00:11:46Z</time>
      </trkpt>
      <trkpt lat="44.21793" lon="3.17973">
        <ele>618</ele>
        <time>2019-05-23T00:11:51Z</time>
      </trkpt>
      <trkpt lat="44.21774" lon="3.17953">
        <ele>623</ele>
        <time>2019-05-23T00:11:55Z</time>
      </trkpt>
      <trkpt lat="44.21764" lon="3.17933">
        <ele>628</ele>
        <time>2019-05-23T00:11:58Z</time>
      </trkpt>
      <trkpt lat="44.21754" lon="3.17924">
        <ele>629</ele>
        <time>2019-05-23T00:12:01Z</time>
      </trkpt>
      <trkpt lat="44.21744" lon="3.17926">
        <ele>631</ele>
        <time>2019-05-23T00:12:02Z</time>
      </trkpt>
      <trkpt lat="44.21736" lon="3.17935">
        <ele>631</ele>
        <time>2019-05-23T00:12:04Z</time>
      </trkpt>
      <trkpt lat="44.21714" lon="3.18001">
        <ele>623</ele>
        <time>2019-05-23T00:12:13Z</time>
      </trkpt>
      <trkpt lat="44.21697" lon="3.18085">
        <ele>607</ele>
        <time>2019-05-23T00:12:25Z</time>
      </trkpt>
      <trkpt lat="44.21688" lon="3.18106">
        <ele>603</ele>
        <time>2019-05-23T00:12:28Z</time>
      </trkpt>
      <trkpt lat="44.21679" lon="3.18119">
        <ele>601</ele>
        <time>2019-05-23T00:12:30Z</time>
      </trkpt>
      <trkpt lat="44.21586" lon="3.18201">
        <ele>589</ele>
        <time>2019-05-23T00:12:50Z</time>
      </trkpt>
      <trkpt lat="44.21565" lon="3.18212">
        <ele>584</ele>
        <time>2019-05-23T00:12:54Z</time>
      </trkpt>
      <trkpt lat="44.21545" lon="3.18209">
        <ele>585</ele>
        <time>2019-05-23T00:12:57Z</time>
      </trkpt>
      <trkpt lat="44.21475" lon="3.18183">
        <ele>590</ele>
        <time>2019-05-23T00:13:10Z</time>
      </trkpt>
      <trkpt lat="44.21451" lon="3.1818">
        <ele>589</ele>
        <time>2019-05-23T00:13:14Z</time>
      </trkpt>
      <trkpt lat="44.21434" lon="3.18185">
        <ele>585</ele>
        <time>2019-05-23T00:13:17Z</time>
      </trkpt>
      <trkpt lat="44.21406" lon="3.18199">
        <ele>578</ele>
        <time>2019-05-23T00:13:23Z</time>
      </trkpt>
      <trkpt lat="44.21329" lon="3.18219">
        <ele>571</ele>
        <time>2019-05-23T00:13:37Z</time>
      </trkpt>
      <trkpt lat="44.21262" lon="3.18233">
        <ele>571</ele>
        <time>2019-05-23T00:13:49Z</time>
      </trkpt>
      <trkpt lat="44.21246" lon="3.18248">
        <ele>568</ele>
        <time>2019-05-23T00:13:52Z</time>
      </trkpt>
      <trkpt lat="44.21214" lon="3.18303">
        <ele>552</ele>
        <time>2019-05-23T00:14:01Z</time>
      </trkpt>
      <trkpt lat="44.21202" lon="3.18309">
        <ele>550</ele>
        <time>2019-05-23T00:14:03Z</time>
      </trkpt>
      <trkpt lat="44.2117" lon="3.18297">
        <ele>552</ele>
        <time>2019-05-23T00:14:09Z</time>
      </trkpt>
      <trkpt lat="44.21113" lon="3.1827">
        <ele>556</ele>
        <time>2019-05-23T00:14:20Z</time>
      </trkpt>
      <trkpt lat="44.21096" lon="3.18268">
        <ele>555</ele>
        <time>2019-05-23T00:14:23Z</time>
      </trkpt>
      <trkpt lat="44.20989" lon="3.18293">
        <ele>542</ele>
        <time>2019-05-23T00:14:42Z</time>
      </trkpt>
      <trkpt lat="44.20948" lon="3.18297">
        <ele>540</ele>
        <time>2019-05-23T00:14:50Z</time>
      </trkpt>
      <trkpt lat="44.20914" lon="3.18296">
        <ele>540</ele>
        <time>2019-05-23T00:14:56Z</time>
      </trkpt>
      <trkpt lat="44.20899" lon="3.18301">
        <ele>539</ele>
        <time>2019-05-23T00:14:59Z</time>
      </trkpt>
      <trkpt lat="44.20823" lon="3.18341">
        <ele>523</ele>
        <time>2019-05-23T00:15:13Z</time>
      </trkpt>
      <trkpt lat="44.20823" lon="3.18341">
        <ele>523</ele>
        <time>2019-05-23T00:15:13Z</time>
      </trkpt>
      <trkpt lat="44.20816" lon="3.18344">
        <ele>521</ele>
        <time>2019-05-23T00:15:14Z</time>
      </trkpt>
      <trkpt lat="44.20792" lon="3.18338">
        <ele>521</ele>
        <time>2019-05-23T00:15:19Z</time>
      </trkpt>
      <trkpt lat="44.20736" lon="3.18301">
        <ele>536</ele>
        <time>2019-05-23T00:15:30Z</time>
      </trkpt>
      <trkpt lat="44.20717" lon="3.183">
        <ele>537</ele>
        <time>2019-05-23T00:15:33Z</time>
      </trkpt>
      <trkpt lat="44.20667" lon="3.18334">
        <ele>520</ele>
        <time>2019-05-23T00:15:43Z</time>
      </trkpt>
      <trkpt lat="44.20621" lon="3.1836">
        <ele>514</ele>
        <time>2019-05-23T00:15:52Z</time>
      </trkpt>
      <trkpt lat="44.20605" lon="3.18376">
        <ele>510</ele>
        <time>2019-05-23T00:15:55Z</time>
      </trkpt>
      <trkpt lat="44.20589" lon="3.18415">
        <ele>501</ele>
        <time>2019-05-23T00:16:01Z</time>
      </trkpt>
      <trkpt lat="44.2059" lon="3.18431">
        <ele>498</ele>
        <time>2019-05-23T00:16:03Z</time>
      </trkpt>
      <trkpt lat="44.20585" lon="3.18438">
        <ele>497</ele>
        <time>2019-05-23T00:16:04Z</time>
      </trkpt>
      <trkpt lat="44.20552" lon="3.18443">
        <ele>494</ele>
        <time>2019-05-23T00:16:10Z</time>
      </trkpt>
      <trkpt lat="44.20432" lon="3.18436">
        <ele>492</ele>
        <time>2019-05-23T00:16:32Z</time>
      </trkpt>
      <trkpt lat="44.20391" lon="3.1846">
        <ele>487</ele>
        <time>2019-05-23T00:16:40Z</time>
      </trkpt>
      <trkpt lat="44.20296" lon="3.18523">
        <ele>475</ele>
        <time>2019-05-23T00:16:58Z</time>
      </trkpt>
      <trkpt lat="44.20266" lon="3.18532">
        <ele>472</ele>
        <time>2019-05-23T00:17:04Z</time>
      </trkpt>
      <trkpt lat="44.20242" lon="3.18534">
        <ele>469</ele>
        <time>2019-05-23T00:17:08Z</time>
      </trkpt>
      <trkpt lat="44.20227" lon="3.18532">
        <ele>465</ele>
        <time>2019-05-23T00:17:11Z</time>
      </trkpt>
      <trkpt lat="44.20209" lon="3.18524">
        <ele>462</ele>
        <time>2019-05-23T00:17:14Z</time>
      </trkpt>
      <trkpt lat="44.20202" lon="3.18513">
        <ele>461</ele>
        <time>2019-05-23T00:17:16Z</time>
      </trkpt>
      <trkpt lat="44.202" lon="3.18498">
        <ele>463</ele>
        <time>2019-05-23T00:17:18Z</time>
      </trkpt>
      <trkpt lat="44.20225" lon="3.18394">
        <ele>466</ele>
        <time>2019-05-23T00:17:32Z</time>
      </trkpt>
      <trkpt lat="44.20226" lon="3.18386">
        <ele>466</ele>
        <time>2019-05-23T00:17:33Z</time>
      </trkpt>
      <trkpt lat="44.20224" lon="3.18381">
        <ele>465</ele>
        <time>2019-05-23T00:17:34Z</time>
      </trkpt>
      <trkpt lat="44.20219" lon="3.18379">
        <ele>463</ele>
        <time>2019-05-23T00:17:35Z</time>
      </trkpt>
      <trkpt lat="44.20197" lon="3.1841">
        <ele>459</ele>
        <time>2019-05-23T00:17:40Z</time>
      </trkpt>
      <trkpt lat="44.20172" lon="3.18456">
        <ele>453</ele>
        <time>2019-05-23T00:17:47Z</time>
      </trkpt>
      <trkpt lat="44.20171" lon="3.18438">
        <ele>452</ele>
        <time>2019-05-23T00:17:50Z</time>
      </trkpt>
      <trkpt lat="44.20174" lon="3.18395">
        <ele>451</ele>
        <time>2019-05-23T00:17:55Z</time>
      </trkpt>
      <trkpt lat="44.20178" lon="3.18377">
        <ele>451</ele>
        <time>2019-05-23T00:17:58Z</time>
      </trkpt>
      <trkpt lat="44.20161" lon="3.18355">
        <ele>444</ele>
        <time>2019-05-23T00:18:02Z</time>
      </trkpt>
      <trkpt lat="44.20146" lon="3.18345">
        <ele>441</ele>
        <time>2019-05-23T00:18:05Z</time>
      </trkpt>
      <trkpt lat="44.20139" lon="3.18347">
        <ele>439</ele>
        <time>2019-05-23T00:18:06Z</time>
      </trkpt>
      <trkpt lat="44.20122" lon="3.18365">
        <ele>437</ele>
        <time>2019-05-23T00:18:10Z</time>
      </trkpt>
      <trkpt lat="44.20119" lon="3.18363">
        <ele>436</ele>
        <time>2019-05-23T00:18:10Z</time>
      </trkpt>
      <trkpt lat="44.2012" lon="3.18322">
        <ele>434</ele>
        <time>2019-05-23T00:18:16Z</time>
      </trkpt>
      <trkpt lat="44.20083" lon="3.18294">
        <ele>426</ele>
        <time>2019-05-23T00:18:23Z</time>
      </trkpt>
      <trkpt lat="44.20079" lon="3.18273">
        <ele>424</ele>
        <time>2019-05-23T00:18:26Z</time>
      </trkpt>
      <trkpt lat="44.20066" lon="3.18252">
        <ele>421</ele>
        <time>2019-05-23T00:18:29Z</time>
      </trkpt>
      <trkpt lat="44.20027" lon="3.18233">
        <ele>412</ele>
        <time>2019-05-23T00:18:37Z</time>
      </trkpt>
      <trkpt lat="44.20019" lon="3.1821">
        <ele>410</ele>
        <time>2019-05-23T00:18:40Z</time>
      </trkpt>
      <trkpt lat="44.20015" lon="3.18175">
        <ele>408</ele>
        <time>2019-05-23T00:18:45Z</time>
      </trkpt>
      <trkpt lat="44.19975" lon="3.18077">
        <ele>398</ele>
        <time>2019-05-23T00:18:59Z</time>
      </trkpt>
      <trkpt lat="44.19982" lon="3.18037">
        <ele>397</ele>
        <time>2019-05-23T00:19:04Z</time>
      </trkpt>
      <trkpt lat="44.19995" lon="3.17993">
        <ele>397</ele>
        <time>2019-05-23T00:19:10Z</time>
      </trkpt>
      <trkpt lat="44.20029" lon="3.17897">
        <ele>397</ele>
        <time>2019-05-23T00:19:24Z</time>
      </trkpt>
      <trkpt lat="44.20068" lon="3.17807">
        <ele>397</ele>
        <time>2019-05-23T00:19:37Z</time>
      </trkpt>
      <trkpt lat="44.20081" lon="3.17766">
        <ele>395</ele>
        <time>2019-05-23T00:19:43Z</time>
      </trkpt>
      <trkpt lat="44.20098" lon="3.1766">
        <ele>395</ele>
        <time>2019-05-23T00:19:57Z</time>
      </trkpt>
      <trkpt lat="44.20104" lon="3.17611">
        <ele>395</ele>
        <time>2019-05-23T00:20:03Z</time>
      </trkpt>
      <trkpt lat="44.20105" lon="3.17559">
        <ele>393</ele>
        <time>2019-05-23T00:20:10Z</time>
      </trkpt>
      <trkpt lat="44.20108" lon="3.17527">
        <ele>392</ele>
        <time>2019-05-23T00:20:14Z</time>
      </trkpt>
      <trkpt lat="44.20123" lon="3.17462">
        <ele>392</ele>
        <time>2019-05-23T00:20:23Z</time>
      </trkpt>
      <trkpt lat="44.20135" lon="3.17426">
        <ele>392</ele>
        <time>2019-05-23T00:20:28Z</time>
      </trkpt>
      <trkpt lat="44.2015" lon="3.17392">
        <ele>391</ele>
        <time>2019-05-23T00:20:33Z</time>
      </trkpt>
      <trkpt lat="44.20167" lon="3.17365">
        <ele>390</ele>
        <time>2019-05-23T00:20:37Z</time>
      </trkpt>
      <trkpt lat="44.20173" lon="3.1735">
        <ele>390</ele>
        <time>2019-05-23T00:20:40Z</time>
      </trkpt>
      <trkpt lat="44.20178" lon="3.17327">
        <ele>388</ele>
        <time>2019-05-23T00:20:43Z</time>
      </trkpt>
      <trkpt lat="44.2018" lon="3.17308">
        <ele>388</ele>
        <time>2019-05-23T00:20:45Z</time>
      </trkpt>
      <trkpt lat="44.20181" lon="3.17246">
        <ele>389</ele>
        <time>2019-05-23T00:20:53Z</time>
      </trkpt>
      <trkpt lat="44.20179" lon="3.17203">
        <ele>392</ele>
        <time>2019-05-23T00:20:59Z</time>
      </trkpt>
      <trkpt lat="44.20161" lon="3.17098">
        <ele>392</ele>
        <time>2019-05-23T00:21:12Z</time>
      </trkpt>
      <trkpt lat="44.20156" lon="3.17032">
        <ele>395</ele>
        <time>2019-05-23T00:21:21Z</time>
      </trkpt>
      <trkpt lat="44.2014" lon="3.16934">
        <ele>398</ele>
        <time>2019-05-23T00:21:34Z</time>
      </trkpt>
      <trkpt lat="44.20124" lon="3.16791">
        <ele>395</ele>
        <time>2019-05-23T00:21:52Z</time>
      </trkpt>
      <trkpt lat="44.20121" lon="3.16727">
        <ele>396</ele>
        <time>2019-05-23T00:22:00Z</time>
      </trkpt>
      <trkpt lat="44.20124" lon="3.16627">
        <ele>400</ele>
        <time>2019-05-23T00:22:13Z</time>
      </trkpt>
      <trkpt lat="44.20124" lon="3.16576">
        <ele>401</ele>
        <time>2019-05-23T00:22:20Z</time>
      </trkpt>
      <trkpt lat="44.20109" lon="3.1645">
        <ele>397</ele>
        <time>2019-05-23T00:22:36Z</time>
      </trkpt>
      <trkpt lat="44.20105" lon="3.16359">
        <ele>397</ele>
        <time>2019-05-23T00:22:47Z</time>
      </trkpt>
      <trkpt lat="44.20102" lon="3.16228">
        <ele>404</ele>
        <time>2019-05-23T00:23:04Z</time>
      </trkpt>
      <trkpt lat="44.20096" lon="3.16144">
        <ele>399</ele>
        <time>2019-05-23T00:23:15Z</time>
      </trkpt>
      <trkpt lat="44.20096" lon="3.16117">
        <ele>396</ele>
        <time>2019-05-23T00:23:18Z</time>
      </trkpt>
      <trkpt lat="44.201" lon="3.16086">
        <ele>393</ele>
        <time>2019-05-23T00:23:22Z</time>
      </trkpt>
      <trkpt lat="44.20111" lon="3.16042">
        <ele>391</ele>
        <time>2019-05-23T00:23:28Z</time>
      </trkpt>
      <trkpt lat="44.20127" lon="3.16014">
        <ele>389</ele>
        <time>2019-05-23T00:23:33Z</time>
      </trkpt>
      <trkpt lat="44.20145" lon="3.16001">
        <ele>389</ele>
        <time>2019-05-23T00:23:37Z</time>
      </trkpt>
      <trkpt lat="44.20349" lon="3.15912">
        <ele>390</ele>
        <time>2019-05-23T00:24:15Z</time>
      </trkpt>
      <trkpt lat="44.20355" lon="3.15904">
        <ele>390</ele>
        <time>2019-05-23T00:24:16Z</time>
      </trkpt>
      <trkpt lat="44.20361" lon="3.15894">
        <ele>390</ele>
        <time>2019-05-23T00:24:18Z</time>
      </trkpt>
      <trkpt lat="44.20363" lon="3.15885">
        <ele>390</ele>
        <time>2019-05-23T00:24:19Z</time>
      </trkpt>
      <trkpt lat="44.20363" lon="3.15874">
        <ele>389</ele>
        <time>2019-05-23T00:24:20Z</time>
      </trkpt>
      <trkpt lat="44.20344" lon="3.15769">
        <ele>388</ele>
        <time>2019-05-23T00:24:34Z</time>
      </trkpt>
      <trkpt lat="44.20336" lon="3.15744">
        <ele>389</ele>
        <time>2019-05-23T00:24:38Z</time>
      </trkpt>
      <trkpt lat="44.20328" lon="3.15732">
        <ele>390</ele>
        <time>2019-05-23T00:24:40Z</time>
      </trkpt>
      <trkpt lat="44.20316" lon="3.1572">
        <ele>391</ele>
        <time>2019-05-23T00:24:42Z</time>
      </trkpt>
      <trkpt lat="44.20302" lon="3.15711">
        <ele>391</ele>
        <time>2019-05-23T00:24:45Z</time>
      </trkpt>
      <trkpt lat="44.2029" lon="3.15707">
        <ele>392</ele>
        <time>2019-05-23T00:24:47Z</time>
      </trkpt>
      <trkpt lat="44.20271" lon="3.15705">
        <ele>392</ele>
        <time>2019-05-23T00:24:51Z</time>
      </trkpt>
      <trkpt lat="44.20173" lon="3.15703">
        <ele>393</ele>
        <time>2019-05-23T00:25:08Z</time>
      </trkpt>
      <trkpt lat="44.20154" lon="3.15698">
        <ele>392</ele>
        <time>2019-05-23T00:25:12Z</time>
      </trkpt>
      <trkpt lat="44.2014" lon="3.15689">
        <ele>392</ele>
        <time>2019-05-23T00:25:14Z</time>
      </trkpt>
      <trkpt lat="44.2013" lon="3.15681">
        <ele>392</ele>
        <time>2019-05-23T00:25:16Z</time>
      </trkpt>
      <trkpt lat="44.20119" lon="3.15667">
        <ele>392</ele>
        <time>2019-05-23T00:25:19Z</time>
      </trkpt>
      <trkpt lat="44.20109" lon="3.15648">
        <ele>393</ele>
        <time>2019-05-23T00:25:22Z</time>
      </trkpt>
      <trkpt lat="44.20098" lon="3.15619">
        <ele>394</ele>
        <time>2019-05-23T00:25:26Z</time>
      </trkpt>
      <trkpt lat="44.20075" lon="3.15542">
        <ele>398</ele>
        <time>2019-05-23T00:25:37Z</time>
      </trkpt>
      <trkpt lat="44.20066" lon="3.15516">
        <ele>399</ele>
        <time>2019-05-23T00:25:40Z</time>
      </trkpt>
      <trkpt lat="44.20052" lon="3.15486">
        <ele>400</ele>
        <time>2019-05-23T00:25:45Z</time>
      </trkpt>
      <trkpt lat="44.20029" lon="3.15448">
        <ele>400</ele>
        <time>2019-05-23T00:25:51Z</time>
      </trkpt>
      <trkpt lat="44.20003" lon="3.15415">
        <ele>400</ele>
        <time>2019-05-23T00:25:58Z</time>
      </trkpt>
      <trkpt lat="44.19965" lon="3.15385">
        <ele>399</ele>
        <time>2019-05-23T00:26:05Z</time>
      </trkpt>
      <trkpt lat="44.19933" lon="3.15372">
        <ele>397</ele>
        <time>2019-05-23T00:26:11Z</time>
      </trkpt>
      <trkpt lat="44.19903" lon="3.15366">
        <ele>395</ele>
        <time>2019-05-23T00:26:17Z</time>
      </trkpt>
      <trkpt lat="44.19877" lon="3.15364">
        <ele>395</ele>
        <time>2019-05-23T00:26:21Z</time>
      </trkpt>
      <trkpt lat="44.19847" lon="3.15367">
        <ele>393</ele>
        <time>2019-05-23T00:26:27Z</time>
      </trkpt>
      <trkpt lat="44.19771" lon="3.15378">
        <ele>395</ele>
        <time>2019-05-23T00:26:40Z</time>
      </trkpt>
      <trkpt lat="44.19722" lon="3.15379">
        <ele>397</ele>
        <time>2019-05-23T00:26:49Z</time>
      </trkpt>
      <trkpt lat="44.19627" lon="3.15366">
        <ele>401</ele>
        <time>2019-05-23T00:27:06Z</time>
      </trkpt>
      <trkpt lat="44.19588" lon="3.15371">
        <ele>400</ele>
        <time>2019-05-23T00:27:13Z</time>
      </trkpt>
      <trkpt lat="44.19528" lon="3.1539">
        <ele>405</ele>
        <time>2019-05-23T00:27:24Z</time>
      </trkpt>
      <trkpt lat="44.19507" lon="3.15401">
        <ele>405</ele>
        <time>2019-05-23T00:27:28Z</time>
      </trkpt>
      <trkpt lat="44.19484" lon="3.15416">
        <ele>407</ele>
        <time>2019-05-23T00:27:32Z</time>
      </trkpt>
      <trkpt lat="44.19467" lon="3.15431">
        <ele>409</ele>
        <time>2019-05-23T00:27:36Z</time>
      </trkpt>
      <trkpt lat="44.19326" lon="3.15588">
        <ele>403</ele>
        <time>2019-05-23T00:28:08Z</time>
      </trkpt>
      <trkpt lat="44.19314" lon="3.15598">
        <ele>403</ele>
        <time>2019-05-23T00:28:11Z</time>
      </trkpt>
      <trkpt lat="44.19289" lon="3.15607">
        <ele>405</ele>
        <time>2019-05-23T00:28:15Z</time>
      </trkpt>
      <trkpt lat="44.19239" lon="3.15628">
        <ele>406</ele>
        <time>2019-05-23T00:28:25Z</time>
      </trkpt>
      <trkpt lat="44.19203" lon="3.15638">
        <ele>404</ele>
        <time>2019-05-23T00:28:31Z</time>
      </trkpt>
      <trkpt lat="44.19148" lon="3.15648">
        <ele>400</ele>
        <time>2019-05-23T00:28:41Z</time>
      </trkpt>
      <trkpt lat="44.19108" lon="3.15652">
        <ele>397</ele>
        <time>2019-05-23T00:28:48Z</time>
      </trkpt>
      <trkpt lat="44.1908" lon="3.15648">
        <ele>397</ele>
        <time>2019-05-23T00:28:53Z</time>
      </trkpt>
      <trkpt lat="44.19057" lon="3.15639">
        <ele>397</ele>
        <time>2019-05-23T00:28:57Z</time>
      </trkpt>
      <trkpt lat="44.19008" lon="3.15604">
        <ele>395</ele>
        <time>2019-05-23T00:29:07Z</time>
      </trkpt>
      <trkpt lat="44.1899" lon="3.15588">
        <ele>394</ele>
        <time>2019-05-23T00:29:11Z</time>
      </trkpt>
      <trkpt lat="44.18982" lon="3.15577">
        <ele>393</ele>
        <time>2019-05-23T00:29:13Z</time>
      </trkpt>
    </trkseg>
  </trk>
</gpx>